[[{"header":{"parameterUnit":"m.s-1","parameterCategory":1,"la1":30.6,"la2":29.2853,"lo1":-89.7004,"lo2":-87.6739,"dy":0.0162,"dx":0.0183,"nx":112,"ny":82,"refTime":"2026-03-25T12:00:00:Z","depth":0,"parameterNumber":2,"parameterNumberName":"U-component_of_WINDS"},"data":[0.0,0.0,0.0,0.0,0.0,0.0,0.0,0.0,0.0,0.0,0.0,0.0,0.0,0.0,0.0,0.0,0.0,0.0,0.0,0.0,0.0,0.0,0.0,0.0,0.0,0.0,0.0,0.0,0.0,0.0,0.0,0.0,0.0,0.0,0.0,0.0,0.0,0.0,0.0,0.0,0.0,0.0,0.0,0.0,0.0,0.0,0.0,0.0,0.0,0.0,0.0,0.0,0.0,0.0,0.0,0.0,0.0,0.0,0.0,0.0,0.0,0.0,0.0,0.0,0.0,0.0,0.0,0.0,0.0,0.0,0.0,0.0,0.0,0.0,0.0,0.0,0.0,0.0,0.0,0.0,0.0,0.0,0.0,0.0,0.0,0.0,0.0,0.0,0.0,0.0,5.4463,5.8341,6.4677,6.8622,6.8622,6.6882,6.2704,5.5432,0.0,0.0,0.0,0.0,0.0,0.0,0.0,0.0,0.0,0.0,0.0,0.0,0.0,0.0,0.0,0.0,0.0,0.0,0.0,0.0,0.0,0.0,0.0,0.0,0.0,0.0,0.0,0.0,0.0,0.0,0.0,0.0,0.0,0.0,0.0,0.0,0.0,0.0,0.0,0.0,0.0,0.0,0.0,0.0,0.0,0.0,0.0,0.0,0.0,0.0,0.0,0.0,0.0,0.0,0.0,0.0,0.0,0.0,0.0,0.0,0.0,0.0,0.0,0.0,0.0,0.0,0.0,0.0,0.0,0.0,0.0,0.0,0.0,0.0,0.0,0.0,0.0,0.0,0.0,0.0,0.0,0.0,0.0,0.0,0.0,0.0,0.0,0.0,0.0,0.0,0.0,0.0,0.0,0.0,0.0,0.0,0.0,0.0,0.0,0.0,0.0,0.0,0.0,0.0,5.4041,6.3806,6.6572,6.7694,6.7694,6.545,6.1698,5.6167,0.0,0.0,0.0,0.0,0.0,0.0,0.0,0.0,0.0,0.0,0.0,0.0,0.0,0.0,0.0,0.0,0.0,0.0,0.0,0.0,0.0,0.0,0.0,0.0,0.0,0.0,0.0,0.0,0.0,0.0,0.0,0.0,0.0,0.0,0.0,0.0,0.0,0.0,0.0,0.0,0.0,0.0,0.0,0.0,0.0,0.0,0.0,0.0,0.0,0.0,0.0,0.0,0.0,0.0,0.0,0.0,0.0,0.0,0.0,0.0,0.0,0.0,0.0,0.0,0.0,0.0,0.0,0.0,0.0,0.0,0.0,0.0,0.0,0.0,0.0,0.0,0.0,0.0,0.0,0.0,0.0,0.0,0.0,0.0,0.0,0.0,0.0,0.0,0.0,0.0,0.0,0.0,0.0,0.0,0.0,0.0,0.0,0.0,0.0,0.0,0.0,0.0,0.0,5.2923,5.719,6.5953,6.7268,6.748,6.7459,6.51,6.1428,5.6268,5.1918,0.0,0.0,0.0,0.0,0.0,0.0,0.0,0.0,0.0,0.0,0.0,0.0,0.0,0.0,0.0,0.0,0.0,0.0,0.0,0.0,0.0,0.0,0.0,0.0,0.0,0.0,0.0,0.0,0.0,0.0,0.0,0.0,0.0,0.0,0.0,0.0,0.0,0.0,0.0,0.0,0.0,0.0,0.0,0.0,0.0,0.0,0.0,0.0,0.0,0.0,0.0,0.0,0.0,0.0,0.0,0.0,0.0,0.0,0.0,0.0,0.0,0.0,0.0,0.0,0.0,0.0,0.0,0.0,0.0,0.0,0.0,0.0,0.0,0.0,0.0,0.0,0.0,0.0,0.0,0.0,0.0,0.0,0.0,0.0,0.0,0.0,0.0,0.0,0.0,0.0,0.0,0.0,0.0,0.0,0.0,0.0,0.0,0.0,0.0,0.0,0.0,0.0,5.7889,6.0693,6.6552,6.7149,6.7128,6.7084,6.4188,6.0519,5.6154,5.0361,0.0,0.0,0.0,0.0,0.0,0.0,0.0,0.0,0.0,0.0,0.0,0.0,0.0,0.0,0.0,0.0,0.0,0.0,0.0,0.0,0.0,0.0,0.0,0.0,0.0,0.0,0.0,0.0,0.0,0.0,0.0,0.0,0.0,0.0,0.0,0.0,0.0,0.0,0.0,0.0,0.0,0.0,0.0,0.0,0.0,0.0,0.0,0.0,0.0,0.0,0.0,0.0,0.0,0.0,0.0,0.0,0.0,0.0,0.0,0.0,0.0,0.0,0.0,0.0,0.0,0.0,0.0,0.0,0.0,0.0,0.0,0.0,0.0,0.0,0.0,0.0,0.0,0.0,0.0,0.0,0.0,0.0,0.0,0.0,0.0,0.0,0.0,0.0,0.0,0.0,0.0,0.0,0.0,0.0,0.0,0.0,0.0,0.0,0.0,0.0,0.0,0.0,5.8047,6.2948,6.5908,6.6135,6.609,6.609,6.1576,5.7931,5.6039,4.8137,0.0,0.0,0.0,0.0,0.0,0.0,0.0,0.0,0.0,0.0,0.0,0.0,0.0,0.0,0.0,0.0,0.0,0.0,0.0,0.0,0.0,0.0,0.0,0.0,0.0,0.0,0.0,0.0,0.0,0.0,0.0,0.0,0.0,0.0,0.0,0.0,0.0,0.0,0.0,0.0,0.0,0.0,0.0,0.0,0.0,0.0,0.0,0.0,0.0,0.0,0.0,0.0,0.0,0.0,0.0,0.0,0.0,0.0,0.0,0.0,0.0,0.0,0.0,0.0,0.0,0.0,0.0,0.0,0.0,0.0,0.0,0.0,0.0,0.0,0.0,0.0,0.0,0.0,0.0,0.0,0.0,0.0,0.0,0.0,0.0,0.0,0.0,0.0,0.0,0.0,0.0,0.0,0.0,0.0,0.0,0.0,0.0,0.0,0.0,0.0,0.0,0.0,5.6985,6.1422,0.0,6.6013,6.599,6.6005,6.2805,5.9143,5.5249,0.0,0.0,0.0,0.0,0.0,0.0,0.0,0.0,0.0,0.0,0.0,0.0,0.0,0.0,0.0,0.0,0.0,0.0,0.0,0.0,0.0,0.0,0.0,0.0,0.0,0.0,0.0,0.0,0.0,0.0,0.0,0.0,0.0,0.0,0.0,0.0,0.0,0.0,0.0,0.0,0.0,0.0,0.0,0.0,0.0,0.0,0.0,0.0,0.0,0.0,0.0,0.0,0.0,0.0,0.0,0.0,0.0,0.0,0.0,0.0,0.0,0.0,0.0,0.0,0.0,0.0,0.0,0.0,0.0,0.0,0.0,0.0,0.0,0.0,0.0,0.0,0.0,0.0,0.0,0.0,0.0,0.0,0.0,0.0,0.0,0.0,0.0,0.0,0.0,0.0,0.0,0.0,0.0,0.0,0.0,0.0,0.0,0.0,0.0,0.0,0.0,0.0,5.2679,5.7235,6.1704,0.0,6.6776,6.6844,6.7166,6.4085,5.9964,5.4803,0.0,0.0,0.0,0.0,0.0,0.0,0.0,0.0,0.0,0.0,0.0,0.0,0.0,0.0,0.0,0.0,0.0,0.0,0.0,0.0,0.0,0.0,0.0,0.0,0.0,0.0,0.0,0.0,0.0,0.0,0.0,0.0,0.0,0.0,0.0,0.0,0.0,0.0,0.0,0.0,0.0,0.0,0.0,0.0,0.0,0.0,0.0,0.0,0.0,0.0,0.0,0.0,0.0,0.0,0.0,0.0,0.0,0.0,0.0,0.0,0.0,0.0,0.0,0.0,0.0,0.0,0.0,0.0,0.0,0.0,0.0,0.0,0.0,0.0,0.0,0.0,0.0,0.0,0.0,0.0,0.0,0.0,0.0,0.0,0.0,0.0,0.0,0.0,0.0,0.0,0.0,0.0,0.0,0.0,0.0,0.0,0.0,0.0,0.0,0.0,0.0,0.0,5.2988,5.9254,6.4691,6.8167,6.8462,6.8783,6.9629,6.5051,5.9919,0.0,0.0,0.0,0.0,0.0,0.0,0.0,0.0,0.0,0.0,0.0,0.0,0.0,0.0,0.0,0.0,0.0,0.0,0.0,0.0,0.0,0.0,0.0,0.0,0.0,0.0,0.0,0.0,0.0,0.0,0.0,0.0,0.0,0.0,0.0,0.0,0.0,0.0,0.0,0.0,0.0,0.0,0.0,0.0,0.0,0.0,0.0,0.0,0.0,0.0,0.0,0.0,0.0,0.0,0.0,0.0,0.0,0.0,0.0,0.0,0.0,0.0,0.0,0.0,0.0,0.0,0.0,0.0,0.0,0.0,0.0,0.0,0.0,0.0,0.0,0.0,0.0,0.0,0.0,0.0,0.0,0.0,0.0,0.0,0.0,0.0,0.0,0.0,0.0,0.0,0.0,0.0,0.0,0.0,0.0,0.0,0.0,0.0,0.0,0.0,0.0,0.0,0.0,5.5441,6.2367,6.7975,7.081,7.0514,7.0052,6.9744,6.6128,6.0896,5.4031,0.0,0.0,0.0,0.0,0.0,0.0,0.0,0.0,0.0,0.0,0.0,0.0,0.0,0.0,0.0,0.0,0.0,0.0,0.0,0.0,0.0,0.0,0.0,0.0,0.0,0.0,0.0,0.0,0.0,0.0,0.0,0.0,0.0,0.0,0.0,0.0,0.0,0.0,0.0,0.0,0.0,0.0,0.0,0.0,0.0,0.0,0.0,0.0,0.0,0.0,0.0,0.0,0.0,0.0,0.0,0.0,0.0,0.0,0.0,0.0,0.0,0.0,0.0,0.0,0.0,0.0,0.0,0.0,0.0,0.0,0.0,0.0,0.0,0.0,0.0,0.0,0.0,0.0,0.0,0.0,0.0,0.0,0.0,0.0,0.0,0.0,0.0,0.0,0.0,0.0,0.0,0.0,0.0,0.0,0.0,0.0,0.0,0.0,0.0,0.0,0.0,0.0,5.5959,6.3498,6.9398,7.1937,7.1745,7.1206,7.0744,6.8205,6.3205,5.5203,0.0,0.0,0.0,0.0,0.0,0.0,0.0,0.0,0.0,0.0,0.0,0.0,0.0,0.0,0.0,0.0,0.0,0.0,0.0,0.0,0.0,0.0,0.0,0.0,0.0,0.0,0.0,0.0,0.0,0.0,0.0,0.0,0.0,0.0,0.0,0.0,0.0,0.0,0.0,0.0,0.0,0.0,0.0,0.0,0.0,0.0,0.0,0.0,0.0,0.0,0.0,0.0,0.0,0.0,0.0,0.0,0.0,0.0,0.0,0.0,0.0,0.0,0.0,0.0,0.0,0.0,0.0,0.0,0.0,0.0,0.0,0.0,0.0,0.0,0.0,0.0,0.0,0.0,0.0,0.0,0.0,0.0,0.0,0.0,0.0,0.0,0.0,0.0,0.0,0.0,0.0,0.0,0.0,0.0,0.0,0.0,0.0,0.0,0.0,0.0,0.0,0.0,5.5612,6.3614,6.9821,7.2283,7.2476,7.236,7.2206,7.0591,6.6013,5.7627,0.0,0.0,0.0,0.0,0.0,0.0,0.0,0.0,0.0,0.0,0.0,0.0,0.0,0.0,0.0,0.0,0.0,0.0,0.0,0.0,0.0,0.0,0.0,0.0,0.0,0.0,0.0,0.0,0.0,0.0,0.0,0.0,0.0,0.0,0.0,0.0,0.0,0.0,0.0,0.0,0.0,0.0,0.0,0.0,0.0,0.0,0.0,0.0,0.0,0.0,0.0,0.0,0.0,0.0,0.0,0.0,0.0,0.0,0.0,0.0,5.8844,0.0,0.0,0.0,0.0,0.0,0.0,0.0,0.0,0.0,0.0,0.0,0.0,0.0,0.0,0.0,0.0,0.0,0.0,0.0,0.0,0.0,0.0,0.0,0.0,0.0,0.0,0.0,0.0,0.0,0.0,0.0,0.0,0.0,0.0,0.0,0.0,0.0,0.0,0.0,0.0,0.0,5.8072,6.6744,7.3129,7.4976,7.4591,7.3601,7.2237,6.997,6.5525,5.8232,5.2593,0.0,0.0,0.0,0.0,0.0,0.0,0.0,0.0,0.0,0.0,0.0,0.0,0.0,0.0,0.0,0.0,0.0,0.0,0.0,0.0,0.0,0.0,0.0,0.0,0.0,0.0,0.0,0.0,0.0,0.0,0.0,0.0,0.0,0.0,0.0,0.0,0.0,0.0,0.0,0.0,0.0,0.0,0.0,0.0,0.0,0.0,0.0,0.0,0.0,0.0,0.0,0.0,0.0,0.0,0.0,0.0,0.0,0.0,0.0,0.0,6.0422,0.0,0.0,0.0,0.0,0.0,0.0,0.0,0.0,0.0,0.0,0.0,0.0,0.0,0.0,0.0,0.0,0.0,0.0,0.0,0.0,0.0,0.0,0.0,0.0,0.0,0.0,0.0,0.0,0.0,0.0,0.0,0.0,0.0,0.0,0.0,0.0,0.0,0.0,0.0,0.0,5.8235,6.7038,7.3149,7.3974,7.3697,7.289,7.1564,6.9462,6.62,6.1364,5.5499,0.0,0.0,0.0,0.0,0.0,0.0,0.0,0.0,0.0,0.0,0.0,0.0,0.0,0.0,0.0,0.0,0.0,0.0,0.0,0.0,0.0,0.0,0.0,0.0,0.0,0.0,0.0,0.0,0.0,0.0,0.0,0.0,0.0,0.0,0.0,0.0,0.0,0.0,0.0,0.0,0.0,0.0,0.0,0.0,0.0,0.0,0.0,0.0,0.0,0.0,0.0,0.0,0.0,0.0,7.2633,7.446,7.6627,7.6906,7.5527,7.1251,6.8366,6.6453,0.0,0.0,0.0,0.0,0.0,0.0,0.0,0.0,0.0,0.0,0.0,0.0,0.0,0.0,0.0,0.0,0.0,0.0,0.0,0.0,0.0,0.0,0.0,0.0,0.0,6.01,6.0555,0.0,0.0,0.0,0.0,0.0,0.0,0.0,0.0,0.0,0.0,0.0,0.0,5.7973,6.6343,7.1909,7.1973,7.2033,7.1718,7.0784,6.9174,6.7151,6.4709,5.9115,5.3828,0.0,0.0,0.0,0.0,0.0,0.0,0.0,0.0,0.0,0.0,0.0,0.0,0.0,0.0,0.0,0.0,0.0,0.0,0.0,0.0,0.0,0.0,0.0,0.0,0.0,0.0,0.0,0.0,0.0,0.0,0.0,0.0,5.1515,5.1865,0.0,0.0,0.0,0.0,0.0,0.0,0.0,0.0,0.0,0.0,0.0,0.0,0.0,0.0,6.9557,7.5647,7.8511,7.8113,8.3451,8.5377,8.4245,8.4597,8.5026,8.5495,8.4837,0.0,7.1122,7.0533,0.0,0.0,0.0,0.0,0.0,0.0,0.0,0.0,0.0,0.0,0.0,0.0,0.0,0.0,0.0,0.0,0.0,0.0,0.0,0.0,0.0,0.0,6.718,6.6538,6.7257,6.7353,0.0,5.7759,5.077,4.6317,0.0,0.0,0.0,0.0,0.0,0.0,0.0,0.0,5.9651,6.6479,7.1198,7.1935,7.2011,7.1636,7.0693,6.9084,6.7293,6.5367,6.0436,5.6308,5.3402,4.7821,0.0,0.0,0.0,0.0,0.0,0.0,0.0,0.0,0.0,0.0,0.0,0.0,0.0,0.0,0.0,0.0,0.0,0.0,0.0,0.0,0.0,0.0,0.0,0.0,0.0,0.0,0.0,0.0,0.0,5.0127,5.4079,5.2083,5.4032,5.4071,0.0,0.0,0.0,0.0,0.0,0.0,0.0,0.0,0.0,7.1246,7.3072,7.5686,7.9292,8.2819,8.509,8.6183,8.8376,8.9789,9.0459,8.9969,8.9964,9.0335,9.0303,8.7186,8.1769,7.7415,7.2341,6.6947,0.0,0.0,0.0,0.0,0.0,6.044,6.5111,0.0,0.0,0.0,0.0,0.0,0.0,0.0,0.0,0.0,0.0,0.0,0.0,0.0,0.0,7.0528,7.1458,7.17,7.0453,6.6112,6.0475,0.0,5.1217,4.8377,4.2718,0.0,0.0,0.0,0.0,5.7315,6.1425,6.7016,7.0769,7.1083,7.1191,7.0846,6.991,6.8686,6.724,6.549,6.2433,5.9376,5.6358,5.1926,4.7494,0.0,0.0,0.0,0.0,0.0,0.0,0.0,0.0,0.0,0.0,0.0,0.0,0.0,0.0,0.0,0.0,0.0,0.0,0.0,0.0,0.0,0.0,0.0,0.0,0.0,0.0,0.0,0.0,5.2968,5.6875,5.3397,5.7187,5.8045,0.0,0.0,0.0,0.0,0.0,0.0,6.7025,6.9653,7.3641,7.9236,8.0829,8.349,8.7407,8.8305,8.9711,9.1624,9.0973,9.1676,9.3537,9.2898,9.2585,9.26,9.26,9.1871,9.013,8.3239,7.7734,7.3242,6.9171,6.7057,0.0,6.7499,6.7484,6.7766,7.3549,7.4447,7.284,7.1982,0.0,6.5184,5.9363,0.0,0.0,0.0,0.0,6.0393,6.5585,0.0,7.0414,7.3085,7.4333,7.4689,7.3832,7.1848,6.8132,0.0,5.8065,5.4803,4.8677,0.0,0.0,0.0,0.0,5.9775,6.3179,6.7493,7.0292,7.0381,7.0522,7.0178,6.9273,6.8394,6.7286,6.5834,6.4153,6.2013,5.93,5.6091,5.2155,4.7302,0.0,0.0,0.0,0.0,0.0,0.0,0.0,0.0,0.0,0.0,0.0,0.0,0.0,0.0,0.0,0.0,0.0,0.0,0.0,0.0,0.0,0.0,0.0,0.0,0.0,0.0,0.0,0.0,0.0,5.7894,6.2735,0.0,0.0,0.0,0.0,6.3416,6.7721,7.1669,7.5052,7.772,8.1122,8.5495,8.6549,8.8305,9.0999,9.1897,9.2404,9.2522,9.2473,9.2551,9.2678,9.26,9.26,9.26,9.26,9.2556,9.2109,8.7656,8.4179,8.1367,7.789,7.6015,7.5156,7.4418,7.4101,7.4474,7.7263,7.7062,7.6281,8.0263,7.7062,7.1089,6.8239,6.4492,0.0,0.0,6.496,6.6912,6.9723,7.23,7.4447,7.5423,7.6166,7.6456,7.556,7.2578,6.9261,0.0,6.436,6.164,5.6975,0.0,5.628,5.6206,5.8578,6.1573,6.484,6.763,6.954,7.0342,7.0419,7.0075,6.9273,6.8394,6.7553,6.6674,6.507,6.3694,6.2701,6.0179,5.6778,5.2499,4.8334,0.0,0.0,0.0,0.0,0.0,0.0,0.0,0.0,0.0,0.0,0.0,0.0,0.0,0.0,0.0,0.0,0.0,0.0,0.0,0.0,0.0,0.0,0.0,0.0,0.0,0.0,0.0,0.0,6.292,6.8078,0.0,6.6912,6.7068,6.8591,7.1435,7.5188,7.8585,8.1428,8.4089,8.6431,8.854,8.9984,9.1207,9.2122,9.2434,9.2898,9.3419,9.2886,9.2907,9.3429,9.2843,9.2609,9.2609,9.2609,9.2262,9.1601,8.9521,8.7752,8.6069,8.2632,8.1117,8.0813,8.0528,8.0397,8.0587,8.202,8.1396,7.9873,7.917,7.6516,7.3119,7.0543,6.8708,6.7615,6.8239,6.9645,7.1429,7.3271,7.4927,7.6154,7.632,7.6521,7.6606,7.6324,7.4671,7.2728,7.117,6.7299,6.3345,6.0495,6.0862,6.119,6.0081,6.25,6.5329,6.7553,6.9082,6.9884,6.9655,6.9616,6.9082,6.7706,6.6789,6.5719,6.4344,6.3159,6.2166,6.1325,5.9873,5.7657,5.4524,5.1839,4.6892,0.0,0.0,0.0,0.0,0.0,0.0,0.0,0.0,0.0,0.0,0.0,0.0,0.0,0.0,0.0,0.0,0.0,0.0,0.0,0.0,0.0,0.0,0.0,0.0,0.0,0.0,6.7927,6.7331,7.284,7.5579,7.2729,7.3744,7.5657,7.8233,8.1083,8.3855,8.6431,8.7928,8.9378,9.0823,9.1708,9.23,9.259,9.2606,9.288,9.3454,9.2868,9.2919,9.3437,9.2851,9.2617,9.2617,9.2613,9.226,9.1633,9.0482,8.9645,8.8813,8.5683,8.4453,8.4429,8.4429,8.4458,8.4519,8.5065,8.4323,8.2684,7.9795,7.7882,7.6281,7.3972,7.3303,7.3225,7.2906,7.3647,7.4757,7.5612,7.6364,7.6843,7.6615,7.6549,7.6514,7.6549,7.5681,7.4586,7.3574,6.9951,6.6526,6.4632,6.5168,6.5222,6.3227,6.5329,6.7286,6.7859,6.889,6.9349,6.8814,6.8738,6.8203,6.6827,6.5643,6.4535,6.3427,6.1946,6.08,5.996,5.8852,5.7057,5.4511,5.1332,4.6961,4.1338,0.0,0.0,0.0,0.0,0.0,0.0,0.0,0.0,0.0,0.0,0.0,0.0,0.0,0.0,0.0,0.0,0.0,0.0,0.0,0.0,0.0,0.0,0.0,6.0198,6.7932,7.2773,7.1212,7.6984,7.9834,7.6605,7.8473,8.0972,8.3549,8.526,8.729,8.9867,8.9232,8.9947,9.2486,9.1765,9.1748,9.2606,9.2611,9.2617,9.2617,9.2617,9.2617,9.2617,9.2617,9.2617,9.2617,9.259,9.26,9.2489,9.0759,9.0013,8.975,8.7134,8.6158,8.6158,8.6158,8.6158,8.6158,8.6119,8.5534,8.4519,8.2879,8.1747,8.0686,7.8994,7.8441,7.8238,7.7285,7.7043,7.6985,7.6728,7.6699,7.6615,7.6342,7.6278,7.6295,7.6295,7.5569,7.4601,7.3532,7.265,7.1428,6.9534,6.9234,6.8356,6.5872,6.6865,0.0,6.5681,6.6904,6.7859,6.7821,6.7821,6.7515,6.6674,6.507,6.4114,6.4114,6.1649,5.9798,5.8959,5.7357,5.5298,5.2819,4.7014,4.32,4.144,0.0,0.0,0.0,0.0,0.0,0.0,0.0,0.0,0.0,0.0,0.0,0.0,0.0,0.0,0.0,0.0,0.0,0.0,0.0,0.0,0.0,0.0,6.3855,6.3291,7.0123,7.5946,7.7914,8.1508,8.4199,8.5097,8.4667,8.5179,8.7167,8.7713,8.8563,8.9945,9.0387,9.0916,9.164,9.2028,9.2379,9.2613,9.2617,9.2617,9.2617,9.2617,9.2617,9.2617,9.2603,9.259,9.259,9.2595,9.2585,9.2522,9.1402,9.0576,8.9789,8.7837,8.7056,8.7056,8.7056,8.7056,8.6939,8.6314,8.5527,8.4615,8.3522,8.2148,8.0844,8.0367,7.9782,7.908,7.8174,7.794,7.7696,7.6669,7.6534,7.6534,7.6121,7.5964,7.5947,7.6002,7.5639,7.5079,7.4139,7.3303,7.2161,7.0381,6.9578,6.8967,6.8241,6.8012,0.0,6.7247,6.7591,6.7439,6.6216,6.6101,6.5757,6.4955,6.3282,6.2231,6.2231,5.9235,5.7616,5.7958,5.6359,5.5113,5.4372,4.981,4.6605,0.0,0.0,0.0,0.0,0.0,0.0,0.0,0.0,0.0,0.0,0.0,0.0,0.0,0.0,0.0,0.0,0.0,0.0,0.0,0.0,0.0,0.0,6.499,6.9877,7.0647,7.5282,7.9577,8.232,8.4638,8.6559,8.8041,8.726,8.7262,8.859,8.8705,8.925,9.049,9.1037,9.1476,9.1836,9.2344,9.2617,9.2617,9.2617,9.2617,9.2617,9.2611,9.2606,9.2606,9.259,9.2613,0.0,9.258,9.2619,9.2522,9.1663,9.0999,0.0,0.0,0.0,0.0,0.0,8.6549,8.6783,8.6269,8.5785,8.5192,8.4325,8.3098,8.1841,8.1129,8.0534,7.9939,7.8896,7.865,7.8333,7.6985,7.6722,7.662,7.5887,7.5424,7.5156,7.5187,7.5064,7.4698,7.3858,0.0,0.0,7.1718,7.0228,6.8852,6.7782,6.7477,6.7133,0.0,6.6636,6.6483,6.5467,6.5352,6.5161,6.4672,6.2971,0.0,0.0,0.0,5.6425,5.5513,5.4182,0.0,0.0,0.0,0.0,0.0,0.0,0.0,0.0,4.402,4.3474,0.0,0.0,0.0,0.0,0.0,0.0,0.0,0.0,0.0,0.0,0.0,0.0,0.0,0.0,0.0,0.0,6.9994,7.5309,7.9409,8.1504,8.3169,8.4726,8.6438,8.75,8.75,8.7578,8.7929,8.8633,8.8867,8.9687,9.1211,0.0,0.0,0.0,0.0,9.2616,9.2616,9.2617,9.2617,9.2617,9.2595,9.2606,9.26,9.259,9.259,9.26,9.26,9.26,9.2522,9.1741,9.1311,9.0999,8.9359,8.7642,8.6002,8.5221,8.5371,0.0,0.0,0.0,0.0,8.4883,8.4054,8.304,8.1488,8.1059,8.0791,7.9576,7.9251,7.8961,7.761,7.7169,7.6847,7.5872,7.4966,7.4354,7.4354,7.4278,7.401,7.3399,7.3705,7.3819,7.3093,7.0954,6.8585,6.6292,6.6445,0.0,6.4802,6.5116,6.5467,6.529,0.0,0.0,6.5047,6.3638,6.2693,6.2579,5.9551,5.6375,5.3338,5.2617,5.2237,5.2161,5.2047,5.2665,5.3973,5.3897,5.4254,5.485,4.7671,4.629,0.0,0.0,0.0,0.0,0.0,0.0,0.0,0.0,0.0,0.0,0.0,0.0,0.0,0.0,0.0,6.8538,7.398,7.8515,8.1406,8.3319,8.4529,8.4842,8.6445,8.75,8.75,8.8086,8.8515,8.8672,9.0,9.0937,9.1289,9.1953,0.0,9.2578,9.2603,9.258,9.258,9.2599,9.2609,9.2609,0.0,0.0,9.26,9.2606,9.2606,9.26,9.2522,9.2522,9.2522,9.2326,9.1467,9.014,8.9125,8.7642,8.608,8.591,8.5512,8.5036,8.5058,8.4561,8.3878,8.3722,8.3075,8.2323,8.196,8.1882,0.0,8.047,8.0144,7.9854,7.8507,7.763,7.6963,7.6599,7.5844,7.5233,7.5233,7.4698,7.4354,7.4889,7.4049,7.3136,7.2876,7.1345,6.9999,6.9502,6.8368,6.7463,6.712,6.6559,6.5917,6.5199,6.4552,6.4171,6.4171,6.3802,6.3275,6.2553,6.0557,5.8856,5.7567,5.7984,5.7946,5.7301,5.6581,5.6019,5.5716,5.4996,5.5259,5.6246,5.3736,5.2582,0.0,0.0,0.0,0.0,0.0,0.0,0.0,0.0,0.0,0.0,0.0,5.4281,5.9483,0.0,6.7457,7.3042,7.6835,7.9999,8.2604,8.4089,8.5071,8.5507,8.6719,8.75,8.75,8.8237,8.8892,8.9322,9.0578,9.1481,9.191,9.2379,9.2613,9.2613,9.2599,9.2619,9.26,9.2619,9.2585,9.2585,9.2585,9.2619,9.26,9.2561,9.2561,9.2561,9.2522,9.2482,9.2482,9.2514,9.1484,8.9914,8.9485,8.801,8.6066,8.5613,8.5175,8.4776,8.4611,8.4325,8.3948,8.3375,8.2985,8.261,8.2046,8.1913,8.1748,8.0865,8.0653,8.0357,7.916,7.853,7.8075,7.7485,7.6379,7.5386,7.4927,7.4129,7.3521,7.3521,7.3486,7.3451,7.3341,7.2691,7.1735,7.0438,6.915,6.8316,6.8316,6.7559,6.6688,6.5779,6.5361,6.4909,6.4457,6.4385,6.382,6.253,6.1624,6.0605,5.9355,5.9696,5.9885,5.9885,5.9468,5.9279,5.9317,5.8627,5.8608,5.9103,5.8615,5.7627,0.0,0.0,0.0,0.0,0.0,0.0,0.0,0.0,5.1079,5.4489,5.6714,5.9639,6.4834,6.7929,7.1442,7.6795,7.8944,8.0854,8.3476,8.448,8.5278,8.6325,8.7069,8.7499,8.7499,8.8221,8.8976,8.9672,9.0555,9.1423,9.2287,9.2365,9.2443,9.2599,9.2599,9.2585,9.26,9.26,9.2561,9.2561,9.2561,9.2561,9.2561,9.2522,9.2482,9.2482,9.2522,9.2514,9.2468,9.2139,9.1262,9.0111,8.9603,8.8248,8.6463,8.5429,8.4785,8.4401,8.4132,8.4037,8.3914,8.298,8.2784,8.2737,8.1873,8.164,8.1519,8.1051,8.09,8.069,7.9738,7.9398,7.9092,7.8368,7.6917,7.5504,7.4781,7.3677,7.2615,7.2119,7.2808,7.3458,7.361,7.3763,7.3193,7.1139,6.9997,6.9389,6.9389,6.8441,6.7531,6.6815,6.6587,6.621,6.5457,6.5078,6.4396,6.3183,6.2993,6.2273,6.0909,6.0871,6.1174,6.1818,6.1667,6.1898,6.2511,6.1958,6.1614,6.1416,6.1723,6.0987,4.7923,4.5441,4.5714,4.8646,4.9466,5.1574,0.0,0.0,5.9949,6.3437,6.6093,6.8515,7.0742,7.327,7.6008,7.8942,8.0215,8.1784,8.4398,8.4848,8.5495,8.7063,8.7362,8.7411,8.7411,8.8189,8.8724,8.8852,8.9639,9.0537,9.1396,9.1435,9.1787,9.2567,9.2606,9.2606,9.26,9.2522,9.2522,9.2522,9.2522,9.2522,9.2522,9.2482,9.2482,9.2482,9.2507,9.2481,9.2383,9.0823,9.054,9.0813,8.849,8.7894,8.8128,8.649,8.4741,8.3204,8.3173,8.2492,8.1678,8.1514,8.1538,8.1499,8.1359,8.1359,8.1285,8.0992,8.09,8.0805,8.0391,7.9782,7.9208,7.8865,7.7608,7.6425,7.6199,7.4334,7.2887,7.3533,7.2583,7.1899,7.2548,7.3308,7.3726,7.3497,7.2091,7.1028,7.1028,6.9512,6.845,6.8374,6.7693,6.72,6.7125,6.576,6.5116,6.5646,6.504,6.4547,6.4358,6.4358,6.4396,6.4471,6.3713,6.3158,6.2821,6.2069,6.1494,6.1076,6.1392,6.0995,5.2182,5.1258,5.2316,5.4736,5.6465,5.8811,6.3451,6.4353,6.5026,6.7968,7.023,7.2209,7.3967,7.5955,7.7859,0.0,8.0861,8.2467,8.4536,8.4447,8.4597,8.5768,8.5897,8.6293,8.7308,8.8206,8.8708,8.8696,8.9516,9.0374,9.1233,9.1311,9.1663,9.2522,9.2522,9.2522,9.2522,9.2522,9.2482,9.2482,9.2514,9.2507,9.2507,9.249,9.249,9.2481,9.1964,9.171,9.1649,9.0908,9.0234,8.9547,8.8811,8.8117,8.7456,8.6755,8.5616,8.434,8.3565,8.2728,8.1891,8.1253,8.1154,8.1234,8.1098,8.1041,8.0962,8.0681,8.054,8.0467,8.0314,8.0048,7.9819,7.9702,7.8788,7.7646,7.6617,7.5171,7.3726,7.2623,7.2168,7.1902,7.1712,7.2433,7.3154,7.3648,7.3116,7.2471,7.2016,7.0839,6.9664,6.8716,6.7883,6.739,6.739,6.6746,6.6291,6.6101,6.5798,6.5381,6.4926,6.4888,6.4888,6.4888,6.4293,6.384,6.3646,6.273,6.2188,6.1993,6.223,6.1914,5.4298,5.5248,5.7516,5.9937,6.2482,6.5065,6.7526,6.8385,6.933,7.1639,7.3143,7.4402,7.5657,7.7469,7.8957,7.96,8.1161,8.2801,8.4245,8.3738,8.3465,8.405,8.3894,8.4323,8.5846,8.7212,8.8071,8.8305,8.893,8.9789,9.0882,9.0921,9.1428,9.2482,9.2482,9.2482,9.2514,9.2514,9.2514,9.2507,9.249,9.2481,9.2481,9.25,9.249,9.244,9.1816,9.1481,9.1418,9.095,9.0092,8.9084,8.8789,8.801,8.6993,8.6654,8.601,8.5149,8.4164,8.3156,8.2117,8.1349,8.1029,8.0893,8.074,8.0677,8.0611,8.0392,8.0275,8.0195,8.0154,8.0195,8.0195,8.0113,7.9467,7.8481,7.6996,7.5776,7.437,7.232,7.1977,7.1824,7.1218,7.1597,7.2241,7.281,7.3113,7.3075,7.2469,7.1445,7.0384,6.9399,6.8337,6.7731,6.7731,6.7542,6.7011,6.6177,6.6101,6.576,6.4926,6.4888,6.4853,6.4707,6.4367,6.405,6.3718,6.3036,6.2654,6.2704,6.2855,6.2738,5.2784,5.5257,5.8858,6.3071,6.611,6.916,7.3359,7.3672,7.3592,7.5394,7.5774,7.5852,7.5891,7.796,7.9678,7.9717,8.1161,8.2606,8.3426,8.284,8.2332,8.2371,8.163,8.1474,0.0,8.4714,8.6549,8.7368,8.7446,8.8227,8.9945,9.0023,9.0804,9.2443,9.2482,9.2514,9.249,9.249,9.2481,9.249,9.249,9.249,9.249,9.249,9.2479,9.2405,9.2366,9.2341,9.2235,9.0521,9.0158,9.0382,8.7836,8.7204,8.7511,8.6274,8.5368,8.4703,8.467,8.3323,8.1613,8.1613,8.0963,8.0235,8.0235,8.0235,8.0235,8.0195,8.0195,8.0195,8.0034,8.0113,8.0154,7.9984,7.9339,7.8508,7.759,7.6069,7.4629,7.372,7.2241,7.1142,7.1104,7.1104,7.1142,7.118,7.19,7.2431,7.2393,7.0953,7.0195,7.0953,6.955,6.8565,6.8565,6.7845,6.7011,6.6177,6.6101,6.576,6.4926,6.4888,6.467,6.4249,6.4209,6.3631,6.2544,6.2493,6.2566,6.2673,6.2709,6.3141,5.7203,6.076,6.4636,6.7771,7.0505,7.2968,7.4985,7.523,7.5038,7.5024,7.4579,7.3978,7.3432,7.4486,7.5813,7.6945,7.9561,8.1903,8.3308,8.3269,8.2482,8.0797,8.0797,0.0,0.0,0.0,0.0,8.6392,8.6535,8.7269,8.8986,8.9641,9.0452,9.1583,9.2208,9.251,9.251,9.251,9.2227,9.1632,9.1571,9.1859,9.2432,9.1847,9.1873,9.2288,9.0574,9.0049,9.0361,8.9683,8.8723,8.7707,8.7726,8.7154,8.6214,8.5628,8.5242,8.4938,8.4365,8.3368,8.2215,8.1644,8.0883,8.0195,8.0195,8.0154,8.0034,8.0034,7.9613,7.9153,7.9111,7.8694,7.8314,7.823,7.8045,7.7628,7.6714,7.6107,7.5274,7.3871,7.3151,7.2583,7.2052,7.1483,7.0915,7.0384,7.1483,7.2166,7.1597,7.1029,7.0574,7.0308,6.9778,6.9437,6.9437,6.8679,6.8072,6.7769,6.7276,6.6859,6.6556,6.6556,6.6069,6.4998,6.5067,6.452,6.3335,6.3348,6.3444,6.3477,6.3418,6.3502,6.1787,6.542,6.8939,7.1836,7.3826,7.5301,7.617,7.6111,7.5655,7.4787,7.3174,7.1641,7.0777,7.0582,7.1519,7.4447,7.7296,8.0068,8.2677,8.2755,8.1851,7.9916,7.9565,7.9518,0.0,0.0,0.0,8.5785,8.6042,8.6814,8.8501,8.9418,9.0306,9.1164,9.2061,9.249,9.2479,9.2167,9.1571,9.0702,9.0638,9.0937,9.1456,9.0911,9.0867,9.1153,8.948,8.8906,8.9096,8.8699,8.7704,8.6492,8.7072,8.6546,8.5398,8.5186,8.5094,8.5062,8.4572,8.3578,8.2551,8.198,8.1026,8.0072,8.0072,8.003,7.9988,7.9988,7.9296,7.8609,7.8609,7.8002,7.7472,7.7775,7.7813,7.7699,7.7131,7.679,7.6145,7.4781,7.4023,7.3454,7.2924,7.2355,7.1597,7.0498,7.1483,7.209,7.1218,7.0839,7.0574,7.0346,7.0308,7.0195,6.9929,6.9664,6.9247,6.8641,6.811,6.7693,6.739,6.7165,6.6551,6.549,6.5297,6.4736,6.3693,6.3761,6.3956,6.4183,6.4061,6.4143,6.6328,6.9101,7.1836,7.5156,7.6001,7.6203,7.6945,7.6477,7.554,7.4525,7.1519,6.8791,0.0,0.0,6.7146,7.226,7.4681,7.7407,8.1602,8.1524,8.0696,0.0,0.0,0.0,0.0,0.0,0.0,8.5624,0.0,8.6639,8.8433,8.9369,9.0228,9.1075,9.1983,9.2429,9.2405,9.1508,9.0626,8.982,8.9742,8.9728,8.9767,8.9728,8.9502,8.915,8.9072,8.8843,8.8429,8.7619,8.705,8.6736,8.5932,8.5474,8.5138,8.5013,8.493,8.493,8.51,8.3992,8.2499,8.2499,8.1312,7.9898,7.9898,7.9898,7.9898,7.9898,7.9253,7.8609,7.8533,7.7927,7.751,7.823,7.8419,7.8419,7.8419,7.7813,7.7017,7.6221,7.4743,7.3644,7.3606,7.3606,7.3037,7.1408,7.1824,7.2014,7.1142,7.0346,7.0195,7.0953,7.1029,7.0725,7.0005,7.0649,7.0422,6.883,6.8716,6.8338,6.7505,6.6845,6.6254,6.5631,6.4998,6.4359,6.3764,6.38,6.4072,6.4662,6.4662,6.509,7.1172,7.4062,7.5741,7.6661,7.7307,7.7492,7.6399,7.5501,7.4134,7.1324,6.7464,6.4184,0.0,0.0,0.0,6.9667,7.4492,0.0,8.1772,8.2552,0.0,7.9871,0.0,8.0708,8.0491,8.0881,0.0,0.0,8.4802,8.5125,8.7504,8.8416,8.9261,9.0119,9.1015,9.1756,9.2405,9.0885,9.0028,8.9781,8.9099,8.8979,8.9353,8.8628,8.8491,8.8682,8.7445,8.7048,8.7299,8.7,8.6317,8.5528,8.5861,8.5538,8.4916,8.4188,8.3961,8.3961,8.4006,8.3323,8.2406,8.2406,8.1306,7.9898,7.9898,7.9898,7.9898,7.9898,7.9253,7.8457,7.7851,7.7055,7.6335,7.5956,7.5842,7.5842,7.5842,7.569,7.5463,7.5274,7.4857,7.4364,7.372,7.3606,7.3265,7.2203,7.1673,7.1104,7.0308,7.0005,6.9967,7.0157,7.0195,7.0346,7.0763,7.0991,7.0915,7.0498,7.0304,6.9728,6.857,6.8152,6.7295,6.584,6.6116,6.5641,6.4516,6.5037,6.5367,6.5482,6.5482,6.559,7.515,7.7527,7.8777,7.8371,7.8362,7.7648,7.4798,7.3197,7.0894,6.5897,6.1759,5.8509,5.6692,5.7772,6.073,0.0,0.0,0.0,8.1587,8.2601,8.2669,0.0,8.1972,0.0,8.2494,8.2611,8.3585,0.0,8.4728,8.4935,8.7118,8.804,8.8728,8.9196,9.0053,9.0531,9.0492,8.9908,8.9155,8.8186,8.7696,8.7569,8.7836,8.7294,8.7138,8.7209,0.0,8.5928,8.6042,8.596,8.5562,8.4992,8.5393,8.5318,8.4787,8.3915,8.3574,8.3536,8.3195,8.2513,8.1869,8.2285,8.1262,7.9898,7.9898,7.9898,7.9898,7.9898,7.9253,7.8495,7.804,7.732,7.6562,7.6107,7.5994,7.5994,7.5994,7.569,7.5311,7.497,7.4895,7.4743,7.425,7.4174,7.3909,7.3037,7.2427,7.1741,7.0949,7.0308,6.9853,6.9738,7.0079,7.0304,7.0259,7.0599,7.0637,7.0297,7.0135,6.966,6.878,6.832,6.751,6.6352,6.6329,6.5981,6.5216,6.5653,6.5804,6.5804,6.5804,6.5804,7.8401,7.9945,8.0777,7.9903,7.9031,7.7218,7.269,7.0113,6.6756,5.9841,5.5699,5.283,5.1156,5.2598,5.6251,6.3025,0.0,7.514,8.1076,8.1972,8.2596,8.4169,8.3234,8.3026,8.4546,8.4078,8.4338,8.5818,8.5103,8.535,8.7078,8.7766,8.818,8.8344,8.9201,8.9134,8.8007,8.8744,8.8103,8.6163,8.6163,8.6105,8.6023,8.6023,8.5762,8.5398,0.0,0.0,8.4901,8.4901,8.4901,8.4901,8.4901,8.4901,8.4787,8.3915,8.3536,8.3347,8.2627,8.1755,8.1073,8.1944,8.1148,7.9898,7.9898,7.9898,7.9898,7.9898,7.9367,7.8761,7.8647,7.8078,7.751,7.7282,7.7244,7.7207,7.7093,7.6486,7.5728,7.5046,7.4854,7.4854,7.4854,7.4812,7.4547,7.379,7.3435,7.2967,7.2213,7.0869,6.9888,6.9652,7.0177,7.0244,6.9434,6.9992,7.0104,6.9391,6.931,6.8975,6.8416,6.7715,6.712,6.6722,6.611,6.5804,6.5804,6.5804,6.5804,6.5804,6.5804,6.5804,8.0771,8.1317,8.081,7.9918,7.9059,7.6906,7.1167,6.7375,0.0,5.6285,5.2138,4.9574,4.9145,5.2163,5.6926,6.3563,6.9273,7.4716,8.002,8.0932,8.1416,0.0,8.3453,8.4186,8.4498,8.501,0.0,0.0,0.0,8.502,8.7028,8.6415,8.6553,8.7655,8.8507,8.8493,8.7456,8.761,8.7157,8.6143,8.5992,8.5796,8.5587,8.5475,8.5273,8.4999,0.0,0.0,8.4901,8.4901,8.4901,8.4901,8.4901,8.4901,8.4787,8.3915,8.3157,8.2589,8.2437,8.1376,8.0239,8.1073,8.0656,7.9898,7.9898,7.9898,7.9898,7.9898,7.9784,7.9519,7.8798,7.8495,7.804,7.6638,7.6335,7.6145,7.5501,7.5198,7.5084,7.4932,7.4691,7.4563,7.4563,7.435,7.4177,7.4026,7.3425,7.2891,7.2741,7.1319,7.0267,7.0223,6.9815,6.966,7.0142,7.033,7.033,7.0217,6.9686,6.8827,6.7752,6.7045,6.6476,6.6021,6.5832,6.5804,6.5804,6.5804,6.5804,6.5804,6.5804,6.5804,8.0933,8.1669,8.1474,8.0576,7.9053,7.5696,6.7844,0.0,0.0,4.9646,4.6157,4.462,4.4416,4.827,5.3088,5.7949,6.3573,6.9401,7.5449,7.6711,7.8282,8.1775,8.3426,8.4337,0.0,8.5536,0.0,0.0,0.0,8.4428,8.6027,8.5933,8.6094,8.6674,8.7562,8.7472,8.644,8.6863,8.6569,8.5513,8.5475,8.5357,8.5186,8.5138,8.5044,8.4901,8.4901,0.0,8.4863,8.4408,8.4218,8.4181,8.3764,8.3612,8.3498,8.2627,8.2058,8.1641,8.109,8.0364,7.9713,7.9999,8.0023,7.9898,7.9898,7.9898,7.9898,7.9898,7.9898,7.9784,7.9405,7.9291,7.8793,7.7003,7.5815,7.4972,7.4551,7.4476,7.4476,7.4476,7.435,7.4305,7.4305,7.4168,7.4122,7.4122,7.3644,7.3372,7.3372,7.2144,7.1247,7.0892,7.0151,6.9769,7.0004,6.9668,6.9444,6.9444,6.889,6.8157,6.7323,6.6794,6.6269,6.5804,6.5804,6.5804,6.5804,6.5804,6.5804,6.5804,6.5804,6.5804,8.0465,8.163,8.2059,8.1005,7.8741,7.4369,6.4872,5.9709,5.4105,4.4012,4.1077,4.0325,4.0444,4.4276,4.8651,0.0,5.7698,6.3724,7.0776,7.2723,7.5517,8.1076,8.2818,0.0,8.4425,8.5302,0.0,0.0,0.0,0.0,8.4429,8.5428,8.5851,8.5549,8.6357,8.6342,8.5475,8.6126,8.5966,8.4961,8.4961,8.4954,8.4901,8.4901,8.4825,8.4635,8.4635,0.0,0.0,8.3612,8.3347,8.3271,8.2627,8.2399,8.2323,8.1559,8.1135,8.0908,7.9953,7.9557,7.9406,7.9165,7.9406,7.9728,7.9728,7.9728,7.9728,7.9728,7.9728,7.9728,7.9728,7.9728,7.9305,7.7568,7.5727,7.4385,7.4385,7.4235,7.4122,7.4122,7.4076,7.4029,7.4029,7.3981,7.3934,7.3934,7.3826,7.3715,7.3715,7.3006,7.2285,7.1813,7.0843,7.0198,6.9992,6.9397,6.8977,6.884,6.8299,6.7726,6.7222,6.6668,6.6207,6.5804,6.5804,6.5804,6.5804,6.5804,6.5804,6.5804,6.5804,6.5804,8.0302,8.163,8.1903,8.0224,7.7843,7.3432,6.3974,5.7843,5.1671,4.2852,3.9597,3.8774,4.0076,4.2672,0.0,0.0,0.0,6.0992,6.851,7.1787,7.5015,7.9428,0.0,0.0,8.3471,8.3593,0.0,0.0,0.0,0.0,0.0,8.4288,8.509,8.4039,8.4758,8.5132,8.4954,8.503,8.5068,8.4901,8.4901,8.4901,8.4901,8.4901,8.4484,8.3726,0.0,0.0,0.0,8.2513,8.2513,8.2475,8.2437,8.2399,8.2361,8.2057,8.1434,8.067,8.0354,7.9767,7.9165,7.9116,7.9165,7.9165,7.9165,7.9165,7.9165,7.9165,7.9165,7.9165,7.9165,7.9165,7.8902,7.7952,7.6488,7.5286,7.5286,7.4685,7.4122,7.4122,7.3971,7.3864,7.3864,7.3628,7.3476,7.3476,7.3424,7.3424,7.3424,7.3387,7.3261,7.3201,7.1788,7.0809,7.0809,7.0735,7.0509,7.0052,6.8972,6.8153,6.7583,6.6442,6.5867,6.5804,6.5804,6.5804,6.5804,6.5804,6.5804,6.5804,6.5804,6.5804,7.8468,8.0804,8.1844,8.0126,7.6965,7.1753,6.2188,5.5559,4.9109,4.082,3.7668,3.6892,3.8397,3.9928,4.2392,0.0,0.0,0.0,6.039,6.3236,6.7164,7.4427,7.7399,0.0,0.0,0.0,0.0,0.0,0.0,0.0,0.0,8.2555,8.3416,8.2981,8.3285,8.3392,8.3385,8.3385,8.3385,8.3385,8.3385,8.3385,8.3385,8.3385,8.3195,8.2854,0.0,0.0,0.0,8.1657,8.1376,8.1301,8.067,8.0434,8.0386,8.029,8.0015,7.9666,7.9416,7.9126,7.8864,7.8655,7.8602,7.8708,7.9016,7.9116,7.9116,7.9116,7.9116,7.9116,7.9116,7.8641,7.8041,7.7704,7.663,7.5506,7.5021,7.4648,7.4238,7.3753,7.3628,7.3564,7.3564,7.3476,7.3372,7.3372,7.3372,7.3372,7.3372,7.3372,7.3372,7.3372,7.2369,7.1663,7.1663,7.0924,7.0381,7.0219,6.9253,6.8536,6.8352,6.7597,6.716,6.716,6.716,6.716,6.716,6.716,6.716,6.716,6.716,6.716,7.6659,7.969,8.1047,7.937,7.5443,6.9626,6.0544,5.3552,4.6872,3.9422,3.6481,3.5643,3.6957,3.7852,3.945,0.0,0.0,4.8099,5.4903,5.787,6.2122,6.9626,0.0,0.0,0.0,0.0,0.0,0.0,0.0,0.0,0.0,8.0997,8.1755,8.1982,8.2248,8.2399,8.2399,8.2399,8.2399,8.2399,8.2399,8.2399,8.2399,8.2399,8.2203,8.1892,0.0,0.0,0.0,8.0547,8.0235,8.015,7.9391,7.9116,7.9116,7.9016,7.9016,7.8966,7.8655,7.8602,7.8549,7.8332,7.8276,7.8386,7.876,7.8864,7.8864,7.8864,7.8864,7.8864,7.8864,7.826,7.7744,7.7744,7.6766,7.5639,7.5081,7.4561,7.4078,7.3484,7.3372,7.3372,7.3372,7.3372,7.3372,7.3372,7.3372,7.3372,7.3372,7.3372,7.3372,7.3372,7.2889,7.2518,7.2518,7.1558,7.0864,7.0697,6.9721,6.9057,6.893,6.8392,6.8088,6.8088,6.8088,6.8088,6.8088,6.8088,6.8088,6.8088,6.8088,6.8088,7.5248,7.833,7.9227,7.755,7.3095,6.7097,5.9266,5.1967,4.5125,3.9045,3.6375,3.5341,3.6179,3.6958,3.8343,4.0821,4.4687,0.0,5.42,5.8483,6.2349,0.0,0.0,7.1294,0.0,0.0,0.0,0.0,0.0,0.0,0.0,7.9898,8.0277,8.1073,8.1944,8.2399,8.2399,8.2399,8.2399,8.2399,8.2399,8.2399,8.2399,8.2399,8.1771,0.0,0.0,0.0,0.0,7.9116,7.9116,7.9116,7.9116,7.9116,7.9066,7.8812,7.8708,7.8655,7.8386,7.8276,7.8276,7.8276,7.8276,7.8276,7.8276,7.8276,7.8276,7.8276,7.8276,7.8276,7.8276,7.8276,7.8276,7.8276,7.7013,7.5787,7.5787,7.4524,7.341,7.3372,7.3372,7.3372,7.3372,7.3372,7.3372,7.3372,7.3372,7.3372,7.3372,7.3372,7.3372,7.3372,7.3372,7.3372,7.3372,7.2963,7.248,7.1938,7.0724,6.9757,6.9301,6.8516,6.8088,6.8088,6.8088,6.8088,6.8088,6.8088,6.8088,6.8088,6.8088,6.8088,6.5465,6.8358,6.994,6.7735,6.4454,6.0189,5.4078,4.8728,4.359,3.8631,3.6234,3.5305,3.6084,3.6919,3.8795,4.3057,4.5331,0.0,0.0,0.0,0.0,6.3941,7.061,7.5939,0.0,0.0,0.0,0.0,0.0,0.0,0.0,7.9406,7.9613,8.0277,8.0542,8.0567,8.0431,8.0431,8.0339,8.0112,8.0112,8.0112,8.0112,8.0112,0.0,0.0,0.0,0.0,0.0,7.8915,7.8812,7.8812,7.8655,7.8549,7.8549,7.8441,7.8441,7.8386,7.8332,7.8276,7.8276,7.8276,7.8276,7.8276,7.8276,7.8276,7.8276,7.8276,7.8276,7.8276,7.8276,7.8276,7.8276,7.8276,7.7868,7.7199,7.6047,7.5378,7.471,7.3595,7.3372,7.3372,7.3372,7.3372,7.3372,7.3372,7.3372,7.3372,7.3372,7.3372,7.3372,7.3372,7.3108,7.2908,7.2908,7.248,7.1915,7.1422,7.0728,7.0324,7.0122,6.9872,6.9729,6.9729,6.9729,6.9729,6.9729,6.9729,6.9729,6.9729,6.9729,6.9729,5.9115,6.223,6.3817,6.1982,5.8906,5.5229,5.0991,4.6186,4.1648,3.8175,3.6141,3.5135,3.5628,3.6386,3.8167,4.1958,4.4345,0.0,0.0,0.0,0.0,6.3652,0.0,0.0,0.0,0.0,0.0,0.0,0.0,0.0,0.0,0.0,7.9263,7.9592,7.9592,7.95,7.9359,7.9359,7.9263,7.9116,7.9116,7.9116,7.9116,7.9116,0.0,0.0,0.0,0.0,0.0,7.8602,7.8549,7.8549,7.8332,7.8276,7.8276,7.8276,7.8276,7.8276,7.8276,7.8276,7.8276,7.8276,7.8276,7.8276,7.8276,7.8276,7.8276,7.8276,7.8276,7.8276,7.8276,7.8276,7.8276,7.8276,7.8053,7.7459,7.6084,7.5564,7.4933,7.3632,7.3372,7.3372,7.3372,7.3372,7.3372,7.3372,7.3372,7.3372,7.3372,7.3372,7.332,7.3162,7.2853,7.2573,7.2189,7.1794,7.1485,7.1204,7.075,7.0514,7.0514,7.0514,7.0514,7.0514,7.0514,7.0514,7.0514,7.0514,7.0514,7.0514,7.0514,7.0514,0.0,5.8428,5.9648,5.872,5.5345,5.1585,4.9124,4.4075,0.0,3.7637,3.6007,3.4946,3.5059,3.5722,3.6917,3.8812,4.2503,0.0,0.0,5.295,0.0,0.0,0.0,0.0,0.0,0.0,0.0,0.0,0.0,0.0,0.0,0.0,7.8879,7.8879,7.8879,7.8916,7.9066,7.9066,7.9066,7.9066,7.9066,7.9066,7.9066,7.9066,0.0,0.0,0.0,0.0,0.0,7.8276,7.8276,7.8276,7.8276,7.8276,7.8276,7.8276,7.8276,7.8276,7.8276,7.8276,7.8276,7.8276,7.8276,7.8276,7.8276,7.8276,7.8276,7.8276,7.8276,7.8276,7.8276,7.8276,7.8276,7.8202,7.7608,7.6827,7.5899,7.5118,7.4338,7.3558,7.3372,7.3372,7.3372,7.3372,7.3372,7.3372,7.3372,7.3372,7.3372,7.3372,7.3215,7.2742,7.263,7.2189,7.1268,7.1204,7.1204,7.1139,7.075,7.0514,7.0514,7.0514,7.0514,7.0514,7.0514,7.0514,7.0514,7.0514,7.0514,7.0514,7.0514,7.0514,4.2871,0.0,4.8439,4.703,4.5778,4.4379,0.0,4.0511,3.8509,3.6701,3.5587,3.5304,3.6512,3.6885,3.8335,4.261,0.0,0.0,4.992,0.0,0.0,0.0,0.0,0.0,0.0,0.0,0.0,0.0,0.0,0.0,0.0,0.0,7.6595,7.6595,7.6595,7.7297,7.8812,7.8812,7.8708,7.8495,7.8495,7.8495,7.8495,7.8495,0.0,0.0,0.0,0.0,7.8276,7.8276,7.8276,7.8276,7.8276,7.8276,7.8276,7.8276,7.8276,7.8276,7.8276,7.8276,7.8276,7.8276,7.8276,7.8276,7.8276,7.8276,7.8276,7.8276,7.8276,7.8276,7.8276,7.8276,7.8128,7.7533,7.7236,7.6679,7.5193,7.471,7.4338,7.3558,7.3372,7.3372,7.3372,7.3372,7.3372,7.3372,7.3372,7.3372,7.3372,7.3108,7.2798,7.2686,7.2011,7.1458,7.1204,7.1204,7.1045,7.0682,7.0547,7.0514,7.0514,7.0514,7.0514,7.0514,7.0514,7.0514,7.0514,7.0514,7.0514,7.0514,7.0514,7.0514,3.813,4.0881,4.3605,4.2781,4.2199,4.1594,4.064,3.8899,3.7175,3.6104,3.5313,3.5124,3.6384,3.7205,0.0,0.0,4.55,0.0,0.0,0.0,0.0,0.0,0.0,0.0,0.0,0.0,0.0,0.0,0.0,0.0,0.0,0.0,7.5787,7.5787,7.5787,7.634,7.734,7.734,7.7287,7.7125,7.7125,7.7125,7.7125,7.7125,0.0,0.0,0.0,0.0,7.7125,7.7125,7.7125,7.7125,7.7125,7.7385,7.7719,7.7719,7.7979,7.8276,7.8276,7.8053,7.7682,7.7273,7.7125,7.7125,7.7125,7.7125,7.731,7.8053,7.8276,7.8276,7.8276,7.8276,7.809,7.7273,7.7087,7.6642,7.4933,7.4598,7.4338,7.3558,7.3372,7.3372,7.3372,7.3372,7.3372,7.3372,7.3372,7.3372,7.3372,7.2963,7.263,7.2365,7.1609,7.1074,7.0913,7.0847,7.0817,7.0514,7.0514,7.0514,7.0514,7.0514,7.0514,7.0514,7.0514,7.0514,7.0514,7.0514,7.0514,7.0514,7.0514,7.0514,3.7376,3.9739,4.2101,4.1859,4.1457,4.1056,4.0722,3.8411,3.6293,3.601,0.0,0.0,0.0,3.7802,0.0,0.0,0.0,0.0,0.0,0.0,0.0,0.0,0.0,0.0,0.0,0.0,0.0,0.0,0.0,0.0,0.0,0.0,0.0,7.5416,7.5416,7.5416,7.5416,7.5676,7.5787,7.5787,7.5787,7.5787,7.5787,7.5787,0.0,0.0,0.0,0.0,7.5787,7.5787,7.5787,7.5787,7.5787,7.6233,7.6902,7.6902,7.731,7.7905,7.7905,7.7459,7.6753,7.6047,7.5787,7.5787,7.5787,7.5787,7.6084,7.7496,7.8016,7.809,7.809,7.809,7.7905,7.7087,7.679,7.627,7.4747,7.4413,7.419,7.3521,7.3372,7.3372,7.3372,7.3372,7.3372,7.3372,7.3372,7.3372,7.332,7.2853,7.2365,7.1854,7.1359,7.0913,7.0478,7.041,7.041,7.041,7.041,7.0341,7.0341,7.0341,7.0376,7.041,7.0445,7.0514,7.0514,7.0514,7.0514,7.0514,7.0514,7.0514,3.7573,3.9564,4.0728,3.9415,4.0033,4.0575,3.9203,3.8418,3.7737,0.0,0.0,0.0,0.0,4.0578,4.2416,0.0,0.0,0.0,0.0,0.0,0.0,0.0,0.0,0.0,0.0,0.0,0.0,0.0,0.0,0.0,0.0,0.0,0.0,7.3744,7.3744,7.3744,7.3744,7.5118,7.5787,7.5787,7.5787,7.5787,7.5787,7.5787,7.5787,0.0,0.0,7.5787,7.5787,7.5787,7.5787,7.5787,7.5787,7.5861,7.5973,7.5973,7.6084,7.6159,7.6159,7.6084,7.5973,7.5824,7.5787,7.5787,7.5787,7.5787,7.5824,7.6084,7.6716,7.7273,7.7273,7.7273,7.705,7.6196,7.5453,7.471,7.3781,7.3558,7.3521,7.341,7.3372,7.3372,7.3372,7.3372,7.3372,7.3372,7.3372,7.3268,7.2853,7.2365,7.1854,7.1395,7.0913,7.0547,7.0514,7.0202,6.9991,6.9991,6.9991,6.9813,6.9525,6.967,6.9813,6.9991,7.0132,7.0341,7.0514,7.0514,7.0514,7.0514,7.0514,7.0514,3.5881,3.7778,3.9414,3.959,4.1229,4.2344,4.0666,3.9877,3.9212,0.0,0.0,0.0,0.0,0.0,4.7024,5.3386,0.0,0.0,0.0,0.0,0.0,0.0,0.0,0.0,0.0,0.0,0.0,0.0,0.0,0.0,0.0,0.0,0.0,0.0,7.3372,7.3372,7.3372,7.4115,7.4487,7.4487,7.4487,7.4487,7.4487,7.4487,7.4487,7.4487,0.0,7.4487,7.4487,7.4487,7.4487,7.4487,7.4487,7.4747,7.5193,7.5639,7.5787,7.5713,7.5304,7.5156,7.5081,7.4635,7.4487,7.4487,7.4487,7.4487,7.4487,7.4487,7.5416,7.6382,7.6382,7.6382,7.6196,7.5341,7.4858,7.4375,7.3558,7.3372,7.3372,7.3372,7.3372,7.3372,7.3372,7.3372,7.3372,7.3372,7.3215,7.2908,7.2742,7.1975,7.1422,7.1204,7.0781,7.0514,7.0514,7.0202,6.9885,6.9598,6.9598,6.9525,6.9305,6.9379,6.9452,6.9598,6.967,6.9813,6.9991,7.0132,7.0202,7.0341,7.0445,7.0514,3.5389,3.6945,3.8801,4.0429,4.2315,4.3643,4.3324,4.2408,4.1576,0.0,0.0,0.0,0.0,4.6513,0.0,0.0,0.0,0.0,0.0,0.0,0.0,0.0,0.0,0.0,0.0,0.0,0.0,0.0,0.0,0.0,0.0,0.0,0.0,0.0,7.2927,7.2815,7.2815,7.3001,7.3187,7.3372,7.3372,7.3372,7.3372,7.3372,7.3372,7.3372,7.3372,7.3372,7.3372,7.3372,7.3372,7.3372,7.3372,7.3781,7.4375,7.5007,7.523,7.5156,7.4524,7.4301,7.419,7.3595,7.3372,7.3372,7.3372,7.3372,7.3372,7.3372,7.4264,7.5267,7.5453,7.5527,7.5341,7.4747,7.445,7.4153,7.3521,7.3372,7.3372,7.3372,7.3372,7.3372,7.3372,7.3372,7.3372,7.3268,7.2908,7.263,7.2365,7.1707,7.1139,7.1009,7.0615,7.0272,7.0132,6.992,6.9598,6.9083,6.9008,6.9008,6.9008,6.9083,6.9083,6.9157,6.9231,6.9305,6.9525,6.967,6.9813,6.9991,7.0202,7.0272,3.8181,3.8924,3.9445,4.1118,4.1696,4.2901,4.6626,4.6158,0.0,4.7738,0.0,0.0,0.0,5.1231,0.0,0.0,0.0,0.0,0.0,0.0,0.0,0.0,0.0,0.0,0.0,0.0,0.0,0.0,0.0,0.0,0.0,0.0,0.0,0.0,0.0,7.1106,7.1106,7.1886,7.2629,7.3372,7.3372,7.3372,7.3372,7.3372,7.3372,7.3372,7.3372,7.3372,7.3372,7.3372,7.3372,7.3372,7.3372,7.341,7.3484,7.3521,7.3558,7.3558,7.3484,7.3484,7.3484,7.341,7.3372,7.3372,7.3372,7.3372,7.3372,7.3372,7.3484,7.3707,7.4487,7.4673,7.4673,7.4598,7.4004,7.3447,7.341,7.3372,7.3372,7.3372,7.3372,7.3372,7.3372,7.3372,7.3268,7.2798,7.2742,7.2365,7.1458,7.1268,7.1009,7.0615,7.0202,6.967,6.8932,6.8857,6.8628,6.8241,6.8162,6.8162,6.8162,6.8397,6.8551,6.8781,6.8932,6.9157,6.9305,6.9305,6.9379,6.9379,6.9598,6.9742,3.6593,3.7968,3.9602,4.1794,4.3534,0.0,0.0,4.885,5.0376,5.2308,5.2457,0.0,0.0,0.0,0.0,0.0,0.0,0.0,0.0,0.0,0.0,0.0,0.0,0.0,0.0,0.0,0.0,0.0,0.0,0.0,0.0,0.0,0.0,0.0,0.0,7.092,7.092,7.1255,7.1552,7.1849,7.2889,7.3372,7.3372,7.3372,7.3372,7.3372,7.3372,7.3372,7.3372,7.3372,7.3372,7.3372,7.3372,7.3372,7.3372,7.3372,7.3372,7.3372,7.3372,7.3372,7.3372,7.3372,7.3372,7.3372,7.3372,7.3372,7.3372,7.3372,7.3372,7.3447,7.3744,7.3818,7.3818,7.3818,7.3595,7.3372,7.3372,7.3372,7.3372,7.3372,7.3372,7.3372,7.3372,7.3162,7.2908,7.2742,7.2189,7.1646,7.1268,7.0979,7.0682,7.0514,7.0272,6.9813,6.9157,6.8932,6.8705,6.8319,6.8162,6.8083,6.8083,6.8162,6.8241,6.8319,6.8397,6.8551,6.8781,6.8857,6.9008,6.9157,6.9452,6.967,3.5925,3.7076,3.8859,4.1089,4.3875,0.0,4.8779,5.1602,5.4388,5.6543,5.632,5.606,5.6915,0.0,0.0,0.0,0.0,0.0,0.0,0.0,0.0,0.0,0.0,0.0,0.0,0.0,0.0,0.0,0.0,0.0,0.0,0.0,0.0,0.0,0.0,0.0,7.014,7.04,7.0549,7.0549,7.1961,7.2592,7.2592,7.2592,7.2592,7.2592,7.2592,7.2778,7.3001,7.3001,7.3149,7.3372,7.3372,7.3372,7.3372,7.3372,7.3372,7.3372,7.3372,7.3372,7.3372,7.3372,7.3372,7.3372,7.3372,7.3372,7.3372,7.3372,7.3372,7.3372,7.3372,7.3372,7.3372,7.3372,7.3372,7.3372,7.3372,7.3372,7.3372,7.3372,7.3372,7.332,7.3215,7.2908,7.263,7.2248,7.1646,7.1139,7.0979,7.0682,7.041,7.0132,6.9991,6.967,6.9008,6.8781,6.8628,6.8319,6.8162,6.8083,6.8083,6.8083,6.8083,6.8083,6.8083,6.8162,6.8319,6.8474,6.8551,6.8705,6.9083,6.9379,3.6891,3.6705,3.7113,3.8748,0.0,0.0,5.1528,5.4574,5.7286,6.0555,5.9255,5.7806,5.8586,0.0,0.0,0.0,0.0,0.0,0.0,0.0,0.0,0.0,0.0,0.0,0.0,0.0,0.0,0.0,0.0,0.0,0.0,0.0,0.0,0.0,0.0,0.0,6.8506,6.9323,6.9694,6.9732,7.0512,7.0883,7.092,7.092,7.092,7.092,7.092,7.1403,7.2184,7.2184,7.2629,7.3372,7.3372,7.3372,7.3372,7.3372,7.3372,7.3372,7.3372,7.3372,7.3372,7.3372,7.3372,7.3372,7.3372,7.3372,7.3372,7.3372,7.3372,7.3372,7.3372,7.3372,7.3372,7.3372,7.3372,7.3372,7.3372,7.3372,7.3372,7.3372,7.3372,7.3268,7.2798,7.2686,7.2365,7.1332,7.1204,7.1045,7.0547,7.0514,7.0202,6.9379,6.9305,6.9008,6.8162,6.8083,6.8083,6.8083,6.8083,6.8083,6.8083,6.8083,6.8083,6.8083,6.8083,6.8083,6.8083,6.8083,6.8083,6.8083,6.8319,6.8593,3.533,3.7485,0.0,4.2129,0.0,0.0,0.0,5.7918,0.0,0.0,6.2264,6.0853,6.0518,0.0,0.0,0.0,0.0,0.0,0.0,0.0,0.0,0.0,0.0,0.0,0.0,0.0,0.0,0.0,0.0,0.0,0.0,0.0,0.0,0.0,0.0,0.0,6.8259,6.8481,6.8592,6.8729,6.8952,6.9706,7.092,7.092,7.092,7.092,7.092,7.1069,7.1292,7.1292,7.1775,7.2555,7.2555,7.2889,7.3372,7.3372,7.3372,7.3372,7.3372,7.3372,7.3372,7.3372,7.3372,7.3372,7.3372,7.3372,7.3372,7.3372,7.3372,7.3372,7.3372,7.3372,7.3372,7.3372,7.3372,7.3372,7.3372,7.3372,7.3372,7.3372,7.3162,7.2853,7.2742,7.213,7.1583,7.1268,7.0913,7.0682,7.0514,7.0272,6.992,6.9525,6.9231,6.8857,6.8319,6.8319,6.8241,6.8083,6.8083,6.8083,6.8083,6.8083,6.7842,6.7325,6.7325,6.7049,6.6531,6.6531,6.6531,6.6531,6.6761,6.6989,3.6333,3.9045,0.0,4.4915,4.8816,5.346,5.8549,0.0,0.0,0.0,0.0,6.225,0.0,0.0,0.0,0.0,0.0,0.0,0.0,0.0,0.0,0.0,0.0,0.0,0.0,0.0,0.0,0.0,0.0,0.0,0.0,0.0,0.0,0.0,0.0,0.0,6.7691,6.7677,6.7677,6.7728,6.806,6.8777,6.9804,6.9905,6.9955,6.9992,7.0289,7.0437,7.0475,7.0772,7.1218,7.1663,7.1663,7.1961,7.2444,7.2778,7.2889,7.2964,7.3261,7.3372,7.3372,7.3372,7.3372,7.3372,7.3372,7.3372,7.3372,7.3372,7.3372,7.3372,7.3372,7.3372,7.3372,7.3372,7.3372,7.3372,7.3372,7.3372,7.3372,7.3372,7.3017,7.263,7.2422,7.1732,7.1139,7.0979,7.0682,7.0445,7.0272,7.0062,6.9742,6.9305,6.9008,6.8705,6.8319,6.8241,6.8241,6.8083,6.8083,6.8083,6.8083,6.7807,6.7428,6.7014,6.6704,6.6324,6.5876,6.5876,6.5876,6.5876,6.6028,6.6069,3.8599,4.0866,0.0,4.7107,5.0116,0.0,5.985,6.245,6.4002,6.5393,0.0,0.0,0.0,0.0,0.0,0.0,0.0,0.0,0.0,0.0,0.0,0.0,0.0,0.0,0.0,0.0,0.0,0.0,0.0,0.0,0.0,0.0,0.0,0.0,0.0,0.0,6.6926,6.6827,6.6777,0.0,6.7516,6.7885,6.7885,6.8284,6.8457,6.8494,6.9286,6.962,6.9657,7.04,7.0735,7.0809,7.0809,7.0846,7.1032,7.1775,7.2072,7.2184,7.2889,7.3149,7.3187,7.3261,7.3261,7.3298,7.3372,7.3372,7.3372,7.3372,7.3372,7.3372,7.3372,7.3372,7.3372,7.3372,7.3372,7.3372,7.3372,7.3372,7.332,7.332,7.2908,7.2422,7.1915,7.1422,7.0979,7.0547,7.0514,7.0341,6.9991,6.9885,6.9525,6.8781,6.8705,6.8474,6.8083,6.8083,6.8083,6.8083,6.8083,6.8049,6.8014,6.7359,6.6945,6.6876,6.6152,6.5738,6.5669,6.5669,6.5669,6.5593,6.5593,6.5328,3.6408,4.042,0.0,0.0,5.4388,5.9399,6.0722,6.2279,6.3539,6.3864,0.0,0.0,0.0,0.0,0.0,0.0,0.0,0.0,0.0,0.0,0.0,0.0,0.0,0.0,0.0,0.0,0.0,0.0,0.0,0.0,0.0,0.0,0.0,0.0,0.0,6.5814,6.5713,6.5662,6.5713,0.0,6.5999,6.6123,6.626,6.7566,6.8259,6.8358,6.8643,6.8766,6.8766,6.8951,6.9397,6.9992,6.9992,7.0363,7.0958,7.1106,7.118,7.1218,7.1403,7.1441,7.1552,7.2221,7.2444,7.2555,7.3187,7.3372,7.3372,7.3372,7.3372,7.3372,7.3372,7.3372,7.3372,7.3372,7.3372,7.3372,7.3372,7.3108,7.2853,7.2853,7.213,7.1521,7.1395,7.0979,7.0615,7.0514,7.0514,7.0341,6.9991,6.9598,6.9231,6.8781,6.8397,6.8162,6.8083,6.8083,6.8083,6.8083,6.8083,6.7842,6.7256,6.7083,6.6704,6.6152,6.5359,6.4669,6.4083,6.4083,6.3824,6.3333,6.3333,6.3023,3.7411,0.0,0.0,5.1862,0.0,6.1032,6.0537,6.1633,6.2734,0.0,0.0,0.0,0.0,0.0,0.0,0.0,0.0,0.0,0.0,0.0,0.0,0.0,0.0,0.0,0.0,0.0,0.0,0.0,0.0,0.0,0.0,0.0,0.0,0.0,6.5138,6.4867,6.4816,6.4765,6.4765,6.4816,6.522,6.5455,6.5543,6.6911,6.7566,6.7654,6.821,6.8408,6.8408,6.8457,6.8766,6.9137,6.9137,6.9397,6.9806,7.0215,7.0363,7.04,7.0772,7.092,7.0995,7.1441,7.1589,7.1663,7.2072,7.2184,7.2295,7.2704,7.2815,7.2889,7.3298,7.3372,7.3372,7.3372,7.3372,7.3372,7.3372,7.3017,7.2686,7.2686,7.1891,7.1204,7.1204,7.0781,7.041,7.0202,7.0202,6.9991,6.9379,6.9157,6.8857,6.8474,6.8241,6.8083,6.8083,6.8083,6.8083,6.8083,6.7773,6.7394,6.7014,6.629,6.5704,6.5324,6.4565,6.383,6.3083,6.3083,6.2779,6.2122,6.2122,6.1803,3.8339,0.0,4.8221,5.4461,5.8396,0.0,5.9856,6.0802,6.1698,0.0,0.0,0.0,0.0,0.0,0.0,0.0,0.0,0.0,0.0,0.0,0.0,0.0,0.0,0.0,0.0,0.0,0.0,0.0,0.0,0.0,0.0,0.0,6.5014,6.5014,6.4401,6.407,6.407,6.392,6.387,6.387,6.4567,6.4897,6.4897,6.5962,6.6505,6.6703,6.7555,6.7975,6.8087,6.8271,6.8394,6.8506,6.8506,6.8506,6.858,6.9249,6.9509,6.962,7.0252,7.0512,7.0512,7.066,7.0698,7.0735,7.0883,7.092,7.1069,7.1775,7.1961,7.2146,7.2964,7.3187,7.3224,7.3283,7.3268,7.3268,7.3268,7.2853,7.2422,7.2422,7.1707,7.1074,7.1074,7.075,7.0376,6.9991,6.992,6.9598,6.8857,6.86,6.8343,6.799,6.7807,6.7704,6.7704,6.7704,6.7704,6.7704,6.7152,6.6738,6.66,6.5359,6.4559,6.4346,6.3727,6.3158,6.2591,6.2513,6.2122,6.1513,6.1513,6.1185,3.4699,0.0,4.8744,0.0,5.6895,5.8968,0.0,0.0,6.0756,0.0,0.0,0.0,0.0,0.0,0.0,0.0,0.0,0.0,0.0,0.0,0.0,0.0,0.0,0.0,0.0,0.0,0.0,0.0,0.0,0.0,0.0,6.3135,6.3135,6.3135,6.3025,6.2989,6.2989,6.2989,6.2989,6.2989,6.3099,6.3135,6.3172,6.4067,6.489,6.5704,6.6063,6.6605,6.7235,6.7417,6.7874,6.8506,6.8506,6.8506,6.8506,6.8617,6.8654,6.8691,6.8803,6.884,6.8951,6.9657,6.988,6.9992,7.0698,7.092,7.0958,7.1069,7.1069,7.1292,7.2146,7.2332,7.2466,7.2706,7.2798,7.2798,7.2798,7.2071,7.1395,7.1395,7.0979,7.0615,7.0615,7.0582,7.041,7.0202,6.9991,6.967,6.9083,6.8299,6.7579,6.7195,6.6566,6.6186,6.6186,6.6186,6.6186,6.6186,6.6083,6.5704,6.5048,6.4807,6.4133,6.2915,6.2813,6.2668,6.2591,6.2043,6.1513,6.0886,6.0886,6.0463,3.7044,4.2823,4.8639,0.0,5.5554,5.7217,5.7892,0.0,0.0,0.0,0.0,0.0,0.0,0.0,0.0,0.0,0.0,0.0,0.0,0.0,0.0,0.0,0.0,0.0,0.0,0.0,0.0,0.0,0.0,0.0,6.2805,6.2805,6.2585,6.2144,6.2144,6.1924,6.1484,6.1887,6.2365,6.2805,6.2805,6.2805,6.2805,6.3209,6.3883,6.4742,6.5385,6.594,6.6322,6.6468,6.6786,6.7205,6.7651,6.7837,6.7874,6.8357,6.8506,6.8506,6.8506,6.8506,6.858,6.8914,6.9063,6.91,6.9472,6.9583,6.9657,7.0103,7.0064,7.0006,7.0909,7.0917,7.0772,7.0934,7.0756,7.0579,7.0579,7.0905,7.1139,7.0847,7.0615,7.0514,7.0514,7.0122,6.97,6.9388,6.8823,6.8257,6.764,6.7064,6.663,6.6436,6.6083,6.5876,6.5876,6.5876,6.5876,6.5876,6.5462,6.5048,6.4703,6.3954,6.3239,6.2591,6.2591,6.2279,6.148,6.1268,6.0802,6.012,6.012,5.9946,0.0,0.0,4.6128,5.0746,5.3256,5.4954,0.0,0.0,0.0,0.0,0.0,0.0,0.0,0.0,0.0,0.0,0.0,0.0,0.0,0.0,0.0,0.0,0.0,0.0,0.0,0.0,0.0,0.0,0.0,0.0,6.2218,6.2218,6.1924,6.13,6.13,6.1006,6.0419,6.1006,6.1594,6.2218,6.2218,6.2328,6.2511,6.2511,6.2952,6.3796,6.4572,6.5041,6.5324,6.552,6.5726,6.6118,6.676,6.7131,6.7391,6.7986,6.832,6.8506,6.8506,6.8506,6.8506,6.8506,6.8506,6.8457,6.8321,6.8321,6.842,6.8874,6.8815,6.8696,6.9577,6.9538,6.9325,6.9391,6.9165,6.8894,6.8769,6.9605,7.0303,6.9939,6.9907,6.9907,6.9907,6.934,6.8745,6.8363,6.7588,6.6952,6.6442,6.5971,6.5717,6.5566,6.5428,6.529,6.529,6.529,6.529,6.529,6.4738,6.4427,6.4427,6.3205,6.2513,6.2358,6.2201,6.1642,6.0717,6.0548,6.0206,5.9716,5.9716,5.9716,0.0,3.615,0.0,4.5883,4.9301,0.0,0.0,0.0,0.0,0.0,0.0,0.0,0.0,0.0,0.0,0.0,0.0,0.0,0.0,0.0,0.0,0.0,0.0,0.0,0.0,0.0,0.0,0.0,0.0,0.0,6.0529,6.0529,6.0529,6.0456,6.0456,6.0456,6.0419,6.0456,6.0493,6.0529,6.0529,6.0933,6.1667,6.1667,6.2108,6.2879,6.3064,6.3591,6.4377,6.4583,6.516,6.5949,6.6118,6.6648,6.7317,6.7354,6.7874,6.8506,6.8506,6.8506,6.8506,6.8506,6.8506,6.8408,6.7982,6.7841,6.7736,6.7341,6.723,6.7356,6.8288,6.8507,6.8517,6.8862,6.8956,6.8769,6.8219,6.8225,6.8261,6.823,6.823,6.823,6.823,6.7927,6.7654,6.7411,6.6915,6.6477,6.6254,6.5371,6.4772,6.4772,6.4117,6.3703,6.3703,6.3703,6.3703,6.3703,6.3669,6.3669,6.3669,6.2966,6.2358,6.1756,6.1103,6.0802,6.0717,6.0033,5.9716,5.9716,5.9716,5.9716,0.0,0.0,0.0,4.28,4.5883,4.8307,0.0,0.0,0.0,0.0,0.0,0.0,0.0,0.0,0.0,0.0,0.0,0.0,0.0,0.0,0.0,0.0,0.0,0.0,0.0,0.0,0.0,0.0,0.0,0.0,6.0419,6.0419,6.0162,5.9648,5.9648,5.9648,5.9648,5.9648,5.9905,6.0419,6.0419,6.0566,6.086,6.0989,6.1147,6.1438,6.1552,6.2328,6.3444,6.3541,6.387,6.4345,6.4911,6.5186,6.5411,6.6445,6.6883,6.6969,6.743,6.7577,6.7577,6.7577,6.7577,6.7577,6.7415,6.736,6.736,6.7157,6.691,6.675,6.7135,6.6969,6.6772,6.6872,6.6881,6.6881,6.6689,6.741,6.8088,6.8088,6.8088,6.8088,6.8088,6.7496,6.6798,6.61,6.5618,6.5092,6.4248,6.417,6.4161,6.3979,6.3772,6.36,6.36,6.36,6.36,6.36,6.3193,6.2931,6.2931,6.1963,6.1268,6.102,6.0378,6.0033,6.0033,5.9804,5.9716,5.9716,5.9716,5.9716,3.0687,0.0,0.0,0.0,0.0,4.4562,4.86,0.0,0.0,0.0,0.0,0.0,0.0,0.0,0.0,0.0,0.0,0.0,0.0,0.0,0.0,0.0,0.0,0.0,0.0,0.0,0.0,0.0,0.0,0.0,5.9612,5.9612,5.9355,5.8804,5.8804,5.8804,5.8804,5.8804,5.8967,5.9298,5.9298,5.9346,5.9401,5.9545,5.9781,6.0015,6.0375,6.1184,6.2287,6.2339,6.2493,6.2818,6.3419,6.3823,6.4127,6.5191,6.5767,6.6043,6.6554,6.6919,6.7101,6.7101,6.7101,6.7045,6.6967,6.691,6.6852,6.6736,6.6476,6.6269,6.6269,6.6021,6.5804,6.5804,6.5804,6.5804,6.5804,6.6589,6.7338,6.7338,6.7338,6.7338,6.7338,6.6678,6.5982,6.5184,6.4775,6.4183,6.3308,6.3581,6.3747,6.36,6.36,6.36,6.36,6.36,6.3491,6.3268,6.2855,6.2513,6.2279,6.1268,6.0717,6.0717,6.0033,5.9716,5.9716,5.9716,5.9716,5.9716,5.9716,5.9587,0.0,0.0,0.0,0.0,0.0,0.0,0.0,0.0,0.0,0.0,0.0,0.0,0.0,0.0,0.0,0.0,0.0,0.0,0.0,0.0,0.0,0.0,0.0,0.0,0.0,0.0,0.0,0.0,0.0,5.7997,5.7997,5.7997,5.7997,5.7997,5.795,5.795,5.795,5.795,5.7679,5.7065,5.7065,5.7205,5.7473,5.7453,5.7938,5.8688,5.938,6.0165,6.082,6.0997,6.1286,6.1604,6.177,6.2495,6.3527,6.3564,6.4548,6.5934,6.5915,6.6425,6.7045,6.7045,6.7045,6.7024,6.6595,6.6476,6.6355,6.5931,6.5804,6.5804,6.5804,6.5804,6.5804,6.5804,6.5804,6.5804,6.5804,6.5804,6.5804,6.5804,6.5804,6.5804,6.5804,6.551,6.5078,6.474,6.4323,6.3933,6.3639,6.3565,6.3565,6.36,6.36,6.36,6.36,6.36,6.3268,6.2591,6.2513,6.2279,6.1676,6.102,6.06,6.06,6.0001,5.9684,5.9684,5.9716,5.9716,5.9716,5.9684,5.9295,2.8851,0.0,0.0,0.0,0.0,0.0,0.0,0.0,0.0,0.0,0.0,0.0,0.0,0.0,0.0,0.0,0.0,0.0,0.0,0.0,0.0,0.0,0.0,0.0,0.0,0.0,0.0,0.0,5.7594,5.7546,5.7997,5.7594,5.7351,5.7351,5.6964,5.6757,5.6757,5.6757,5.6704,5.6546,5.6546,5.6546,5.6633,5.6715,5.6929,5.7117,5.7499,5.8049,5.8846,6.0306,6.1149,6.1472,6.1604,6.184,6.2165,6.2855,6.3192,6.3477,6.4627,6.5166,6.5356,6.5992,6.6172,6.6146,6.6021,6.5958,6.5958,6.5867,6.5804,6.5804,6.5804,6.5804,6.5804,6.5804,6.5804,6.5804,6.5804,6.5804,6.5804,6.5804,6.5804,6.5804,6.5804,6.5575,6.5101,6.4203,6.3727,6.338,6.3026,6.2845,6.3013,6.3531,6.36,6.3417,6.2931,6.2855,6.2625,6.1963,6.1513,6.1185,6.0936,5.9768,5.9166,5.9166,5.9026,5.8939,5.8939,5.9457,5.9716,5.9716,5.9166,5.8551,2.9552,3.0552,3.2265,0.0,0.0,0.0,0.0,3.9827,0.0,0.0,0.0,0.0,0.0,0.0,0.0,0.0,0.0,0.0,0.0,0.0,0.0,0.0,0.0,0.0,0.0,0.0,0.0,0.0,5.6138,5.5952,5.6285,5.6038,5.58,5.58,5.5489,5.5509,5.583,5.583,5.581,5.5943,5.5943,5.5773,5.5578,5.5619,5.5645,5.5715,5.6136,5.6564,5.7078,5.8927,6.0123,6.0711,6.0891,6.1045,6.127,6.1911,6.2224,6.2414,6.3341,6.4055,6.4697,6.5161,6.5518,6.5804,6.5804,6.5804,6.5804,6.5804,6.5804,6.5804,6.5804,6.5804,6.5804,6.5804,6.5804,6.5804,6.5804,6.5804,6.5804,6.5804,6.5804,6.5804,6.5804,6.574,6.5368,6.4544,6.4139,6.3833,6.3379,6.3127,6.319,6.3531,6.36,6.3343,6.2668,6.2591,6.2201,6.135,6.0969,6.0548,6.0292,5.9177,5.8648,5.8648,5.8356,5.8194,5.828,5.9026,5.9307,5.8982,5.8065,5.7514,3.0351,3.1365,3.3259,3.5439,0.0,0.0,3.968,3.9643,0.0,0.0,0.0,0.0,0.0,0.0,0.0,0.0,0.0,0.0,0.0,0.0,0.0,0.0,0.0,0.0,0.0,0.0,5.481,5.4713,5.4281,5.3973,5.392,5.392,5.392,5.392,5.3868,5.4136,5.4758,5.4758,5.4909,5.5144,5.5144,5.4913,5.4494,5.4494,5.4494,5.4563,5.5219,5.5529,5.5736,5.7081,5.8449,5.9674,5.9972,6.0388,6.0818,6.1034,6.1557,6.2164,6.2271,6.3199,6.4376,6.4448,6.5019,6.5661,6.5661,6.5732,6.5804,6.5804,6.5804,6.5804,6.5804,6.5804,6.5804,6.5804,6.5804,6.5804,6.5804,6.5804,6.5804,6.5804,6.5804,6.5804,6.5804,6.5804,6.564,6.5278,6.5043,6.4669,6.4182,6.3895,6.3677,6.3491,6.3491,6.3193,6.2436,6.2358,6.1883,6.0633,6.0548,6.0292,5.9716,5.9004,5.8648,5.8648,5.8,5.7845,5.8097,5.8698,5.86,5.7753,5.6936,5.6446,3.2393,3.2858,3.3669,3.3834,0.0,0.0,3.357,3.4688,0.0,0.0,0.0,0.0,0.0,0.0,0.0,0.0,0.0,0.0,0.0,0.0,0.0,0.0,0.0,0.0,0.0,0.0,5.4628,5.4179,5.4076,5.3815,5.3329,5.3274,5.3274,5.3274,5.2799,5.2612,5.2751,5.2751,5.3107,5.3783,5.3783,5.4033,5.4494,5.4494,5.4494,5.4529,5.4667,5.5046,5.5632,5.5943,5.7071,5.8781,5.9733,6.036,6.0671,6.0974,6.12,6.1414,6.2057,6.2485,6.2842,6.3448,6.4198,6.484,6.484,6.5304,6.5804,6.5804,6.5804,6.5804,6.5804,6.5804,6.5804,6.5804,6.5804,6.5804,6.5804,6.5804,6.5804,6.5804,6.5804,6.5804,6.5804,6.5804,6.574,6.5445,6.4584,6.4004,6.4323,6.341,6.2763,6.2787,6.2779,6.2358,6.1185,6.1103,6.0685,5.9946,5.9892,5.9804,5.9716,5.9004,5.8648,5.8648,5.8657,5.8847,5.9016,5.9011,5.8423,5.725,5.6873,5.6433,3.3383,3.3488,3.4082,3.4605,0.0,0.0,0.0,0.0,0.0,0.0,0.0,0.0,0.0,0.0,0.0,0.0,0.0,0.0,0.0,0.0,0.0,0.0,0.0,0.0,0.0,0.0,5.2161,5.2036,5.2017,5.1906,5.1568,5.1511,5.1511,5.1511,5.1256,5.1287,5.1666,5.1666,5.2046,5.2804,5.3218,5.3598,5.3977,5.4356,5.4494,5.4494,5.4494,5.4701,5.5081,5.546,5.621,5.7329,5.8927,5.9945,6.0609,6.0974,6.1093,6.1165,6.1557,6.195,6.2342,6.2735,6.3377,6.4019,6.4019,6.4555,6.5304,6.5697,6.5804,6.5804,6.5804,6.5804,6.5804,6.5804,6.5804,6.5804,6.5804,6.5804,6.5804,6.5804,6.5804,6.5804,6.5804,6.5804,6.574,6.564,6.4862,6.4353,6.4498,6.3439,6.2672,6.2634,6.2358,6.1723,6.0802,6.0717,6.0378,5.9716,5.936,5.9166,5.9166,5.813,5.7579,5.7579,5.8515,5.8965,5.874,5.9133,5.8855,5.7854,5.7609,5.7364,0.0,0.0,0.0,0.0,0.0,3.4232,0.0,0.0,0.0,0.0,0.0,0.0,0.0,0.0,0.0,0.0,0.0,0.0,0.0,0.0,0.0,0.0,0.0,0.0,0.0,0.0,4.8816,4.9551,4.9148,4.9148,4.9735,4.9769,4.9838,5.0011,5.0011,5.0287,5.0907,5.0907,5.1287,5.2011,5.2666,5.3115,5.3425,5.4011,5.4391,5.4494,5.4494,5.4494,5.4563,5.515,5.5559,5.6125,5.8129,5.9487,6.0397,6.0843,6.1093,6.1093,6.1093,6.1521,6.2057,6.2057,6.2556,6.3199,6.3341,6.3841,6.4555,6.534,6.559,6.559,6.5768,6.5804,6.5804,6.5804,6.5804,6.5804,6.5804,6.5804,6.5804,6.5804,6.5804,6.5804,6.5804,6.574,6.564,6.564,6.5114,6.4602,6.4428,6.3348,6.2513,6.2279,6.1803,6.1201,6.0351,6.0351,6.003,5.9295,5.8745,5.8421,5.8421,5.745,5.6964,5.721,5.8352,5.8834,5.8495,5.912,5.907,5.8459,5.8216,5.8068,0.0,0.0,0.0,0.0,3.715,0.0,0.0,0.0,0.0,0.0,0.0,0.0,0.0,0.0,0.0,0.0,0.0,0.0,0.0,0.0,0.0,0.0,0.0,0.0,0.0,0.0,0.0,4.7803,4.6079,4.6113,4.8803,4.8976,4.9286,4.9976,5.0011,5.0045,5.0114,5.0114,5.0493,5.1252,5.1321,5.208,5.3391,5.3494,5.3873,5.4494,5.4494,5.4494,5.4529,5.4598,5.5173,5.6125,5.8002,5.8983,5.947,6.0509,6.0938,6.1093,6.1093,6.1165,6.1236,6.1236,6.1771,6.2521,6.3199,6.3448,6.3698,6.4519,6.4769,6.4912,6.5625,6.5804,6.5804,6.5804,6.5804,6.5804,6.5804,6.5804,6.5804,6.5804,6.5804,6.5804,6.5804,6.551,6.5278,6.5278,6.4183,6.3422,6.3348,6.2513,6.1595,6.0936,6.0853,6.0285,5.8982,5.8831,5.8572,5.7871,5.7741,5.7709,5.7709,5.813,5.8766,5.9675,5.9219,5.918,5.9416,5.8971,5.8393,5.7906,5.7701,5.7258,0.0,0.0,0.0,0.0,0.0,0.0,3.3733,0.0,3.2546,0.0,0.0,0.0,0.0,0.0,0.0,0.0,0.0,0.0,0.0,0.0,0.0,0.0,0.0,0.0,0.0,0.0,0.0,0.0,0.0,4.5216,4.7424,4.7941,4.8528,4.9286,4.9321,4.9528,5.0011,5.0011,5.0149,5.0459,5.0907,5.1459,5.2114,5.3011,5.3563,5.3908,5.4322,5.4494,5.4494,5.4494,5.4765,5.5208,5.6536,5.7954,5.9294,5.9916,6.0582,6.1093,6.1093,6.1093,6.1093,6.1093,6.1343,6.1736,6.2521,6.2735,6.2913,6.3698,6.3912,6.4091,6.4912,6.5126,6.5233,6.5697,6.5804,6.5804,6.5804,6.5804,6.5804,6.5804,6.5409,6.511,6.511,6.4588,6.4312,6.4667,6.33,6.2309,6.2566,6.1723,6.102,6.0717,6.0378,5.9654,5.868,5.9004,5.8972,5.8227,5.8194,5.8,5.7579,5.7871,5.8247,5.8625,5.8587,5.8591,5.8807,5.8789,5.8455,5.7806,5.8157,5.8111,3.9039,0.0,0.0,0.0,0.0,0.0,0.0,0.0,0.0,0.0,0.0,0.0,0.0,0.0,0.0,0.0,0.0,0.0,0.0,0.0,0.0,0.0,0.0,0.0,0.0,0.0,0.0,0.0,0.0,0.0,4.5837,4.6493,4.732,4.8493,4.87,4.9114,4.9666,4.9907,5.0011,5.0011,5.0562,5.0907,5.1149,5.2494,5.3184,5.3425,5.4184,5.4494,5.4494,5.4494,5.4494,5.4563,5.5369,5.6815,5.8536,5.9299,6.0036,6.0749,6.1022,6.1093,6.1093,6.1093,6.1093,6.12,6.1771,6.195,6.2128,6.2877,6.3092,6.327,6.4091,6.4269,6.4412,6.4983,6.5304,6.5419,6.519,6.5332,6.5409,6.5176,6.4669,6.4288,6.4288,6.3764,6.345,6.3759,6.2426,6.1481,6.1749,6.0986,6.0397,6.0201,5.9654,5.9036,5.813,5.8518,5.8518,5.7806,5.7741,5.7611,5.7288,5.7372,5.7521,5.7716,5.7854,5.8002,5.8084,5.8129,5.7926,5.7508,5.8237,5.8502,0.0,0.0,0.0,3.7456,0.0,0.0,0.0,0.0,3.4628,0.0,0.0,0.0,0.0,0.0,0.0,3.0939,0.0,0.0,0.0,0.0,0.0,0.0,0.0,0.0,0.0,0.0,0.0,0.0,0.0,0.0,4.4078,4.4389,4.5423,4.7665,4.8459,4.8838,4.8872,4.9631,5.0011,5.0011,5.0011,5.0424,5.1149,5.1908,5.2666,5.3425,5.4184,5.4494,5.4494,5.4494,5.4494,5.4529,5.4904,5.5637,5.6694,5.8571,5.9441,5.9882,6.0784,6.1093,6.1093,6.1093,6.1093,6.1093,6.1129,6.1129,6.1307,6.2092,6.2342,6.2485,6.3234,6.3413,6.3413,6.3448,6.4055,6.4436,6.3612,6.4074,6.4428,6.3612,6.3466,6.3466,6.3466,6.3131,6.2863,6.26,6.1656,6.0986,6.0769,6.012,5.9457,5.8745,5.868,5.8097,5.6672,5.6575,5.6284,5.5571,5.5507,5.583,5.651,5.6676,5.7249,5.8183,5.7495,5.7409,5.7806,5.6954,5.6591,5.6746,5.7475,5.7442,0.0,0.0,4.3802,4.0215,0.0,0.0,0.0,0.0,0.0,0.0,0.0,0.0,0.0,0.0,3.2593,3.1593,3.1214,0.0,0.0,0.0,0.0,0.0,0.0,0.0,0.0,0.0,0.0,0.0,3.7353,0.0,0.0,4.3059,4.4354,4.6148,4.6941,4.7838,4.8803,4.9079,4.9493,5.0011,5.0011,5.0149,5.0424,5.1149,5.1908,5.2666,5.3425,5.4046,5.4494,5.4494,5.4494,5.4494,5.462,5.5043,5.5768,5.7857,5.9076,5.9823,6.0749,6.1093,6.1093,6.1093,6.1093,6.1093,6.1093,6.1093,6.1165,6.1414,6.1521,6.17,6.2449,6.232,6.2075,6.2605,6.2596,6.2367,6.2092,6.2196,6.2334,6.2016,6.1581,6.1211,6.1211,6.056,6.0458,6.1682,6.0322,5.9184,5.9284,5.8755,5.8194,5.7968,5.7935,5.7547,5.6575,5.651,5.6608,5.6834,5.6834,5.6964,5.7191,5.682,5.6856,5.7249,5.6726,5.6606,5.6843,5.6657,5.6603,5.668,5.6945,5.6912,4.549,4.5667,0.0,4.2437,4.094,0.0,3.6387,0.0,0.0,0.0,0.0,0.0,0.0,0.0,0.0,3.3076,3.1696,2.9903,0.0,0.0,0.0,0.0,0.0,0.0,0.0,0.0,3.4869,3.6215,3.5766,0.0,0.0,0.0,4.3044,4.4561,4.5906,4.7182,4.8424,4.87,4.9217,5.0011,5.0011,5.0011,5.0045,5.0769,5.1356,5.1873,5.2942,5.3667,5.4149,5.4391,5.4494,5.4529,5.4592,5.4745,5.5192,5.6997,5.858,5.9905,6.0749,6.1093,6.1093,6.1093,6.1093,6.1093,6.1093,6.0914,6.0696,6.0696,6.0538,6.0458,6.0952,6.0739,6.0517,6.104,6.1016,6.0806,6.0522,6.0655,6.0789,6.0421,5.9895,5.9544,5.9544,5.8946,5.8954,6.0222,5.9103,5.813,5.8194,5.7871,5.7482,5.7223,5.7191,5.6899,5.6187,5.6122,5.6316,5.677,5.6802,5.6802,5.6802,5.6464,5.6368,5.6531,5.6315,5.6323,5.6525,5.6338,5.6316,5.6316,5.6051,5.5918]},{"header":{"parameterUnit":"m.s-1","parameterCategory":1,"la1":30.6,"la2":29.2853,"lo1":-89.7004,"lo2":-87.6739,"dy":0.0162,"dx":0.0183,"nx":112,"ny":82,"refTime":"2026-03-25T12:00:00:Z","depth":0,"parameterNumber":3,"parameterNumberName":"V-component_of_WINDS"},"data":[0.0,0.0,0.0,0.0,0.0,0.0,0.0,0.0,0.0,0.0,0.0,0.0,0.0,0.0,0.0,0.0,0.0,0.0,0.0,0.0,0.0,0.0,0.0,0.0,0.0,0.0,0.0,0.0,0.0,0.0,0.0,0.0,0.0,0.0,0.0,0.0,0.0,0.0,0.0,0.0,0.0,0.0,0.0,0.0,0.0,0.0,0.0,0.0,0.0,0.0,0.0,0.0,0.0,0.0,0.0,0.0,0.0,0.0,0.0,0.0,0.0,0.0,0.0,0.0,0.0,0.0,0.0,0.0,0.0,0.0,0.0,0.0,0.0,0.0,0.0,0.0,0.0,0.0,0.0,0.0,0.0,0.0,0.0,0.0,0.0,0.0,0.0,0.0,0.0,0.0,-0.6446,-0.7551,-0.8802,-0.9644,-0.9644,-0.94,-0.8812,-0.779,0.0,0.0,0.0,0.0,0.0,0.0,0.0,0.0,0.0,0.0,0.0,0.0,0.0,0.0,0.0,0.0,0.0,0.0,0.0,0.0,0.0,0.0,0.0,0.0,0.0,0.0,0.0,0.0,0.0,0.0,0.0,0.0,0.0,0.0,0.0,0.0,0.0,0.0,0.0,0.0,0.0,0.0,0.0,0.0,0.0,0.0,0.0,0.0,0.0,0.0,0.0,0.0,0.0,0.0,0.0,0.0,0.0,0.0,0.0,0.0,0.0,0.0,0.0,0.0,0.0,0.0,0.0,0.0,0.0,0.0,0.0,0.0,0.0,0.0,0.0,0.0,0.0,0.0,0.0,0.0,0.0,0.0,0.0,0.0,0.0,0.0,0.0,0.0,0.0,0.0,0.0,0.0,0.0,0.0,0.0,0.0,0.0,0.0,0.0,0.0,0.0,0.0,0.0,0.0,-0.6995,-0.8826,-0.9356,-0.9514,-0.9514,-0.9198,-0.8671,-0.7894,0.0,0.0,0.0,0.0,0.0,0.0,0.0,0.0,0.0,0.0,0.0,0.0,0.0,0.0,0.0,0.0,0.0,0.0,0.0,0.0,0.0,0.0,0.0,0.0,0.0,0.0,0.0,0.0,0.0,0.0,0.0,0.0,0.0,0.0,0.0,0.0,0.0,0.0,0.0,0.0,0.0,0.0,0.0,0.0,0.0,0.0,0.0,0.0,0.0,0.0,0.0,0.0,0.0,0.0,0.0,0.0,0.0,0.0,0.0,0.0,0.0,0.0,0.0,0.0,0.0,0.0,0.0,0.0,0.0,0.0,0.0,0.0,0.0,0.0,0.0,0.0,0.0,0.0,0.0,0.0,0.0,0.0,0.0,0.0,0.0,0.0,0.0,0.0,0.0,0.0,0.0,0.0,0.0,0.0,0.0,0.0,0.0,0.0,0.0,0.0,0.0,0.0,0.0,-0.6498,-0.791,-0.9269,-0.9454,-0.9634,-0.9781,-0.9439,-0.8907,-0.8284,-0.7528,0.0,0.0,0.0,0.0,0.0,0.0,0.0,0.0,0.0,0.0,0.0,0.0,0.0,0.0,0.0,0.0,0.0,0.0,0.0,0.0,0.0,0.0,0.0,0.0,0.0,0.0,0.0,0.0,0.0,0.0,0.0,0.0,0.0,0.0,0.0,0.0,0.0,0.0,0.0,0.0,0.0,0.0,0.0,0.0,0.0,0.0,0.0,0.0,0.0,0.0,0.0,0.0,0.0,0.0,0.0,0.0,0.0,0.0,0.0,0.0,0.0,0.0,0.0,0.0,0.0,0.0,0.0,0.0,0.0,0.0,0.0,0.0,0.0,0.0,0.0,0.0,0.0,0.0,0.0,0.0,0.0,0.0,0.0,0.0,0.0,0.0,0.0,0.0,0.0,0.0,0.0,0.0,0.0,0.0,0.0,0.0,0.0,0.0,0.0,0.0,0.0,0.0,-0.8265,-0.88,-0.9501,-0.9736,-0.9883,-1.0175,-0.9736,-0.918,-0.8518,-0.7639,0.0,0.0,0.0,0.0,0.0,0.0,0.0,0.0,0.0,0.0,0.0,0.0,0.0,0.0,0.0,0.0,0.0,0.0,0.0,0.0,0.0,0.0,0.0,0.0,0.0,0.0,0.0,0.0,0.0,0.0,0.0,0.0,0.0,0.0,0.0,0.0,0.0,0.0,0.0,0.0,0.0,0.0,0.0,0.0,0.0,0.0,0.0,0.0,0.0,0.0,0.0,0.0,0.0,0.0,0.0,0.0,0.0,0.0,0.0,0.0,0.0,0.0,0.0,0.0,0.0,0.0,0.0,0.0,0.0,0.0,0.0,0.0,0.0,0.0,0.0,0.0,0.0,0.0,0.0,0.0,0.0,0.0,0.0,0.0,0.0,0.0,0.0,0.0,0.0,0.0,0.0,0.0,0.0,0.0,0.0,0.0,0.0,0.0,0.0,0.0,0.0,0.0,-0.8805,-0.9829,-0.985,-1.0179,-1.0468,-1.0468,-0.9753,-0.9046,-0.85,-0.7194,0.0,0.0,0.0,0.0,0.0,0.0,0.0,0.0,0.0,0.0,0.0,0.0,0.0,0.0,0.0,0.0,0.0,0.0,0.0,0.0,0.0,0.0,0.0,0.0,0.0,0.0,0.0,0.0,0.0,0.0,0.0,0.0,0.0,0.0,0.0,0.0,0.0,0.0,0.0,0.0,0.0,0.0,0.0,0.0,0.0,0.0,0.0,0.0,0.0,0.0,0.0,0.0,0.0,0.0,0.0,0.0,0.0,0.0,0.0,0.0,0.0,0.0,0.0,0.0,0.0,0.0,0.0,0.0,0.0,0.0,0.0,0.0,0.0,0.0,0.0,0.0,0.0,0.0,0.0,0.0,0.0,0.0,0.0,0.0,0.0,0.0,0.0,0.0,0.0,0.0,0.0,0.0,0.0,0.0,0.0,0.0,0.0,0.0,0.0,0.0,0.0,0.0,-0.8771,-0.9728,0.0,-1.0455,-1.0599,-1.075,-1.0228,-0.9632,-0.8998,0.0,0.0,0.0,0.0,0.0,0.0,0.0,0.0,0.0,0.0,0.0,0.0,0.0,0.0,0.0,0.0,0.0,0.0,0.0,0.0,0.0,0.0,0.0,0.0,0.0,0.0,0.0,0.0,0.0,0.0,0.0,0.0,0.0,0.0,0.0,0.0,0.0,0.0,0.0,0.0,0.0,0.0,0.0,0.0,0.0,0.0,0.0,0.0,0.0,0.0,0.0,0.0,0.0,0.0,0.0,0.0,0.0,0.0,0.0,0.0,0.0,0.0,0.0,0.0,0.0,0.0,0.0,0.0,0.0,0.0,0.0,0.0,0.0,0.0,0.0,0.0,0.0,0.0,0.0,0.0,0.0,0.0,0.0,0.0,0.0,0.0,0.0,0.0,0.0,0.0,0.0,0.0,0.0,0.0,0.0,0.0,0.0,0.0,0.0,0.0,0.0,0.0,-0.799,-0.9193,-1.0187,0.0,-1.0875,-1.1186,-1.139,-1.0868,-1.0169,-0.9294,0.0,0.0,0.0,0.0,0.0,0.0,0.0,0.0,0.0,0.0,0.0,0.0,0.0,0.0,0.0,0.0,0.0,0.0,0.0,0.0,0.0,0.0,0.0,0.0,0.0,0.0,0.0,0.0,0.0,0.0,0.0,0.0,0.0,0.0,0.0,0.0,0.0,0.0,0.0,0.0,0.0,0.0,0.0,0.0,0.0,0.0,0.0,0.0,0.0,0.0,0.0,0.0,0.0,0.0,0.0,0.0,0.0,0.0,0.0,0.0,0.0,0.0,0.0,0.0,0.0,0.0,0.0,0.0,0.0,0.0,0.0,0.0,0.0,0.0,0.0,0.0,0.0,0.0,0.0,0.0,0.0,0.0,0.0,0.0,0.0,0.0,0.0,0.0,0.0,0.0,0.0,0.0,0.0,0.0,0.0,0.0,0.0,0.0,0.0,0.0,0.0,0.0,-0.8037,-0.9916,-1.1261,-1.156,-1.1918,-1.2128,-1.2277,-1.147,-1.0431,0.0,0.0,0.0,0.0,0.0,0.0,0.0,0.0,0.0,0.0,0.0,0.0,0.0,0.0,0.0,0.0,0.0,0.0,0.0,0.0,0.0,0.0,0.0,0.0,0.0,0.0,0.0,0.0,0.0,0.0,0.0,0.0,0.0,0.0,0.0,0.0,0.0,0.0,0.0,0.0,0.0,0.0,0.0,0.0,0.0,0.0,0.0,0.0,0.0,0.0,0.0,0.0,0.0,0.0,0.0,0.0,0.0,0.0,0.0,0.0,0.0,0.0,0.0,0.0,0.0,0.0,0.0,0.0,0.0,0.0,0.0,0.0,0.0,0.0,0.0,0.0,0.0,0.0,0.0,0.0,0.0,0.0,0.0,0.0,0.0,0.0,0.0,0.0,0.0,0.0,0.0,0.0,0.0,0.0,0.0,0.0,0.0,0.0,0.0,0.0,0.0,0.0,0.0,-0.9029,-1.0717,-1.1986,-1.2326,-1.2433,-1.2352,-1.2298,-1.166,-1.0738,-0.9406,0.0,0.0,0.0,0.0,0.0,0.0,0.0,0.0,0.0,0.0,0.0,0.0,0.0,0.0,0.0,0.0,0.0,0.0,0.0,0.0,0.0,0.0,0.0,0.0,0.0,0.0,0.0,0.0,0.0,0.0,0.0,0.0,0.0,0.0,0.0,0.0,0.0,0.0,0.0,0.0,0.0,0.0,0.0,0.0,0.0,0.0,0.0,0.0,0.0,0.0,0.0,0.0,0.0,0.0,0.0,0.0,0.0,0.0,0.0,0.0,0.0,0.0,0.0,0.0,0.0,0.0,0.0,0.0,0.0,0.0,0.0,0.0,0.0,0.0,0.0,0.0,0.0,0.0,0.0,0.0,0.0,0.0,0.0,0.0,0.0,0.0,0.0,0.0,0.0,0.0,0.0,0.0,0.0,0.0,0.0,0.0,0.0,0.0,0.0,0.0,0.0,0.0,-0.949,-1.1054,-1.2237,-1.2684,-1.2651,-1.2556,-1.2474,-1.2026,-1.1145,-0.9734,0.0,0.0,0.0,0.0,0.0,0.0,0.0,0.0,0.0,0.0,0.0,0.0,0.0,0.0,0.0,0.0,0.0,0.0,0.0,0.0,0.0,0.0,0.0,0.0,0.0,0.0,0.0,0.0,0.0,0.0,0.0,0.0,0.0,0.0,0.0,0.0,0.0,0.0,0.0,0.0,0.0,0.0,0.0,0.0,0.0,0.0,0.0,0.0,0.0,0.0,0.0,0.0,0.0,0.0,0.0,0.0,0.0,0.0,0.0,0.0,0.0,0.0,0.0,0.0,0.0,0.0,0.0,0.0,0.0,0.0,0.0,0.0,0.0,0.0,0.0,0.0,0.0,0.0,0.0,0.0,0.0,0.0,0.0,0.0,0.0,0.0,0.0,0.0,0.0,0.0,0.0,0.0,0.0,0.0,0.0,0.0,0.0,0.0,0.0,0.0,0.0,0.0,-0.9431,-1.1074,-1.2311,-1.2745,-1.2779,-1.2759,-1.2732,-1.2447,-1.164,-1.0161,0.0,0.0,0.0,0.0,0.0,0.0,0.0,0.0,0.0,0.0,0.0,0.0,0.0,0.0,0.0,0.0,0.0,0.0,0.0,0.0,0.0,0.0,0.0,0.0,0.0,0.0,0.0,0.0,0.0,0.0,0.0,0.0,0.0,0.0,0.0,0.0,0.0,0.0,0.0,0.0,0.0,0.0,0.0,0.0,0.0,0.0,0.0,0.0,0.0,0.0,0.0,0.0,0.0,0.0,0.0,0.0,0.0,0.0,0.0,0.0,0.2698,0.0,0.0,0.0,0.0,0.0,0.0,0.0,0.0,0.0,0.0,0.0,0.0,0.0,0.0,0.0,0.0,0.0,0.0,0.0,0.0,0.0,0.0,0.0,0.0,0.0,0.0,0.0,0.0,0.0,0.0,0.0,0.0,0.0,0.0,0.0,0.0,0.0,0.0,0.0,0.0,0.0,-1.0109,-1.1769,-1.2895,-1.322,-1.3152,-1.3143,-1.3225,-1.281,-1.2144,-1.1187,-1.0104,0.0,0.0,0.0,0.0,0.0,0.0,0.0,0.0,0.0,0.0,0.0,0.0,0.0,0.0,0.0,0.0,0.0,0.0,0.0,0.0,0.0,0.0,0.0,0.0,0.0,0.0,0.0,0.0,0.0,0.0,0.0,0.0,0.0,0.0,0.0,0.0,0.0,0.0,0.0,0.0,0.0,0.0,0.0,0.0,0.0,0.0,0.0,0.0,0.0,0.0,0.0,0.0,0.0,0.0,0.0,0.0,0.0,0.0,0.0,0.0,0.2374,0.0,0.0,0.0,0.0,0.0,0.0,0.0,0.0,0.0,0.0,0.0,0.0,0.0,0.0,0.0,0.0,0.0,0.0,0.0,0.0,0.0,0.0,0.0,0.0,0.0,0.0,0.0,0.0,0.0,0.0,0.0,0.0,0.0,0.0,0.0,0.0,0.0,0.0,0.0,0.0,-1.0531,-1.2122,-1.3228,-1.371,-1.3493,-1.3345,-1.3425,-1.3188,-1.2568,-1.2067,-1.0914,0.0,0.0,0.0,0.0,0.0,0.0,0.0,0.0,0.0,0.0,0.0,0.0,0.0,0.0,0.0,0.0,0.0,0.0,0.0,0.0,0.0,0.0,0.0,0.0,0.0,0.0,0.0,0.0,0.0,0.0,0.0,0.0,0.0,0.0,0.0,0.0,0.0,0.0,0.0,0.0,0.0,0.0,0.0,0.0,0.0,0.0,0.0,0.0,0.0,0.0,0.0,0.0,0.0,0.0,0.3012,0.3251,0.2843,0.2686,0.2967,0.2333,0.2089,0.203,0.0,0.0,0.0,0.0,0.0,0.0,0.0,0.0,0.0,0.0,0.0,0.0,0.0,0.0,0.0,0.0,0.0,0.0,0.0,0.0,0.0,0.0,0.0,0.0,0.0,-0.5919,-0.4766,0.0,0.0,0.0,0.0,0.0,0.0,0.0,0.0,0.0,0.0,0.0,0.0,-1.0876,-1.2446,-1.349,-1.399,-1.3676,-1.3454,-1.3759,-1.3446,-1.3205,-1.2871,-1.1759,-1.0707,0.0,0.0,0.0,0.0,0.0,0.0,0.0,0.0,0.0,0.0,0.0,0.0,0.0,0.0,0.0,0.0,0.0,0.0,0.0,0.0,0.0,0.0,0.0,0.0,0.0,0.0,0.0,0.0,0.0,0.0,0.0,0.0,0.3602,0.3627,0.0,0.0,0.0,0.0,0.0,0.0,0.0,0.0,0.0,0.0,0.0,0.0,0.0,0.0,0.4254,0.3799,0.3599,0.3752,0.3279,0.2981,0.2942,0.2954,0.2969,0.2986,0.2777,0.0,0.1241,0.1385,0.0,0.0,0.0,0.0,0.0,0.0,0.0,0.0,0.0,0.0,0.0,0.0,0.0,0.0,0.0,0.0,0.0,0.0,0.0,0.0,0.0,0.0,-0.2493,-0.2905,-0.4114,-0.5005,0.0,-0.4926,-0.5,-0.3442,0.0,0.0,0.0,0.0,0.0,0.0,0.0,0.0,-1.146,-1.2772,-1.3678,-1.3983,-1.3998,-1.4087,-1.4222,-1.3898,-1.3691,-1.3745,-1.2708,-1.184,-1.1229,-1.0056,0.0,0.0,0.0,0.0,0.0,0.0,0.0,0.0,0.0,0.0,0.0,0.0,0.0,0.0,0.0,0.0,0.0,0.0,0.0,0.0,0.0,0.0,0.0,0.0,0.0,0.0,0.0,0.0,0.0,0.3285,0.3308,0.33,0.3423,0.3426,0.0,0.0,0.0,0.0,0.0,0.0,0.0,0.0,0.0,0.3422,0.367,0.3801,0.3635,0.3435,0.3343,0.3386,0.3279,0.3135,0.2961,0.2356,0.2552,0.3155,0.2956,0.2664,0.2141,0.1013,0.0631,0.0876,0.0,0.0,0.0,0.0,0.0,-0.1847,-0.2416,0.0,0.0,0.0,0.0,0.0,0.0,0.0,0.0,0.0,0.0,0.0,0.0,0.0,0.0,-0.3696,-0.4527,-0.5014,-0.4927,-0.5348,-0.569,0.0,-0.6289,-0.6907,-0.5909,0.0,0.0,0.0,0.0,-1.1401,-1.2358,-1.3482,-1.4237,-1.4462,-1.4322,-1.4253,-1.4541,-1.4287,-1.4139,-1.392,-1.3271,-1.2621,-1.1979,-1.1037,-1.0095,0.0,0.0,0.0,0.0,0.0,0.0,0.0,0.0,0.0,0.0,0.0,0.0,0.0,0.0,0.0,0.0,0.0,0.0,0.0,0.0,0.0,0.0,0.0,0.0,0.0,0.0,0.0,0.0,0.2892,0.2981,0.2915,0.2997,0.3042,0.0,0.0,0.0,0.0,0.0,0.0,0.3366,0.3193,0.3215,0.3113,0.3352,0.328,0.3052,0.3084,0.3133,0.32,0.2779,0.2801,0.3266,0.2433,0.2424,0.3234,0.3234,0.2807,0.2163,0.0726,0.0,0.016,0.1056,0.1317,0.0,-0.0295,-0.1473,-0.2514,-0.2568,-0.26,-0.2703,-0.2671,0.0,-0.2561,-0.2462,0.0,0.0,0.0,0.0,-0.2109,-0.229,0.0,-0.2767,-0.415,-0.4872,-0.5387,-0.5325,-0.6128,-0.6861,0.0,-0.8419,-0.9294,-0.8037,0.0,0.0,0.0,0.0,-1.2433,-1.3141,-1.3885,-1.4621,-1.496,-1.4669,-1.4597,-1.4724,-1.4538,-1.4302,-1.3993,-1.3636,-1.3181,-1.2605,-1.1922,-1.1086,-1.0054,0.0,0.0,0.0,0.0,0.0,0.0,0.0,0.0,0.0,0.0,0.0,0.0,0.0,0.0,0.0,0.0,0.0,0.0,0.0,0.0,0.0,0.0,0.0,0.0,0.0,0.0,0.0,0.0,0.0,0.2022,0.2191,0.0,0.0,0.0,0.0,0.2769,0.2661,0.2659,0.3113,0.2884,0.2833,0.2986,0.3022,0.3084,0.3178,0.3209,0.3227,0.3231,0.222,0.2221,0.3236,0.3234,0.3234,0.3234,0.3234,0.202,0.0201,0.0,0.0,0.0,0.0,0.0166,-0.0164,-0.2274,-0.2426,-0.1625,-0.2529,-0.2691,-0.2664,-0.2803,-0.2691,-0.2482,-0.2383,-0.2252,0.0,0.0,-0.2268,-0.2337,-0.2435,-0.2525,-0.26,-0.2634,-0.4325,-0.5849,-0.5781,-0.7148,-0.8044,0.0,-0.7902,-0.9075,-1.0688,0.0,-1.1195,-1.1563,-1.2051,-1.2807,-1.3782,-1.4375,-1.4781,-1.4952,-1.4968,-1.4895,-1.4724,-1.4538,-1.4359,-1.4172,-1.3831,-1.3539,-1.3327,-1.2791,-1.2069,-1.1159,-1.0274,0.0,0.0,0.0,0.0,0.0,0.0,0.0,0.0,0.0,0.0,0.0,0.0,0.0,0.0,0.0,0.0,0.0,0.0,0.0,0.0,0.0,0.0,0.0,0.0,0.0,0.0,0.0,0.0,0.2472,0.2526,0.0,0.2337,0.2342,0.2395,0.2651,0.2626,0.2744,0.3021,0.2936,0.3018,0.3092,0.3142,0.2787,0.2211,0.2219,0.2433,0.3262,0.2838,0.2027,0.1223,0.1215,0.1212,0.1212,0.1212,0.0805,-0.02,-0.1367,-0.1915,-0.2066,-0.1983,-0.1593,-0.1058,-0.1757,-0.2281,-0.2462,-0.2864,-0.2842,-0.2789,-0.2765,-0.2672,-0.2553,-0.2463,-0.2399,-0.2361,-0.2383,-0.2432,-0.2806,-0.4321,-0.4091,-0.3824,-0.5002,-0.6022,-0.6871,-0.651,-0.8178,-0.9898,-1.0319,-1.0058,-1.0316,-1.1622,-1.2383,-1.2728,-1.2497,-1.3142,-1.3737,-1.4359,-1.4684,-1.4854,-1.4806,-1.4797,-1.4684,-1.4391,-1.4196,-1.3969,-1.3677,-1.3425,-1.3214,-1.3035,-1.2726,-1.2255,-1.1589,-1.1255,-1.0288,0.0,0.0,0.0,0.0,0.0,0.0,0.0,0.0,0.0,0.0,0.0,0.0,0.0,0.0,0.0,0.0,0.0,0.0,0.0,0.0,0.0,0.0,0.0,0.0,0.0,0.0,0.2372,0.2645,0.2703,0.2639,0.254,0.2575,0.2642,0.2732,0.2831,0.2928,0.3018,0.2686,0.2536,0.2577,0.3002,0.282,0.2222,0.1414,0.1419,0.2039,0.2026,0.1419,0.0,0.0,0.0,-0.0,-0.0808,-0.1006,-0.12,-0.2172,-0.2739,-0.3101,-0.3179,-0.258,-0.2027,-0.2027,-0.2396,-0.2951,-0.2971,-0.2945,-0.2887,-0.2787,-0.272,-0.2664,-0.2745,-0.288,-0.2877,-0.3024,-0.3055,-0.3591,-0.5619,-0.5507,-0.5373,-0.7208,-0.7877,-0.8211,-0.7877,-0.9293,-1.0981,-1.2147,-1.202,-1.188,-1.2856,-1.3555,-1.3863,-1.3295,-1.3737,-1.4302,-1.4424,-1.4643,-1.4741,-1.4627,-1.4611,-1.4497,-1.4205,-1.3953,-1.3717,-1.3482,-1.3308,-1.3062,-1.2882,-1.2644,-1.2258,-1.1836,-1.138,-1.0519,-0.9354,0.0,0.0,0.0,0.0,0.0,0.0,0.0,0.0,0.0,0.0,0.0,0.0,0.0,0.0,0.0,0.0,0.0,0.0,0.0,0.0,0.0,0.0,0.0,0.2102,0.2224,0.2382,0.2331,0.2688,0.2788,0.234,0.2569,0.2651,0.2735,0.2977,0.3048,0.3138,0.2142,0.157,0.1614,0.2403,0.3004,0.3032,0.101,0.0,0.0,0.0,0.0,-0.0,-0.0,-0.0,-0.0202,-0.2222,-0.3234,-0.3028,-0.198,-0.2161,-0.3134,-0.3043,-0.3009,-0.3009,-0.3009,-0.3009,-0.3009,-0.3007,-0.2987,-0.2951,-0.2894,-0.2855,-0.2994,-0.3276,-0.3425,-0.3587,-0.3881,-0.4038,-0.4372,-0.6376,-0.671,-0.7208,-0.9036,-0.9873,-1.0044,-1.0044,-1.0453,-1.1149,-1.2635,-1.3137,-1.3723,-1.4621,-1.4716,-1.4529,-1.4002,-1.4213,0.0,-1.3961,-1.4221,-1.4424,-1.4416,-1.4416,-1.4351,-1.4172,-1.3831,-1.3628,-1.3628,-1.3385,-1.3257,-1.3071,-1.2716,-1.2259,-1.171,-1.0638,-0.9973,-0.9949,0.0,0.0,0.0,0.0,0.0,0.0,0.0,0.0,0.0,0.0,0.0,0.0,0.0,0.0,0.0,0.0,0.0,0.0,0.0,0.0,0.0,0.0,0.1254,0.1934,0.2142,0.2155,0.153,0.1601,0.1837,0.1857,0.1847,0.1673,0.1902,0.1914,0.2319,0.3141,0.2762,0.1984,0.04,0.0803,0.0806,0.0808,0.0202,0.0,0.0,0.0,0.0,-0.0,-0.1616,-0.2222,-0.2222,-0.202,-0.2424,-0.3231,-0.2793,-0.2965,-0.3135,-0.3067,-0.304,-0.304,-0.304,-0.304,-0.3036,-0.3014,-0.3173,-0.3509,-0.3464,-0.3587,-0.3883,-0.4036,-0.4007,-0.3971,-0.4097,-0.4085,-0.4922,-0.8227,-0.8382,-0.8382,-1.1546,-1.2542,-1.288,-1.2548,-1.3507,-1.4594,-1.4915,-1.4914,-1.4845,-1.496,-1.4789,-1.4659,-1.4505,-1.4456,0.0,-1.4294,-1.4367,-1.4335,-1.4075,-1.405,-1.3977,-1.3807,-1.3595,-1.3654,-1.3654,-1.3268,-1.3169,-1.3248,-1.2882,-1.2724,-1.2803,-1.1729,-1.1189,0.0,0.0,0.0,0.0,0.0,0.0,0.0,0.0,0.0,0.0,0.0,0.0,0.0,0.0,0.0,0.0,0.0,0.0,0.0,0.0,0.0,0.0,0.1134,0.0915,0.1542,0.2136,0.2258,0.1976,0.1293,0.0755,0.096,0.0952,0.0762,0.0773,0.0968,0.1168,0.1777,0.1788,0.1197,0.0,0.0,0.0,0.0,0.0,0.0,-0.0,-0.101,-0.1414,-0.1414,-0.2222,-0.283,0.0,-0.2626,-0.2628,-0.3231,-0.3201,-0.3178,0.0,0.0,0.0,0.0,0.0,-0.3022,-0.3031,-0.3201,-0.3558,-0.372,-0.3866,-0.4173,-0.4289,-0.4429,-0.4573,-0.4714,-0.569,-0.5845,-0.6853,-1.0477,-1.0953,-1.1109,-1.3894,-1.4661,-1.4609,-1.4445,-1.5272,-1.5878,-1.5699,0.0,0.0,-1.5244,-1.4927,-1.4635,-1.4408,-1.4343,-1.427,0.0,-1.4164,-1.4131,-1.4214,-1.4189,-1.4148,-1.419,-1.4105,0.0,0.0,0.0,-1.3286,-1.3072,-1.2758,0.0,0.0,0.0,0.0,0.0,0.0,0.0,0.0,-1.1692,-1.2775,0.0,0.0,0.0,0.0,0.0,0.0,0.0,0.0,0.0,0.0,0.0,0.0,0.0,0.0,0.0,0.0,0.0916,0.0657,0.0866,0.1778,0.2359,0.2589,0.1132,0.0,0.0,0.0,0.0,0.0,0.0,0.0,0.0,0.0,0.0,0.0,0.0,-0.0404,-0.0404,-0.0202,-0.0202,-0.0202,-0.202,-0.3032,-0.3234,-0.2222,-0.2222,-0.3234,-0.3234,-0.3234,-0.3231,-0.3204,-0.3189,-0.3178,-0.312,-0.3061,-0.3003,-0.2976,-0.3168,0.0,0.0,0.0,0.0,-0.4449,-0.4589,-0.4534,-0.4984,-0.4958,-0.5472,-0.7838,-0.833,-0.9171,-1.264,-1.3607,-1.4069,-1.5609,-1.5934,-1.5804,-1.5804,-1.5788,-1.5731,-1.5601,-1.5666,-1.5691,-1.5536,-1.5082,-1.4578,-1.4091,-1.4123,0.0,-1.3774,-1.3989,-1.4214,-1.4474,0.0,0.0,-1.5017,-1.4692,-1.4618,-1.4591,-1.4159,-1.3665,-1.2929,-1.2754,-1.2662,-1.2643,-1.2616,-1.2887,-1.3457,-1.3438,-1.3779,-1.4441,-1.3445,-1.504,0.0,0.0,0.0,0.0,0.0,0.0,0.0,0.0,0.0,0.0,0.0,0.0,0.0,0.0,0.0,0.1496,0.0807,0.0171,0.0178,0.0364,0.0553,0.0555,0.0189,0.0,0.0,0.0,0.0,0.0,0.0,0.0,0.0,0.0,0.0,0.0,-0.1616,-0.2626,-0.2626,-0.1818,-0.1212,-0.1212,0.0,0.0,-0.3234,-0.3032,-0.3032,-0.3234,-0.3231,-0.3231,-0.3231,-0.3224,-0.3194,-0.3148,-0.3112,-0.3061,-0.3006,-0.3375,-0.3547,-0.3713,-0.4086,-0.4617,-0.4947,-0.4937,-0.5263,-0.5396,-0.5552,-0.5546,0.0,-0.7926,-0.8424,-0.9275,-1.2962,-1.3688,-1.4091,-1.5758,-1.6121,-1.5991,-1.5991,-1.5878,-1.5804,-1.5918,-1.574,-1.5712,-1.5989,-1.5491,-1.4879,-1.4773,-1.4844,-1.4956,-1.488,-1.5061,-1.5067,-1.5052,-1.4903,-1.4815,-1.4815,-1.5023,-1.5045,-1.4873,-1.4818,-1.4538,-1.422,-1.4323,-1.4313,-1.4154,-1.3976,-1.3967,-1.3892,-1.3712,-1.442,-1.5996,-1.4524,-1.5451,0.0,0.0,0.0,0.0,0.0,0.0,0.0,0.0,0.0,0.0,0.0,0.1303,0.1038,0.0,0.0736,0.0797,0.0335,-0.0349,-0.1442,-0.1468,-0.1114,-0.0187,0.0,0.0,0.0,-0.0963,-0.1552,-0.1559,-0.1186,-0.0798,-0.0802,-0.0806,-0.0808,-0.0808,-0.1818,-0.2628,-0.3234,-0.2628,-0.2424,-0.2424,-0.2424,-0.2628,-0.3234,-0.3232,-0.3232,-0.3232,-0.3231,-0.323,-0.323,-0.3433,-0.3794,-0.3926,-0.3907,-0.365,-0.3382,-0.3925,-0.4091,-0.4257,-0.5731,-0.5897,-0.5686,-0.6562,-0.6531,-0.632,-0.6998,-0.7167,-0.7691,-1.0646,-1.1335,-1.2009,-1.4671,-1.5265,-1.5353,-1.6293,-1.6235,-1.6024,-1.5926,-1.5926,-1.5963,-1.5963,-1.6123,-1.6284,-1.6595,-1.6282,-1.5903,-1.5616,-1.5647,-1.5615,-1.5615,-1.5597,-1.5549,-1.5489,-1.539,-1.5434,-1.5475,-1.5606,-1.5617,-1.5301,-1.5222,-1.5111,-1.4799,-1.4884,-1.4931,-1.4931,-1.4827,-1.478,-1.4789,-1.5435,-1.6253,-1.7367,-1.7502,-1.8447,0.0,0.0,0.0,0.0,0.0,0.0,0.0,0.0,0.1226,0.0594,0.0742,0.1041,0.1132,0.0148,-0.0623,-0.0503,-0.0344,-0.0882,-0.255,-0.295,-0.2419,-0.0753,-0.038,-0.0382,-0.0382,-0.1925,-0.2913,-0.3131,-0.2371,-0.1995,-0.1812,-0.1814,-0.1815,-0.1818,-0.1818,-0.2424,-0.3234,-0.3234,-0.3232,-0.3232,-0.3232,-0.3232,-0.3232,-0.3231,-0.323,-0.323,-0.3231,-0.3433,-0.3633,-0.4023,-0.4384,-0.4722,-0.4696,-0.4432,-0.4153,-0.4477,-0.4814,-0.5347,-0.7361,-0.7537,-0.7157,-0.8722,-0.8336,-0.7602,-0.8786,-0.9121,-0.9829,-1.3382,-1.4265,-1.4773,-1.6586,-1.6877,-1.6812,-1.6836,-1.6525,-1.6221,-1.6237,-1.6165,-1.6265,-1.6154,-1.6475,-1.6959,-1.6994,-1.7199,-1.7066,-1.6587,-1.6321,-1.6179,-1.6179,-1.6116,-1.6057,-1.6195,-1.614,-1.6202,-1.632,-1.6226,-1.6056,-1.5753,-1.5706,-1.5526,-1.5186,-1.5177,-1.5252,-1.5413,-1.5375,-1.5576,-1.6021,-1.7183,-1.8105,-1.863,-2.0503,-2.1447,0.2092,0.1587,0.1596,0.1592,0.1619,0.1688,0.0,0.0,0.1177,0.0277,0.0144,0.0149,0.0154,-0.1279,-0.2654,-0.2584,-0.175,-0.1428,-0.1657,-0.2407,-0.2986,-0.285,-0.1906,-0.1335,-0.1335,-0.1539,-0.213,-0.3103,-0.2934,-0.2964,-0.2992,-0.2993,-0.3005,-0.303,-0.3032,-0.3032,-0.3234,-0.3231,-0.3231,-0.3231,-0.3231,-0.3231,-0.3231,-0.323,-0.323,-0.323,-0.3635,-0.424,-0.464,-0.4561,-0.4745,-0.4759,-0.5025,-0.5183,-0.5197,-0.5101,-0.6111,-0.7645,-0.8375,-0.9581,-1.0753,-1.1094,-1.0916,-1.0911,-1.1072,-1.1072,-1.1605,-1.3735,-1.4265,-1.4794,-1.7088,-1.7322,-1.7017,-1.7845,-1.7383,-1.6943,-1.7417,-1.7161,-1.6827,-1.6808,-1.6757,-1.6765,-1.725,-1.7431,-1.753,-1.7137,-1.6975,-1.7052,-1.7052,-1.7009,-1.6908,-1.6889,-1.6878,-1.6755,-1.6736,-1.6396,-1.6235,-1.6367,-1.6216,-1.6093,-1.6046,-1.6046,-1.6056,-1.6075,-1.5886,-1.6481,-1.7866,-1.7798,-1.8508,-1.9845,-2.159,-2.2351,0.2164,0.179,0.1713,0.1792,0.1479,0.1412,0.18,0.1685,0.1277,0.0297,-0.0766,-0.1576,-0.1614,-0.1823,-0.2209,0.0,-0.2471,-0.234,-0.2398,-0.2765,-0.2954,-0.2995,-0.2624,-0.2448,-0.2477,-0.2502,-0.271,-0.3097,-0.3126,-0.3156,-0.3186,-0.3189,-0.3201,-0.3231,-0.3231,-0.3231,-0.3231,-0.3231,-0.323,-0.323,-0.3433,-0.3635,-0.3635,-0.4038,-0.4038,-0.424,-0.4417,-0.4806,-0.5204,-0.5162,-0.5321,-0.5673,-0.7185,-0.7516,-0.7459,-0.7399,-0.7867,-0.8864,-1.1373,-1.1995,-1.2056,-1.2869,-1.2491,-1.1959,-1.2845,-1.3198,-1.3912,-1.5866,-1.6569,-1.692,-1.7989,-1.7929,-1.7878,-1.8218,-1.8009,-1.7748,-1.7688,-1.7527,-1.736,-1.71,-1.7159,-1.7428,-1.7548,-1.7724,-1.7901,-1.7851,-1.7891,-1.7734,-1.7622,-1.7498,-1.7369,-1.7133,-1.6925,-1.6802,-1.6802,-1.6642,-1.6528,-1.6481,-1.6405,-1.6301,-1.6188,-1.6178,-1.6178,-1.6178,-1.6927,-1.7705,-1.825,-1.9929,-2.0959,-2.1649,-2.3732,-2.4545,0.2015,0.1688,0.1632,0.17,0.15,0.1278,0.1326,0.1343,0.0908,-0.0469,-0.1756,-0.2761,-0.2642,-0.2198,-0.2068,-0.278,-0.2834,-0.2891,-0.2942,-0.2924,-0.2915,-0.2935,-0.293,-0.2945,-0.2998,-0.3046,-0.3076,-0.3084,-0.3106,-0.3135,-0.3174,-0.3175,-0.3193,-0.323,-0.323,-0.323,-0.3433,-0.3433,-0.3433,-0.3635,-0.4038,-0.424,-0.424,-0.4645,-0.4847,-0.5047,-0.5013,-0.5395,-0.5792,-0.5762,-0.63,-0.7207,-0.8745,-0.9444,-1.0104,-1.064,-1.0751,-1.1021,-1.3707,-1.4289,-1.411,-1.5077,-1.4653,-1.4082,-1.5147,-1.5682,-1.6217,-1.7639,-1.8164,-1.8514,-1.8689,-1.8514,-1.8514,-1.8864,-1.8712,-1.8299,-1.813,-1.8192,-1.8026,-1.7529,-1.7779,-1.7908,-1.7757,-1.7851,-1.8012,-1.8154,-1.8229,-1.822,-1.8068,-1.7813,-1.7549,-1.7303,-1.7038,-1.6887,-1.6887,-1.684,-1.6708,-1.65,-1.6481,-1.6396,-1.6188,-1.6178,-1.632,-1.6734,-1.7851,-1.8821,-1.9785,-2.1859,-2.327,-2.3913,-2.5555,-2.6147,0.1728,0.1326,0.1027,0.1376,0.1731,0.166,0.032,0.0,-0.0482,-0.2304,-0.2646,-0.2649,-0.265,-0.2722,-0.2782,-0.2784,-0.2834,-0.2885,-0.2913,-0.2893,-0.2875,-0.2876,-0.2851,-0.2845,0.0,-0.2958,-0.3022,-0.3051,-0.3054,-0.3081,-0.3141,-0.3144,-0.3171,-0.3228,-0.323,-0.3433,-0.4038,-0.4038,-0.424,-0.4847,-0.4847,-0.4847,-0.4847,-0.4847,-0.5049,-0.5652,-0.5649,-0.6052,-0.645,-0.633,-0.7492,-0.93,-0.9232,-1.0321,-1.2494,-1.4825,-1.5245,-1.4745,-1.493,-1.6196,-1.7906,-1.7906,-1.8134,-1.8339,-1.8339,-1.8339,-1.8339,-1.8514,-1.8514,-1.8514,-1.903,-1.8864,-1.8689,-1.9572,-1.9414,-1.9029,-1.9166,-1.8966,-1.8607,-1.838,-1.8012,-1.7738,-1.7728,-1.7728,-1.7738,-1.7747,-1.7927,-1.8059,-1.805,-1.769,-1.7501,-1.769,-1.7341,-1.7095,-1.7095,-1.6916,-1.6708,-1.65,-1.6481,-1.6396,-1.6188,-1.6178,-1.6875,-1.8272,-1.8412,-2.0063,-2.3229,-2.3365,-2.4488,-2.6603,-2.6618,-2.6802,0.1623,0.1591,0.1269,0.0591,0.0615,0.0318,-0.1473,-0.0821,-0.0327,-0.1473,-0.2116,-0.2583,-0.2564,-0.2601,-0.2647,-0.2687,-0.2778,-0.286,-0.2909,-0.2908,-0.3061,-0.3175,-0.3175,0.0,0.0,0.0,0.0,-0.3017,-0.34,-0.3619,-0.3691,-0.3914,-0.4147,-0.4199,-0.4227,-0.4444,-0.4444,-0.4444,-0.4632,-0.4802,-0.52,-0.5618,-0.5856,-0.5819,-0.6022,-0.6251,-0.6135,-0.6889,-0.8303,-0.8833,-1.0109,-1.1936,-1.3698,-1.478,-1.5396,-1.7616,-1.8313,-1.8054,-1.7932,-1.8292,-1.8792,-1.8662,-1.8487,-1.8514,-1.8514,-1.8689,-1.903,-1.903,-1.9113,-1.9186,-1.9358,-1.9256,-1.9163,-1.9505,-1.9278,-1.9175,-1.9127,-1.8976,-1.8768,-1.8418,-1.8239,-1.8097,-1.7965,-1.7823,-1.7681,-1.7549,-1.7823,-1.7993,-1.7851,-1.7709,-1.7596,-1.753,-1.7398,-1.7312,-1.7312,-1.7123,-1.6972,-1.6897,-1.6774,-1.667,-1.6594,-1.6594,-1.724,-1.8638,-2.0048,-2.1745,-2.368,-2.5273,-2.628,-2.7108,-2.7247,-2.7447,0.1079,0.1142,0.0902,0.0157,-0.0483,-0.1314,-0.2494,-0.1827,-0.1155,-0.1632,-0.2076,-0.2345,-0.2472,-0.2465,-0.2497,-0.26,-0.2699,-0.2796,-0.3068,-0.3071,-0.3216,-0.3664,-0.3648,-0.382,0.0,0.0,0.0,-0.3558,-0.3945,-0.417,-0.4057,-0.4491,-0.4733,-0.4778,-0.4825,-0.4847,-0.5049,-0.5032,-0.52,-0.5349,-0.5742,-0.596,-0.6395,-0.6357,-0.6952,-0.7775,-0.7632,-0.8756,-1.094,-1.1284,-1.2521,-1.4474,-1.6138,-1.7215,-1.7957,-1.9471,-2.0037,-1.9834,-1.9525,-1.9488,-1.9248,-1.9115,-1.9079,-1.9039,-1.9039,-1.9214,-1.9388,-1.9388,-1.9587,-1.9599,-1.9599,-1.9448,-1.9316,-1.9392,-1.9401,-1.9373,-1.9231,-1.9146,-1.8985,-1.8645,-1.8456,-1.8314,-1.8182,-1.804,-1.7851,-1.7577,-1.7823,-1.7974,-1.7757,-1.7662,-1.7596,-1.7539,-1.753,-1.7501,-1.7435,-1.7369,-1.7265,-1.7114,-1.6982,-1.6878,-1.6802,-1.7526,-1.8456,-1.9866,-2.2007,-2.3722,-2.525,-2.6737,-2.7478,-2.7741,-2.8021,-2.8224,0.0,0.0,-0.0,-0.0164,-0.1492,-0.2661,-0.2687,-0.2671,-0.2638,-0.2602,-0.2497,-0.2252,0.0,0.0,-0.2345,-0.2523,-0.2608,-0.2872,-0.3563,-0.3559,-0.37,0.0,0.0,0.0,0.0,0.0,0.0,-0.4487,0.0,-0.4541,-0.4635,-0.4684,-0.4729,-0.4972,-0.4821,-0.5248,-0.5652,-0.5597,-0.594,-0.6281,-0.6275,-0.6471,-0.6474,-0.6471,-0.783,-1.0157,-1.0148,-1.1696,-1.4006,-1.3877,-1.5154,-1.686,-1.6898,-1.7973,-1.9851,-2.0214,-2.039,-2.039,-1.9843,-1.9777,-1.9806,-1.9806,-1.9897,-1.9921,-1.9921,-1.9921,-1.9921,-1.9921,-1.976,-1.9599,-1.9581,-1.9429,-1.9325,-1.9505,-1.9552,-1.9552,-1.9552,-1.9401,-1.9203,-1.9004,-1.8636,-1.8361,-1.8352,-1.8352,-1.821,-1.7804,-1.7908,-1.7955,-1.7738,-1.7539,-1.7501,-1.769,-1.7709,-1.7634,-1.7454,-1.7615,-1.7558,-1.7161,-1.7133,-1.7197,-1.6987,-1.8852,-2.0573,-2.2119,-2.414,-2.6003,-2.7725,-2.7741,-2.8192,-2.8789,-2.8789,-2.898,0.0,0.0,-0.033,-0.1673,-0.2362,-0.2706,-0.2668,-0.2637,-0.2589,-0.2491,-0.2209,-0.2101,0.0,0.0,0.0,-0.2889,-0.3415,0.0,-0.4107,-0.4146,0.0,-0.4535,0.0,-0.4936,-0.5276,-0.5301,0.0,0.0,-0.5187,-0.502,-0.516,-0.5601,-0.5851,-0.5907,-0.5965,-0.6014,-0.6259,-0.6156,-0.6098,-0.6278,-0.7012,-0.798,-0.8997,-0.9902,-1.1061,-1.2858,-1.2679,-1.3982,-1.5983,-1.6518,-1.7758,-1.9549,-2.002,-2.0536,-2.0779,-2.0795,-2.0739,-2.0739,-2.0556,-2.0389,-2.0355,-2.0355,-2.0084,-1.9921,-1.9921,-1.9921,-1.9921,-1.9921,-1.976,-1.9562,-1.941,-1.9212,-1.9032,-1.8938,-1.891,-1.891,-1.891,-1.8872,-1.8815,-1.8768,-1.8664,-1.8541,-1.838,-1.8352,-1.8267,-1.8002,-1.787,-1.7728,-1.753,-1.7454,-1.7445,-1.7492,-1.7501,-1.7539,-1.7643,-1.77,-1.7681,-1.7577,-1.8182,-1.8683,-1.95,-2.0511,-2.2191,-2.4453,-2.538,-2.6688,-2.8053,-2.8617,-2.8933,-2.9155,-2.9155,-2.9202,-0.0984,-0.1353,-0.1375,-0.2052,-0.2394,-0.2712,-0.2612,-0.2556,-0.2476,-0.2301,-0.2157,-0.2299,-0.2723,-0.3028,-0.3316,0.0,0.0,0.0,-0.4633,-0.469,-0.4875,0.0,-0.5373,0.0,-0.5769,-0.5777,-0.5845,0.0,-0.5739,-0.5567,-0.571,-0.5963,-0.6204,-0.6237,-0.6297,-0.6728,-0.7718,-0.7668,-0.8192,-0.9269,-0.9798,-1.0558,-1.1564,-1.2074,-1.3412,-1.5377,0.0,-1.6508,-1.8682,-1.9057,-1.9753,-2.0797,-2.1291,-2.1272,-2.114,-2.0922,-2.0837,-2.0828,-2.0743,-2.0573,-2.0412,-2.0516,-2.0261,-1.9921,-1.9921,-1.9921,-1.9921,-1.9921,-1.976,-1.9571,-1.9458,-1.9278,-1.9089,-1.8976,-1.8947,-1.8947,-1.8947,-1.8872,-1.8777,-1.8692,-1.8673,-1.8636,-1.8513,-1.8494,-1.8428,-1.821,-1.8394,-1.8554,-1.8184,-1.7693,-1.7578,-1.7873,-1.7961,-1.8182,-1.8662,-1.8752,-1.8762,-1.8672,-1.9121,-1.981,-2.0864,-2.2198,-2.3741,-2.5636,-2.6967,-2.8007,-2.8696,-2.9059,-2.9298,-2.9298,-2.9298,-2.9298,-0.2395,-0.2966,-0.2644,-0.1743,-0.2242,-0.2697,-0.2538,-0.2448,-0.2331,-0.222,-0.2188,-0.2538,-0.3689,-0.3793,-0.418,-0.5237,0.0,-0.509,-0.5314,-0.5373,-0.5414,-0.5886,-0.582,-0.5988,-0.6097,-0.6064,-0.6267,-0.6377,-0.6511,-0.6343,-0.628,-0.6522,-0.6746,-0.7147,-0.7216,-0.7994,-0.9833,-0.9915,-1.1013,-1.3069,-1.3069,-1.3445,-1.4202,-1.4202,-1.5702,-1.7957,0.0,0.0,-2.1168,-2.1168,-2.1168,-2.1168,-2.1168,-2.1168,-2.114,-2.0922,-2.0828,-2.0781,-2.0601,-2.0384,-2.0214,-2.0431,-2.0233,-1.9921,-1.9921,-1.9921,-1.9921,-1.9921,-1.9788,-1.9637,-1.9609,-1.9467,-1.9325,-1.9269,-1.9259,-1.925,-1.9221,-1.907,-1.8881,-1.8711,-1.8837,-1.8837,-1.8837,-1.9,-1.8933,-1.874,-1.9334,-1.9722,-1.9518,-1.8493,-1.8074,-1.8663,-1.8968,-1.9315,-1.9746,-2.007,-2.0102,-1.9898,-2.0038,-2.0759,-2.19,-2.3979,-2.5597,-2.6619,-2.8403,-2.9298,-2.9298,-2.9298,-2.9298,-2.9298,-2.9298,-2.9298,-0.2821,-0.284,-0.2822,-0.2616,-0.2588,-0.2686,-0.2485,-0.25,0.0,-0.2211,-0.2276,-0.2707,-0.3868,-0.4793,-0.5858,-0.7664,-0.7587,-0.7359,-0.7705,-0.6725,-0.605,0.0,-0.6568,-0.718,-0.7207,-0.7624,0.0,0.0,0.0,-0.8748,-0.7423,-0.8131,-0.9479,-1.1735,-1.1849,-1.224,-1.2875,-1.2898,-1.3026,-1.3451,-1.439,-1.5514,-1.683,-1.7584,-1.8905,-2.0603,0.0,0.0,-2.1168,-2.1168,-2.1168,-2.1168,-2.1168,-2.1168,-2.114,-2.0922,-2.0733,-2.0592,-2.0554,-2.0289,-2.0006,-2.0214,-2.011,-1.9921,-1.9921,-1.9921,-1.9921,-1.9921,-1.9892,-1.9826,-1.9647,-1.9571,-1.9458,-1.9108,-1.9032,-1.8985,-1.8825,-1.8749,-1.8721,-1.8683,-1.9316,-1.9805,-1.9805,-2.0444,-2.092,-2.0878,-2.0708,-2.0729,-2.0686,-2.0114,-1.9817,-1.997,-1.969,-1.981,-2.0113,-2.0167,-2.0167,-2.0134,-2.1638,-2.3029,-2.3992,-2.5904,-2.7535,-2.8707,-2.9138,-2.9298,-2.9298,-2.9298,-2.9298,-2.9298,-2.9298,-2.9298,-0.2649,-0.2852,-0.2845,-0.2814,-0.2761,-0.2643,-0.2517,0.0,0.0,-0.2819,-0.2924,-0.361,-0.5257,-0.5927,-0.6754,-0.8402,-0.8511,-0.8521,-0.9264,-0.891,-0.8919,-0.9317,-0.9321,-0.9609,0.0,-1.0124,0.0,0.0,0.0,-1.1115,-0.9611,-1.0742,-1.1908,-1.334,-1.3477,-1.405,-1.5242,-1.5316,-1.5849,-1.7204,-1.7584,-1.8338,-1.9471,-1.9851,-2.0417,-2.1168,-2.1168,0.0,-2.1159,-2.1045,-2.0998,-2.0989,-2.0885,-2.0847,-2.0818,-2.0601,-2.0459,-2.0355,-2.0783,-2.0783,-2.0801,-2.1249,-2.0695,-1.9921,-1.9921,-1.9921,-1.9921,-1.9921,-1.9921,-1.9892,-1.9798,-1.977,-1.9828,-1.9735,-1.996,-2.0089,-2.015,-2.013,-2.013,-2.013,-2.0444,-2.0607,-2.0607,-2.1092,-2.1254,-2.1254,-2.164,-2.1734,-2.1734,-2.1885,-2.1613,-2.1167,-2.078,-2.0832,-2.1402,-2.13,-2.1231,-2.1231,-2.2717,-2.4136,-2.5171,-2.6648,-2.813,-2.9298,-2.9298,-2.9298,-2.9298,-2.9298,-2.9298,-2.9298,-2.9298,-2.9298,-0.2634,-0.2851,-0.2866,-0.2829,-0.275,-0.2597,-0.2549,-0.2607,-0.2836,-0.3367,-0.3774,-0.4594,-0.6587,-0.7112,-0.7706,0.0,-0.9268,-0.9666,-1.0578,-1.1031,-1.1623,-1.2479,-1.2193,0.0,-1.3561,-1.2749,0.0,0.0,0.0,0.0,-1.2242,-1.3722,-1.4752,-1.4892,-1.5033,-1.6003,-1.7584,-1.7718,-1.8665,-2.0594,-2.0594,-2.0788,-2.1168,-2.1168,-2.1149,-2.1102,-2.1102,0.0,0.0,-2.0847,-2.0781,-2.0762,-2.0601,-2.0544,-2.0526,-2.0524,-2.0606,-2.0548,-2.1423,-2.169,-2.1649,-2.2514,-2.1649,-2.0434,-2.0434,-2.0434,-2.0434,-2.0434,-2.0434,-2.0434,-2.0434,-2.0434,-2.051,-2.0966,-2.1179,-2.133,-2.133,-2.1286,-2.1254,-2.1254,-2.1416,-2.1577,-2.1577,-2.1739,-2.19,-2.19,-2.2395,-2.2889,-2.2889,-2.3194,-2.3139,-2.2298,-2.1997,-2.1965,-2.2742,-2.2549,-2.2578,-2.2867,-2.3851,-2.4985,-2.631,-2.7274,-2.8274,-2.9298,-2.9298,-2.9298,-2.9298,-2.9298,-2.9298,-2.9298,-2.9298,-2.9298,-0.2804,-0.2851,-0.286,-0.2801,-0.2718,-0.2564,-0.2514,-0.3158,-0.3613,-0.3655,-0.4424,-0.5622,-0.7337,-0.7909,0.0,0.0,0.0,-1.1304,-1.2543,-1.2174,-1.2049,-1.2403,0.0,0.0,-1.4531,-1.474,0.0,0.0,0.0,0.0,0.0,-1.6957,-1.828,-1.9402,-1.9763,-2.0046,-2.0788,-2.0807,-2.0816,-2.1168,-2.1168,-2.1168,-2.1168,-2.1168,-2.1064,-2.0875,0.0,0.0,0.0,-2.0573,-2.0573,-2.0563,-2.0554,-2.0544,-2.0535,-2.1412,-2.163,-2.1615,-2.2473,-2.2684,-2.2514,-2.2686,-2.2514,-2.2514,-2.2514,-2.2514,-2.2514,-2.2514,-2.2514,-2.2514,-2.2514,-2.2514,-2.2439,-2.2352,-2.1933,-2.1588,-2.1588,-2.1416,-2.1254,-2.1254,-2.1911,-2.2406,-2.2406,-2.3038,-2.352,-2.352,-2.368,-2.368,-2.368,-2.3668,-2.3804,-2.3608,-2.3152,-2.3007,-2.3007,-2.2983,-2.3421,-2.4635,-2.5445,-2.6503,-2.7821,-2.8718,-2.9154,-2.9298,-2.9298,-2.9298,-2.9298,-2.9298,-2.9298,-2.9298,-2.9298,-2.9298,-0.274,-0.2998,-0.3394,-0.3323,-0.3192,-0.3447,-0.3804,-0.4007,-0.4296,-0.5374,-0.5882,-0.6505,-0.7987,-0.8487,-0.9107,0.0,0.0,0.0,-1.3112,-1.3441,-1.4123,-1.565,-1.5747,0.0,0.0,0.0,0.0,0.0,0.0,0.0,0.0,-1.9059,-1.9834,-2.0305,-2.038,-2.0599,-2.079,-2.079,-2.079,-2.079,-2.079,-2.079,-2.079,-2.079,-2.0743,-2.0658,0.0,0.0,0.0,-2.0928,-2.1235,-2.1215,-2.1615,-2.174,-2.1916,-2.2266,-2.2378,-2.2468,-2.3336,-2.3626,-2.3548,-2.4235,-2.4407,-2.4064,-2.3031,-2.2686,-2.2686,-2.2686,-2.2686,-2.2686,-2.2686,-2.2922,-2.3302,-2.3201,-2.3245,-2.3445,-2.3295,-2.3179,-2.3051,-2.2901,-2.3038,-2.3371,-2.3371,-2.352,-2.384,-2.384,-2.384,-2.384,-2.384,-2.384,-2.384,-2.384,-2.3514,-2.3285,-2.3285,-2.3903,-2.4406,-2.4866,-2.6584,-2.7865,-2.8313,-2.9392,-2.9901,-2.9901,-2.9901,-2.9901,-2.9901,-2.9901,-2.9901,-2.9901,-2.9901,-2.9901,-0.3012,-0.3479,-0.3716,-0.3639,-0.3954,-0.4411,-0.4898,-0.5039,-0.5444,-0.6774,-0.7009,-0.7414,-0.8532,-0.8826,-0.9198,0.0,0.0,-1.1659,-1.3435,-1.4295,-1.5489,-1.736,0.0,0.0,0.0,0.0,0.0,0.0,0.0,0.0,0.0,-2.0195,-2.0384,-2.044,-2.0507,-2.0544,-2.0544,-2.0544,-2.0544,-2.0544,-2.0544,-2.0544,-2.0544,-2.0544,-2.0686,-2.0798,0.0,0.0,0.0,-2.1771,-2.1875,-2.2039,-2.2578,-2.2686,-2.2686,-2.3031,-2.3031,-2.3204,-2.4235,-2.4407,-2.4578,-2.5263,-2.5433,-2.5092,-2.3892,-2.3548,-2.3548,-2.3548,-2.3548,-2.3548,-2.3548,-2.3926,-2.414,-2.414,-2.4388,-2.4576,-2.4395,-2.4226,-2.4069,-2.3876,-2.384,-2.384,-2.384,-2.384,-2.384,-2.384,-2.384,-2.384,-2.384,-2.384,-2.384,-2.384,-2.3683,-2.3562,-2.3562,-2.4465,-2.5268,-2.5732,-2.764,-2.8958,-2.9259,-2.9915,-3.0315,-3.0315,-3.0315,-3.0315,-3.0315,-3.0315,-3.0315,-3.0315,-3.0315,-3.0315,-0.3944,-0.4105,-0.4152,-0.4064,-0.4631,-0.5281,-0.5185,-0.6266,-0.7248,-0.7325,-0.7732,-0.824,-0.8602,-0.8873,-0.9294,-1.0178,-1.1142,0.0,-1.3514,-1.4581,-1.5545,0.0,0.0,-1.7776,0.0,0.0,0.0,0.0,0.0,0.0,0.0,-1.9921,-2.0015,-2.0214,-2.0431,-2.0544,-2.0544,-2.0544,-2.0544,-2.0544,-2.0544,-2.0544,-2.0544,-2.0544,-2.0957,0.0,0.0,0.0,0.0,-2.2686,-2.2686,-2.2686,-2.2686,-2.2686,-2.2859,-2.372,-2.4064,-2.4235,-2.5092,-2.5433,-2.5433,-2.5433,-2.5433,-2.5433,-2.5433,-2.5433,-2.5433,-2.5433,-2.5433,-2.5433,-2.5433,-2.5433,-2.5433,-2.5433,-2.5023,-2.4625,-2.4625,-2.4214,-2.3852,-2.384,-2.384,-2.384,-2.384,-2.384,-2.384,-2.384,-2.384,-2.384,-2.384,-2.384,-2.384,-2.384,-2.384,-2.384,-2.384,-2.4945,-2.6201,-2.7435,-2.8395,-2.961,-3.0855,-3.0505,-3.0315,-3.0315,-3.0315,-3.0315,-3.0315,-3.0315,-3.0315,-3.0315,-3.0315,-3.0315,-0.4578,-0.568,-0.6427,-0.5628,-0.6348,-0.7257,-0.76,-0.7718,-0.7882,-0.8388,-0.8365,-0.8394,-0.883,-0.9034,-0.9583,-1.0735,-1.1302,0.0,0.0,0.0,0.0,-1.5942,-1.7933,-1.9639,0.0,0.0,0.0,0.0,0.0,0.0,0.0,-2.1649,-2.1332,-2.0015,-2.0081,-2.0461,-2.0988,-2.0988,-2.1339,-2.2029,-2.2029,-2.2029,-2.2029,-2.2029,0.0,0.0,0.0,0.0,0.0,-2.3376,-2.372,-2.372,-2.4235,-2.4578,-2.4578,-2.4921,-2.4921,-2.5092,-2.5263,-2.5433,-2.5433,-2.5433,-2.5433,-2.5433,-2.5433,-2.5433,-2.5433,-2.5433,-2.5433,-2.5433,-2.5433,-2.5433,-2.5433,-2.5433,-2.5301,-2.5083,-2.4709,-2.4492,-2.4275,-2.3913,-2.384,-2.384,-2.384,-2.384,-2.384,-2.384,-2.384,-2.384,-2.384,-2.384,-2.384,-2.384,-2.4639,-2.5104,-2.5104,-2.6201,-2.7605,-2.8856,-3.0022,-3.0761,-3.122,-3.1109,-3.1045,-3.1045,-3.1045,-3.1045,-3.1045,-3.1045,-3.1045,-3.1045,-3.1045,-3.1045,-0.5953,-0.6953,-0.7836,-0.7062,-0.7755,-0.8624,-0.8876,-0.8664,-0.8663,-0.8989,-0.876,-0.8598,-0.8883,-0.9072,-0.9516,-1.0461,-1.1057,0.0,0.0,0.0,0.0,-1.6907,0.0,0.0,0.0,0.0,0.0,0.0,0.0,0.0,0.0,0.0,-2.2168,-2.0955,-2.0955,-2.1302,-2.1822,-2.1822,-2.2168,-2.2686,-2.2686,-2.2686,-2.2686,-2.2686,0.0,0.0,0.0,0.0,0.0,-2.4407,-2.4578,-2.4578,-2.5263,-2.5433,-2.5433,-2.5433,-2.5433,-2.5433,-2.5433,-2.5433,-2.5433,-2.5433,-2.5433,-2.5433,-2.5433,-2.5433,-2.5433,-2.5433,-2.5433,-2.5433,-2.5433,-2.5433,-2.5433,-2.5433,-2.5361,-2.5168,-2.4721,-2.4552,-2.4347,-2.3925,-2.384,-2.384,-2.384,-2.384,-2.384,-2.384,-2.384,-2.384,-2.384,-2.384,-2.4,-2.448,-2.5263,-2.6056,-2.6991,-2.7919,-2.87,-2.9493,-3.0763,-3.1395,-3.1395,-3.1395,-3.1395,-3.1395,-3.1395,-3.1395,-3.1395,-3.1395,-3.1395,-3.1395,-3.1395,-3.1395,0.0,-0.8082,-0.8383,-0.8253,-0.889,-0.9328,-0.9105,-0.9268,0.0,-0.9384,-0.8978,-0.8713,-0.8741,-0.8989,-0.9204,-0.9677,-1.0696,0.0,0.0,-1.4436,0.0,0.0,0.0,0.0,0.0,0.0,0.0,0.0,0.0,0.0,0.0,0.0,-2.2804,-2.2804,-2.2804,-2.2815,-2.2859,-2.2859,-2.2859,-2.2859,-2.2859,-2.2859,-2.2859,-2.2859,0.0,0.0,0.0,0.0,0.0,-2.5433,-2.5433,-2.5433,-2.5433,-2.5433,-2.5433,-2.5433,-2.5433,-2.5433,-2.5433,-2.5433,-2.5433,-2.5433,-2.5433,-2.5433,-2.5433,-2.5433,-2.5433,-2.5433,-2.5433,-2.5433,-2.5433,-2.5433,-2.5433,-2.5409,-2.5216,-2.4963,-2.4661,-2.4407,-2.4154,-2.39,-2.384,-2.384,-2.384,-2.384,-2.384,-2.384,-2.384,-2.384,-2.384,-2.384,-2.432,-2.5581,-2.5898,-2.6991,-2.9338,-2.9493,-2.9493,-2.9649,-3.0763,-3.1395,-3.1395,-3.1395,-3.1395,-3.1395,-3.1395,-3.1395,-3.1395,-3.1395,-3.1395,-3.1395,-3.1395,-3.1395,-0.8917,0.0,-0.9965,-0.9035,-0.9522,-1.0246,0.0,-0.9632,-0.9601,-0.9577,-0.9203,-0.9048,-0.9528,-0.9797,-1.0272,-1.1218,0.0,0.0,-1.3961,0.0,0.0,0.0,0.0,0.0,0.0,0.0,0.0,0.0,0.0,0.0,0.0,0.0,-2.415,-2.415,-2.415,-2.4001,-2.372,-2.372,-2.4064,-2.4749,-2.4749,-2.4749,-2.4749,-2.4749,0.0,0.0,0.0,0.0,-2.5433,-2.5433,-2.5433,-2.5433,-2.5433,-2.5433,-2.5433,-2.5433,-2.5433,-2.5433,-2.5433,-2.5433,-2.5433,-2.5433,-2.5433,-2.5433,-2.5433,-2.5433,-2.5433,-2.5433,-2.5433,-2.5433,-2.5433,-2.5433,-2.5385,-2.5192,-2.5096,-2.4914,-2.4432,-2.4275,-2.4154,-2.39,-2.384,-2.384,-2.384,-2.384,-2.384,-2.384,-2.384,-2.384,-2.384,-2.4639,-2.5422,-2.574,-2.7462,-2.8871,-2.9493,-2.9493,-2.9974,-3.0917,-3.1225,-3.1395,-3.1395,-3.1395,-3.1395,-3.1395,-3.1395,-3.1395,-3.1395,-3.1395,-3.1395,-3.1395,-3.1395,-3.1395,-0.9507,-1.0098,-1.0469,-0.9877,-1.0131,-1.0467,-1.0416,-0.9969,-0.9614,-0.9843,-0.9627,-0.9576,-1.0005,-1.0405,0.0,0.0,-1.294,0.0,0.0,0.0,0.0,0.0,0.0,0.0,0.0,0.0,0.0,0.0,0.0,0.0,0.0,0.0,-2.4625,-2.4625,-2.4625,-2.4437,-2.4385,-2.4385,-2.4554,-2.5059,-2.5059,-2.5059,-2.5059,-2.5059,0.0,0.0,0.0,0.0,-2.5059,-2.5059,-2.5059,-2.5059,-2.5059,-2.5144,-2.5252,-2.5252,-2.5337,-2.5433,-2.5433,-2.5361,-2.524,-2.5108,-2.5059,-2.5059,-2.5059,-2.5059,-2.512,-2.5361,-2.5433,-2.5433,-2.5433,-2.5433,-2.5373,-2.5108,-2.5047,-2.4902,-2.4347,-2.4238,-2.4154,-2.39,-2.384,-2.384,-2.384,-2.384,-2.384,-2.384,-2.384,-2.384,-2.384,-2.4945,-2.5898,-2.6517,-2.8388,-2.9804,-3.0284,-3.0438,-3.0608,-3.1395,-3.1395,-3.1395,-3.1395,-3.1395,-3.1395,-3.1395,-3.1395,-3.1395,-3.1395,-3.1395,-3.1395,-3.1395,-3.1395,-3.1395,-0.9927,-1.0463,-1.0692,-1.0534,-1.0529,-1.0522,-1.0721,-1.0292,-0.9894,-1.0326,0.0,0.0,0.0,-1.1018,0.0,0.0,0.0,0.0,0.0,0.0,0.0,0.0,0.0,0.0,0.0,0.0,0.0,0.0,0.0,0.0,0.0,0.0,0.0,-2.4504,-2.4504,-2.4504,-2.4504,-2.4589,-2.4625,-2.4625,-2.4625,-2.4625,-2.4625,-2.4625,0.0,0.0,0.0,0.0,-2.4625,-2.4625,-2.4625,-2.4625,-2.4625,-2.477,-2.4987,-2.4987,-2.512,-2.5313,-2.5313,-2.5168,-2.4939,-2.4709,-2.4625,-2.4625,-2.4625,-2.4625,-2.4721,-2.518,-2.5349,-2.5373,-2.5373,-2.5373,-2.5313,-2.5047,-2.4951,-2.4782,-2.4287,-2.4178,-2.4106,-2.3888,-2.384,-2.384,-2.384,-2.384,-2.384,-2.384,-2.384,-2.384,-2.4,-2.5263,-2.6517,-2.7762,-2.9012,-3.0284,-3.1379,-3.1533,-3.1533,-3.1533,-3.1533,-3.1686,-3.1686,-3.1686,-3.1702,-3.1533,-3.1549,-3.1395,-3.1395,-3.1395,-3.1395,-3.1395,-3.1395,-3.1395,-1.0685,-1.1251,-1.1295,-1.0469,-1.0727,-1.0967,-1.0504,-1.0564,-1.0821,0.0,0.0,0.0,0.0,-1.2503,-1.3171,0.0,0.0,0.0,0.0,0.0,0.0,0.0,0.0,0.0,0.0,0.0,0.0,0.0,0.0,0.0,0.0,0.0,0.0,-2.3961,-2.3961,-2.3961,-2.3961,-2.4407,-2.4625,-2.4625,-2.4625,-2.4625,-2.4625,-2.4625,-2.4625,0.0,0.0,-2.4625,-2.4625,-2.4625,-2.4625,-2.4625,-2.4625,-2.4649,-2.4685,-2.4685,-2.4721,-2.4745,-2.4745,-2.4721,-2.4685,-2.4637,-2.4625,-2.4625,-2.4625,-2.4625,-2.4637,-2.4721,-2.4927,-2.5108,-2.5108,-2.5108,-2.5035,-2.4758,-2.4516,-2.4275,-2.3973,-2.39,-2.3888,-2.3852,-2.384,-2.384,-2.384,-2.384,-2.384,-2.384,-2.384,-2.416,-2.5263,-2.6517,-2.7762,-2.9027,-3.0284,-3.1225,-3.1395,-3.1993,-3.2452,-3.2452,-3.2452,-3.274,-3.3348,-3.3044,-3.274,-3.2452,-3.2146,-3.1686,-3.1395,-3.1395,-3.1395,-3.1395,-3.1395,-3.1395,-1.0628,-1.1101,-1.1488,-1.1446,-1.1822,-1.2042,-1.1661,-1.1717,-1.1895,0.0,0.0,0.0,0.0,0.0,-1.5053,-1.6961,0.0,0.0,0.0,0.0,0.0,0.0,0.0,0.0,0.0,0.0,0.0,0.0,0.0,0.0,0.0,0.0,0.0,0.0,-2.384,-2.384,-2.384,-2.4082,-2.4202,-2.4202,-2.4202,-2.4202,-2.4202,-2.4202,-2.4202,-2.4202,0.0,-2.4202,-2.4202,-2.4202,-2.4202,-2.4202,-2.4202,-2.4287,-2.4432,-2.4576,-2.4625,-2.4601,-2.4468,-2.442,-2.4395,-2.4251,-2.4202,-2.4202,-2.4202,-2.4202,-2.4202,-2.4202,-2.4504,-2.4818,-2.4818,-2.4818,-2.4758,-2.448,-2.4323,-2.4166,-2.39,-2.384,-2.384,-2.384,-2.384,-2.384,-2.384,-2.384,-2.384,-2.384,-2.432,-2.5104,-2.5581,-2.7449,-2.8856,-2.9493,-3.0593,-3.1395,-3.1395,-3.1993,-3.2588,-3.3196,-3.3196,-3.3348,-3.3802,-3.3651,-3.35,-3.3196,-3.3044,-3.274,-3.2452,-3.2146,-3.1993,-3.1686,-3.1549,-3.1395,-1.0904,-1.1295,-1.177,-1.2457,-1.2836,-1.3031,-1.3142,-1.3067,-1.3109,0.0,0.0,0.0,0.0,-1.5113,0.0,0.0,0.0,0.0,0.0,0.0,0.0,0.0,0.0,0.0,0.0,0.0,0.0,0.0,0.0,0.0,0.0,0.0,0.0,0.0,-2.3695,-2.3659,-2.3659,-2.3719,-2.378,-2.384,-2.384,-2.384,-2.384,-2.384,-2.384,-2.384,-2.384,-2.384,-2.384,-2.384,-2.384,-2.384,-2.384,-2.3973,-2.4166,-2.4371,-2.4444,-2.442,-2.4214,-2.4142,-2.4106,-2.3913,-2.384,-2.384,-2.384,-2.384,-2.384,-2.384,-2.413,-2.4456,-2.4516,-2.454,-2.448,-2.4287,-2.419,-2.4094,-2.3888,-2.384,-2.384,-2.384,-2.384,-2.384,-2.384,-2.384,-2.384,-2.416,-2.5104,-2.5898,-2.6517,-2.8246,-2.9649,-2.9959,-3.1071,-3.184,-3.2146,-3.2604,-3.3196,-3.4255,-3.4406,-3.4406,-3.4406,-3.4255,-3.4255,-3.4105,-3.3954,-3.3802,-3.3348,-3.3044,-3.274,-3.2452,-3.1993,-3.184,-1.2314,-1.2553,-1.2721,-1.3261,-1.3247,-1.3321,-1.4366,-1.4554,0.0,-1.5511,0.0,0.0,0.0,-1.6646,0.0,0.0,0.0,0.0,0.0,0.0,0.0,0.0,0.0,0.0,0.0,0.0,0.0,0.0,0.0,0.0,0.0,0.0,0.0,0.0,0.0,-2.3104,-2.3104,-2.3357,-2.3599,-2.384,-2.384,-2.384,-2.384,-2.384,-2.384,-2.384,-2.384,-2.384,-2.384,-2.384,-2.384,-2.384,-2.384,-2.3852,-2.3876,-2.3888,-2.39,-2.39,-2.3876,-2.3876,-2.3876,-2.3852,-2.384,-2.384,-2.384,-2.384,-2.384,-2.384,-2.3876,-2.3949,-2.4202,-2.4263,-2.4263,-2.4238,-2.4045,-2.3864,-2.3852,-2.384,-2.384,-2.384,-2.384,-2.384,-2.384,-2.384,-2.416,-2.5422,-2.5581,-2.6517,-2.8871,-2.9338,-2.9959,-3.1071,-3.1993,-3.3044,-3.4556,-3.4707,-3.5157,-3.5903,-3.6052,-3.6052,-3.6052,-3.5605,-3.5306,-3.4857,-3.4556,-3.4105,-3.3802,-3.3802,-3.3651,-3.3651,-3.3196,-3.2892,-1.189,-1.2337,-1.2868,-1.358,-1.404,0.0,0.0,-1.5755,-1.6368,-1.6996,-1.7044,0.0,0.0,0.0,0.0,0.0,0.0,0.0,0.0,0.0,0.0,0.0,0.0,0.0,0.0,0.0,0.0,0.0,0.0,0.0,0.0,0.0,0.0,0.0,0.0,-2.3043,-2.3043,-2.3152,-2.3249,-2.3345,-2.3683,-2.384,-2.384,-2.384,-2.384,-2.384,-2.384,-2.384,-2.384,-2.384,-2.384,-2.384,-2.384,-2.384,-2.384,-2.384,-2.384,-2.384,-2.384,-2.384,-2.384,-2.384,-2.384,-2.384,-2.384,-2.384,-2.384,-2.384,-2.384,-2.3864,-2.3961,-2.3985,-2.3985,-2.3985,-2.3913,-2.384,-2.384,-2.384,-2.384,-2.384,-2.384,-2.384,-2.384,-2.448,-2.5104,-2.5581,-2.6991,-2.8403,-2.9338,-3.0129,-3.0917,-3.1395,-3.184,-3.274,-3.4105,-3.4556,-3.5007,-3.5754,-3.6052,-3.6201,-3.6201,-3.6052,-3.5903,-3.5754,-3.5605,-3.5306,-3.4857,-3.4707,-3.4406,-3.4105,-3.35,-3.3044,-1.1673,-1.2047,-1.2626,-1.335,-1.4256,0.0,-1.5849,-1.6767,-1.7672,-1.8372,-1.83,-1.8215,-1.8493,0.0,0.0,0.0,0.0,0.0,0.0,0.0,0.0,0.0,0.0,0.0,0.0,0.0,0.0,0.0,0.0,0.0,0.0,0.0,0.0,0.0,0.0,0.0,-2.279,-2.2874,-2.2923,-2.2923,-2.3381,-2.3587,-2.3587,-2.3587,-2.3587,-2.3587,-2.3587,-2.3647,-2.3719,-2.3719,-2.3768,-2.384,-2.384,-2.384,-2.384,-2.384,-2.384,-2.384,-2.384,-2.384,-2.384,-2.384,-2.384,-2.384,-2.384,-2.384,-2.384,-2.384,-2.384,-2.384,-2.384,-2.384,-2.384,-2.384,-2.384,-2.384,-2.384,-2.384,-2.384,-2.384,-2.384,-2.4,-2.432,-2.5104,-2.5898,-2.6833,-2.8403,-2.9649,-3.0129,-3.0917,-3.1533,-3.2146,-3.2452,-3.3044,-3.4406,-3.4857,-3.5157,-3.5754,-3.6052,-3.6201,-3.6201,-3.6201,-3.6201,-3.6201,-3.6201,-3.6052,-3.5754,-3.5456,-3.5306,-3.5007,-3.4255,-3.3651,-1.1986,-1.1926,-1.2059,-1.259,0.0,0.0,-1.6742,-1.7732,-1.8613,-1.9676,-1.9253,-1.8782,-1.9036,0.0,0.0,0.0,0.0,0.0,0.0,0.0,0.0,0.0,0.0,0.0,0.0,0.0,0.0,0.0,0.0,0.0,0.0,0.0,0.0,0.0,0.0,0.0,-2.2259,-2.2524,-2.2645,-2.2657,-2.2911,-2.3031,-2.3043,-2.3043,-2.3043,-2.3043,-2.3043,-2.32,-2.3454,-2.3454,-2.3599,-2.384,-2.384,-2.384,-2.384,-2.384,-2.384,-2.384,-2.384,-2.384,-2.384,-2.384,-2.384,-2.384,-2.384,-2.384,-2.384,-2.384,-2.384,-2.384,-2.384,-2.384,-2.384,-2.384,-2.384,-2.384,-2.384,-2.384,-2.384,-2.384,-2.384,-2.416,-2.5422,-2.574,-2.6517,-2.9182,-2.9493,-2.9974,-3.1225,-3.1395,-3.1993,-3.3651,-3.3802,-3.4406,-3.6052,-3.6201,-3.6201,-3.6201,-3.6201,-3.6201,-3.6201,-3.6201,-3.6201,-3.6201,-3.6201,-3.6201,-3.6201,-3.6201,-3.6201,-3.6201,-3.5754,-3.5139,-1.1479,-1.218,0.0,-1.3688,0.0,0.0,0.0,-1.8819,0.0,0.0,-2.0231,-1.9772,-1.9664,0.0,0.0,0.0,0.0,0.0,0.0,0.0,0.0,0.0,0.0,0.0,0.0,0.0,0.0,0.0,0.0,0.0,0.0,0.0,0.0,0.0,0.0,0.0,-2.3005,-2.308,-2.3117,-2.283,-2.2904,-2.2986,-2.3043,-2.3043,-2.3043,-2.3043,-2.3043,-2.3092,-2.3164,-2.3164,-2.3321,-2.3575,-2.3575,-2.3683,-2.384,-2.384,-2.384,-2.384,-2.384,-2.384,-2.384,-2.384,-2.384,-2.384,-2.384,-2.384,-2.384,-2.384,-2.384,-2.384,-2.384,-2.384,-2.384,-2.384,-2.384,-2.384,-2.384,-2.384,-2.384,-2.384,-2.448,-2.5263,-2.5581,-2.7148,-2.8559,-2.9338,-3.0284,-3.0917,-3.1395,-3.184,-3.2604,-3.3348,-3.3954,-3.4707,-3.5754,-3.5754,-3.5903,-3.6201,-3.6201,-3.6201,-3.6201,-3.6201,-3.6072,-3.5797,-3.5797,-3.565,-3.5375,-3.5375,-3.5375,-3.5375,-3.4939,-3.4501,-1.1805,-1.2687,0.0,-1.4594,-1.5861,-1.737,-1.9024,0.0,0.0,0.0,0.0,-2.0527,0.0,0.0,0.0,0.0,0.0,0.0,0.0,0.0,0.0,0.0,0.0,0.0,0.0,0.0,0.0,0.0,0.0,0.0,0.0,0.0,0.0,0.0,0.0,0.0,-2.2978,-2.3138,-2.3138,-2.299,-2.3103,-2.3179,-2.3187,-2.2882,-2.273,-2.2742,-2.2838,-2.2887,-2.2899,-2.2995,-2.314,-2.3285,-2.3285,-2.3381,-2.3538,-2.3647,-2.3683,-2.3707,-2.3804,-2.384,-2.384,-2.384,-2.384,-2.384,-2.384,-2.384,-2.384,-2.384,-2.384,-2.384,-2.384,-2.384,-2.384,-2.384,-2.384,-2.384,-2.384,-2.384,-2.384,-2.384,-2.4786,-2.5898,-2.636,-2.8076,-2.9649,-3.0129,-3.0917,-3.1549,-3.184,-3.2299,-3.2892,-3.3802,-3.4406,-3.5007,-3.5754,-3.5903,-3.5903,-3.6201,-3.6201,-3.6201,-3.6201,-3.6054,-3.5852,-3.5632,-3.5467,-3.5265,-3.5027,-3.5027,-3.5027,-3.5027,-3.4739,-3.4577,-1.2542,-1.3278,0.0,-1.5306,-1.6284,0.0,-1.9446,-2.0291,-2.095,-2.1722,0.0,0.0,0.0,0.0,0.0,0.0,0.0,0.0,0.0,0.0,0.0,0.0,0.0,0.0,0.0,0.0,0.0,0.0,0.0,0.0,0.0,0.0,0.0,0.0,0.0,0.0,-2.2556,-2.2847,-2.2993,0.0,-2.3248,-2.3375,-2.3375,-2.2682,-2.2408,-2.242,-2.2512,-2.2621,-2.2633,-2.2874,-2.2983,-2.3007,-2.3007,-2.3019,-2.308,-2.3321,-2.3418,-2.3454,-2.3683,-2.3768,-2.378,-2.3804,-2.3804,-2.3816,-2.384,-2.384,-2.384,-2.384,-2.384,-2.384,-2.384,-2.384,-2.384,-2.384,-2.384,-2.384,-2.384,-2.384,-2.4,-2.4,-2.5104,-2.636,-2.7605,-2.8856,-3.0129,-3.1225,-3.1395,-3.1686,-3.2452,-3.2588,-3.3348,-3.4857,-3.5007,-3.5456,-3.6201,-3.6201,-3.6201,-3.6201,-3.6201,-3.6182,-3.6164,-3.5815,-3.5595,-3.5559,-3.5174,-3.4954,-3.4917,-3.4917,-3.4917,-3.506,-3.506,-3.547,-1.183,-1.3133,0.0,0.0,-1.7672,-1.9443,-2.017,-2.0687,-2.1106,-2.1368,0.0,0.0,0.0,0.0,0.0,0.0,0.0,0.0,0.0,0.0,0.0,0.0,0.0,0.0,0.0,0.0,0.0,0.0,0.0,0.0,0.0,0.0,0.0,0.0,0.0,-2.3145,-2.3432,-2.3575,-2.3432,0.0,-2.3209,-2.3091,-2.2815,-2.31,-2.3005,-2.2707,-2.2469,-2.2343,-2.2343,-2.2404,-2.2549,-2.2742,-2.2742,-2.2862,-2.3056,-2.3104,-2.3128,-2.314,-2.32,-2.3212,-2.3249,-2.3466,-2.3538,-2.3575,-2.378,-2.384,-2.384,-2.384,-2.384,-2.384,-2.384,-2.384,-2.384,-2.384,-2.384,-2.384,-2.384,-2.4639,-2.5263,-2.5263,-2.7148,-2.8715,-2.9027,-3.0129,-3.1071,-3.1395,-3.1395,-3.1686,-3.2452,-3.3196,-3.3954,-3.4857,-3.5605,-3.6052,-3.6201,-3.6201,-3.6201,-3.6201,-3.6201,-3.6072,-3.576,-3.5669,-3.5467,-3.5174,-3.4752,-3.4385,-3.4073,-3.4073,-3.4473,-3.5287,-3.5287,-3.5838,-1.2155,0.0,0.0,-1.6851,0.0,-1.9978,-2.0108,-2.0772,-2.1295,0.0,0.0,0.0,0.0,0.0,0.0,0.0,0.0,0.0,0.0,0.0,0.0,0.0,0.0,0.0,0.0,0.0,0.0,0.0,0.0,0.0,0.0,0.0,0.0,0.0,-2.3067,-2.313,-2.3271,-2.3413,-2.3413,-2.3271,-2.3417,-2.334,-2.321,-2.3203,-2.31,-2.2965,-2.2657,-2.2558,-2.2558,-2.2408,-2.2343,-2.2464,-2.2464,-2.2549,-2.2681,-2.2814,-2.2862,-2.2874,-2.2995,-2.3043,-2.3068,-2.3212,-2.3261,-2.3285,-2.3418,-2.3454,-2.349,-2.3623,-2.3659,-2.3683,-2.3816,-2.384,-2.384,-2.384,-2.384,-2.384,-2.384,-2.4786,-2.574,-2.574,-2.7776,-2.9493,-2.9493,-3.0593,-3.1533,-3.1993,-3.1993,-3.2452,-3.3651,-3.4105,-3.4707,-3.5456,-3.5903,-3.6201,-3.6201,-3.6201,-3.6201,-3.6201,-3.6036,-3.5834,-3.5632,-3.5247,-3.4935,-3.4733,-3.433,-3.4297,-3.4609,-3.4609,-3.5158,-3.6228,-3.6228,-3.6769,-1.2457,0.0,-1.5668,-1.7827,-1.9115,0.0,-2.0173,-2.0788,-2.1546,0.0,0.0,0.0,0.0,0.0,0.0,0.0,0.0,0.0,0.0,0.0,0.0,0.0,0.0,0.0,0.0,0.0,0.0,0.0,0.0,0.0,0.0,0.0,-2.3182,-2.3182,-2.2806,-2.2688,-2.2688,-2.3107,-2.3247,-2.3247,-2.35,-2.3621,-2.3621,-2.3196,-2.3062,-2.2968,-2.2768,-2.2744,-2.2781,-2.2347,-2.2223,-2.2259,-2.2259,-2.2259,-2.2283,-2.25,-2.2585,-2.2621,-2.2826,-2.2911,-2.2911,-2.2959,-2.2971,-2.2983,-2.3031,-2.3043,-2.3092,-2.3321,-2.3381,-2.3442,-2.3707,-2.378,-2.3792,-2.3988,-2.416,-2.416,-2.416,-2.5263,-2.636,-2.636,-2.8246,-2.9804,-2.9804,-3.0763,-3.1702,-3.2452,-3.2604,-3.3196,-3.4707,-3.4954,-3.5199,-3.5961,-3.6054,-3.5999,-3.5999,-3.5999,-3.5999,-3.5999,-3.5705,-3.5485,-3.5412,-3.4752,-3.4508,-3.4574,-3.4242,-3.4471,-3.5412,-3.5549,-3.6228,-3.7327,-3.7327,-3.7863,-1.1274,0.0,-1.5956,0.0,-1.9175,-1.9873,0.0,0.0,-2.1515,0.0,0.0,0.0,0.0,0.0,0.0,0.0,0.0,0.0,0.0,0.0,0.0,0.0,0.0,0.0,0.0,0.0,0.0,0.0,0.0,0.0,0.0,-2.2979,-2.2979,-2.2979,-2.2939,-2.2926,-2.2926,-2.2926,-2.2926,-2.2926,-2.2966,-2.2979,-2.2993,-2.316,-2.3298,-2.3106,-2.2425,-2.2286,-2.2496,-2.2068,-2.2054,-2.2259,-2.2259,-2.2259,-2.2259,-2.2295,-2.2307,-2.2319,-2.2355,-2.2367,-2.2404,-2.2633,-2.2705,-2.2742,-2.2971,-2.3043,-2.3056,-2.3092,-2.3092,-2.3164,-2.3442,-2.3502,-2.3721,-2.5212,-2.5422,-2.5422,-2.5422,-2.7305,-2.9027,-2.9027,-3.0129,-3.1071,-3.1071,-3.1241,-3.1533,-3.1993,-3.2452,-3.3044,-3.4255,-3.4425,-3.4805,-3.5541,-3.5394,-3.5192,-3.5192,-3.5192,-3.5192,-3.5192,-3.5137,-3.4935,-3.4587,-3.4458,-3.464,-3.5234,-3.5177,-3.5275,-3.5412,-3.6364,-3.7327,-3.8416,-3.8416,-3.9078,-1.2395,-1.4328,-1.6274,0.0,-1.8993,-1.9562,-2.0358,0.0,0.0,0.0,0.0,0.0,0.0,0.0,0.0,0.0,0.0,0.0,0.0,0.0,0.0,0.0,0.0,0.0,0.0,0.0,0.0,0.0,0.0,0.0,-2.2859,-2.2859,-2.2779,-2.2619,-2.2619,-2.2539,-2.2378,-2.2525,-2.2699,-2.2859,-2.2859,-2.2859,-2.2859,-2.3006,-2.3094,-2.3245,-2.2834,-2.2544,-2.2513,-2.2079,-2.1861,-2.1836,-2.1981,-2.2042,-2.2054,-2.2211,-2.2259,-2.2259,-2.2259,-2.2259,-2.2283,-2.2392,-2.244,-2.2452,-2.2573,-2.2609,-2.2633,-2.2778,-2.3273,-2.3934,-2.407,-2.4765,-2.541,-2.5993,-2.6807,-2.727,-2.727,-2.8468,-2.9649,-3.0438,-3.1071,-3.1395,-3.1395,-3.122,-3.1397,-3.1988,-3.2276,-3.274,-3.3909,-3.4355,-3.4685,-3.5139,-3.5137,-3.5027,-3.5027,-3.5027,-3.5027,-3.5027,-3.4807,-3.4587,-3.4403,-3.4724,-3.5054,-3.5412,-3.5412,-3.5957,-3.7307,-3.7729,-3.8549,-3.9604,-3.9604,-3.9866,0.0,0.0,-1.5771,-1.7597,-1.8468,-1.9056,0.0,0.0,0.0,0.0,0.0,0.0,0.0,0.0,0.0,0.0,0.0,0.0,0.0,0.0,0.0,0.0,0.0,0.0,0.0,0.0,0.0,0.0,0.0,0.0,-2.2645,-2.2645,-2.2539,-2.2311,-2.2311,-2.2205,-2.1991,-2.2205,-2.2418,-2.2645,-2.2645,-2.2686,-2.2752,-2.2752,-2.2913,-2.322,-2.3025,-2.2873,-2.2653,-2.2082,-2.1832,-2.1643,-2.1691,-2.1812,-2.1897,-2.209,-2.2198,-2.2259,-2.2259,-2.2259,-2.2259,-2.2259,-2.2259,-2.2408,-2.2694,-2.2694,-2.2893,-2.338,-2.4031,-2.4834,-2.5152,-2.5827,-2.6612,-2.6985,-2.7769,-2.8537,-2.8837,-2.9367,-3.0023,-3.0956,-3.1125,-3.1125,-3.1125,-3.1054,-3.1329,-3.206,-3.2419,-3.2836,-3.3854,-3.4342,-3.4575,-3.4862,-3.4788,-3.4715,-3.4715,-3.4715,-3.4715,-3.4715,-3.4422,-3.4257,-3.4257,-3.5035,-3.5549,-3.5821,-3.6093,-3.7038,-3.8681,-3.8946,-3.9473,-4.0279,-4.0279,-4.0279,0.0,-1.2713,0.0,-1.6587,-1.7701,0.0,0.0,0.0,0.0,0.0,0.0,0.0,0.0,0.0,0.0,0.0,0.0,0.0,0.0,0.0,0.0,0.0,0.0,0.0,0.0,0.0,0.0,0.0,0.0,0.0,-2.2031,-2.2031,-2.2031,-2.2004,-2.2004,-2.2004,-2.1991,-2.2004,-2.2017,-2.2031,-2.2031,-2.2178,-2.2445,-2.2445,-2.2605,-2.2886,-2.2487,-2.2519,-2.2639,-2.1923,-2.1802,-2.1906,-2.1643,-2.1655,-2.1873,-2.1885,-2.2054,-2.2259,-2.2259,-2.2259,-2.2259,-2.2259,-2.2259,-2.2558,-2.3574,-2.3857,-2.4153,-2.5345,-2.5639,-2.5856,-2.6043,-2.6126,-2.6645,-2.7997,-2.8386,-2.8837,-3.0017,-3.0198,-3.0213,-3.0378,-3.0378,-3.0378,-3.0378,-3.0956,-3.1548,-3.1973,-3.2999,-3.3872,-3.4306,-3.4394,-3.444,-3.444,-3.4092,-3.3872,-3.3872,-3.3872,-3.3872,-3.3872,-3.3853,-3.3853,-3.3853,-3.4902,-3.5821,-3.6924,-3.7996,-3.8549,-3.8681,-3.9735,-4.0279,-4.0279,-4.0279,-4.0279,0.0,0.0,0.0,-1.5578,-1.6587,-1.7463,0.0,0.0,0.0,0.0,0.0,0.0,0.0,0.0,0.0,0.0,0.0,0.0,0.0,0.0,0.0,0.0,0.0,0.0,0.0,0.0,0.0,0.0,0.0,0.0,-2.1991,-2.1991,-2.1897,-2.171,-2.171,-2.171,-2.171,-2.171,-2.1804,-2.1991,-2.1991,-2.2044,-2.2151,-2.3259,-2.3933,-2.4046,-2.5025,-2.4238,-2.2467,-2.219,-2.1837,-2.153,-2.1562,-2.1969,-2.2523,-2.2879,-2.352,-2.4209,-2.4543,-2.4596,-2.4596,-2.4596,-2.4596,-2.4596,-2.5038,-2.5185,-2.5185,-2.5611,-2.6357,-2.6969,-2.6954,-2.7569,-2.8343,-2.8904,-2.9081,-2.9081,-2.9518,-3.0013,-3.0315,-3.0315,-3.0315,-3.0315,-3.0315,-3.0582,-3.0794,-3.0999,-3.1827,-3.2454,-3.2913,-3.3405,-3.3757,-3.4018,-3.3908,-3.3817,-3.3817,-3.3817,-3.3817,-3.3817,-3.449,-3.4883,-3.4883,-3.6499,-3.7729,-3.8129,-3.921,-3.9735,-3.9735,-4.0149,-4.0279,-4.0279,-4.0279,-4.0279,-1.1169,0.0,0.0,0.0,0.0,-1.6219,-1.7689,0.0,0.0,0.0,0.0,0.0,0.0,0.0,0.0,0.0,0.0,0.0,0.0,0.0,0.0,0.0,0.0,0.0,0.0,0.0,0.0,0.0,0.0,0.0,-2.1697,-2.1697,-2.1603,-2.1403,-2.1403,-2.1403,-2.1403,-2.1403,-2.1754,-2.2318,-2.2318,-2.2632,-2.3249,-2.4361,-2.4915,-2.5166,-2.6409,-2.5814,-2.391,-2.3774,-2.3365,-2.2709,-2.277,-2.2915,-2.334,-2.3728,-2.4426,-2.5352,-2.5548,-2.5688,-2.5758,-2.5758,-2.5758,-2.5904,-2.621,-2.6357,-2.6502,-2.6794,-2.7535,-2.813,-2.813,-2.8707,-2.9298,-2.9298,-2.9298,-2.9298,-2.9298,-2.9647,-2.9981,-2.9981,-2.9981,-2.9981,-2.9981,-3.0211,-3.0418,-3.0743,-3.1418,-3.2176,-3.2606,-3.3098,-3.3539,-3.3817,-3.3817,-3.3817,-3.3817,-3.3817,-3.3937,-3.4352,-3.5021,-3.5549,-3.5957,-3.7729,-3.8681,-3.8681,-3.9735,-4.0279,-4.0279,-4.0279,-4.0279,-4.0279,-4.0279,-4.0192,0.0,0.0,0.0,0.0,0.0,0.0,0.0,0.0,0.0,0.0,0.0,0.0,0.0,0.0,0.0,0.0,0.0,0.0,0.0,0.0,0.0,0.0,0.0,0.0,0.0,0.0,0.0,0.0,0.0,-2.1109,-2.1109,-2.1109,-2.1109,-2.1109,-2.1235,-2.1235,-2.1235,-2.1235,-2.1853,-2.3201,-2.3201,-2.3988,-2.5439,-2.558,-2.5644,-2.5976,-2.6438,-2.6787,-2.7238,-2.6839,-2.6172,-2.5517,-2.5113,-2.4775,-2.4386,-2.44,-2.4778,-2.531,-2.5468,-2.5665,-2.5904,-2.5904,-2.5904,-2.6064,-2.7245,-2.7535,-2.7825,-2.901,-2.9298,-2.9298,-2.9298,-2.9298,-2.9298,-2.9298,-2.9298,-2.9298,-2.9298,-2.9298,-2.9298,-2.9298,-2.9298,-2.9298,-2.9298,-2.9855,-3.0693,-3.1401,-3.2246,-3.2927,-3.3659,-3.3798,-3.3798,-3.3817,-3.3817,-3.3817,-3.3817,-3.3817,-3.4352,-3.5412,-3.5549,-3.5957,-3.7059,-3.8129,-3.8793,-3.8793,-3.9713,-4.0257,-4.0257,-4.0279,-4.0279,-4.0279,-4.0257,-3.9995,-1.0501,0.0,0.0,0.0,0.0,0.0,0.0,0.0,0.0,0.0,0.0,0.0,0.0,0.0,0.0,0.0,0.0,0.0,0.0,0.0,0.0,0.0,0.0,0.0,0.0,0.0,0.0,0.0,-2.1964,-2.209,-2.1109,-2.1964,-2.2591,-2.2591,-2.345,-2.3946,-2.3946,-2.3946,-2.407,-2.444,-2.444,-2.4734,-2.5214,-2.6447,-2.7001,-2.7243,-2.8511,-2.9418,-2.9661,-2.7802,-2.6588,-2.5935,-2.5517,-2.5457,-2.5591,-2.5555,-2.6175,-2.7108,-2.7599,-2.7829,-2.8079,-2.8182,-2.8259,-2.8418,-2.8707,-2.8851,-2.8851,-2.9154,-2.9298,-2.9298,-2.9298,-2.9298,-2.9298,-2.9298,-2.9298,-2.9298,-2.9298,-2.9298,-2.9298,-2.9298,-2.9298,-2.9298,-2.9298,-2.9712,-3.0184,-3.0623,-3.1427,-3.212,-3.2809,-3.3239,-3.3505,-3.378,-3.3817,-3.4075,-3.4883,-3.5021,-3.5431,-3.6499,-3.7327,-3.7863,-3.8262,-3.9,-3.9347,-3.9347,-3.9626,-3.9755,-3.9755,-4.0105,-4.0279,-4.0279,-3.9908,-3.9493,-1.1196,-1.1423,-1.1744,0.0,0.0,0.0,0.0,-1.4496,0.0,0.0,0.0,0.0,0.0,0.0,0.0,0.0,0.0,0.0,0.0,0.0,0.0,0.0,0.0,0.0,0.0,0.0,0.0,0.0,-2.2681,-2.3033,-2.2313,-2.2926,-2.3399,-2.3399,-2.4127,-2.4569,-2.4711,-2.4711,-2.514,-2.579,-2.579,-2.6156,-2.6658,-2.773,-2.82,-2.8235,-2.9379,-3.0075,-3.0189,-2.906,-2.8196,-2.7668,-2.727,-2.702,-2.68,-2.6599,-2.7056,-2.7788,-2.8201,-2.8519,-2.8805,-2.9012,-2.9171,-2.9298,-2.9298,-2.9298,-2.9298,-2.9298,-2.9298,-2.9298,-2.9298,-2.9298,-2.9298,-2.9298,-2.9298,-2.9298,-2.9298,-2.9298,-2.9298,-2.9298,-2.9298,-2.9298,-2.9298,-2.9441,-2.979,-3.0269,-3.0937,-3.1652,-3.2467,-3.3037,-3.3422,-3.378,-3.3817,-3.4214,-3.5275,-3.5412,-3.6093,-3.7595,-3.8283,-3.8946,-3.9341,-3.9541,-3.9558,-3.9558,-3.9362,-3.9253,-3.9126,-3.9626,-3.9628,-3.9411,-3.9165,-3.8794,-1.2262,-1.2355,-1.2435,-1.3074,0.0,0.0,-1.4442,-1.4429,0.0,0.0,0.0,0.0,0.0,0.0,0.0,0.0,0.0,0.0,0.0,0.0,0.0,0.0,0.0,0.0,0.0,0.0,-2.2006,-2.2245,-2.3181,-2.3889,-2.4007,-2.4007,-2.4007,-2.4007,-2.4125,-2.4386,-2.4811,-2.4811,-2.5605,-2.7194,-2.7194,-2.7829,-2.8975,-2.8975,-2.8975,-2.9012,-2.936,-2.9525,-2.9635,-3.0351,-3.0265,-2.9752,-2.9413,-2.8642,-2.7716,-2.7334,-2.7407,-2.7677,-2.7725,-2.8138,-2.8662,-2.8694,-2.8948,-2.9234,-2.9234,-2.9266,-2.9298,-2.9298,-2.9298,-2.9298,-2.9298,-2.9298,-2.9298,-2.9298,-2.9298,-2.9298,-2.9298,-2.9298,-2.9298,-2.9298,-2.9298,-2.9298,-2.9298,-2.9298,-2.9568,-3.0266,-3.0676,-3.1367,-3.2526,-3.3085,-3.3502,-3.3937,-3.3937,-3.449,-3.5685,-3.5821,-3.6634,-3.8814,-3.8946,-3.9341,-4.0279,-3.9799,-3.9558,-3.9558,-3.9122,-3.8651,-3.8272,-3.8851,-3.8786,-3.8226,-3.8043,-3.8073,-1.4253,-1.4458,-1.4553,-1.3756,0.0,0.0,-1.2384,-1.2625,0.0,0.0,0.0,0.0,0.0,0.0,0.0,0.0,0.0,0.0,0.0,0.0,0.0,0.0,0.0,0.0,0.0,0.0,-2.2349,-2.3417,-2.3654,-2.4242,-2.5294,-2.541,-2.541,-2.541,-2.6469,-2.7097,-2.7168,-2.7168,-2.7499,-2.8147,-2.8147,-2.8428,-2.8975,-2.8975,-2.8975,-2.8993,-2.9067,-2.9269,-2.958,-2.9745,-2.9868,-2.9789,-2.9457,-2.879,-2.813,-2.7467,-2.7248,-2.7343,-2.7629,-2.782,-2.7979,-2.8249,-2.8583,-2.8869,-2.8869,-2.9075,-2.9298,-2.9298,-2.9298,-2.9298,-2.9298,-2.9298,-2.9298,-2.9298,-2.9298,-2.9298,-2.9298,-2.9298,-2.9298,-2.9298,-2.9298,-2.9298,-2.9298,-2.9298,-2.9441,-2.9997,-3.046,-3.1217,-3.207,-3.2833,-3.3724,-3.4983,-3.5158,-3.5821,-3.7863,-3.7996,-3.866,-3.9866,-4.0018,-4.0149,-4.0279,-3.9799,-3.9558,-3.9558,-3.9194,-3.8766,-3.8509,-3.8873,-3.8487,-3.7356,-3.7644,-3.753,-1.5478,-1.5438,-1.5263,-1.5047,0.0,0.0,0.0,0.0,0.0,0.0,0.0,0.0,0.0,0.0,0.0,0.0,0.0,0.0,0.0,0.0,0.0,0.0,0.0,0.0,0.0,0.0,-2.3634,-2.5099,-2.523,-2.5457,-2.6134,-2.6246,-2.6246,-2.6246,-2.6825,-2.727,-2.7471,-2.7471,-2.7673,-2.8077,-2.8297,-2.8498,-2.87,-2.8902,-2.8975,-2.8975,-2.8975,-2.9085,-2.9287,-2.9489,-2.9574,-2.9368,-2.906,-2.8753,-2.8263,-2.7467,-2.72,-2.7232,-2.7407,-2.7582,-2.7757,-2.7931,-2.8217,-2.8503,-2.8503,-2.8742,-2.9075,-2.925,-2.9298,-2.9298,-2.9298,-2.9298,-2.9298,-2.9298,-2.9298,-2.9298,-2.9298,-2.9298,-2.9298,-2.9298,-2.9298,-2.9298,-2.9298,-2.9298,-2.9441,-2.9568,-3.0418,-3.1213,-3.1807,-3.32,-3.4383,-3.5256,-3.5821,-3.6904,-3.8549,-3.8681,-3.921,-4.0279,-4.0039,-3.9908,-3.9908,-3.9209,-3.8838,-3.8838,-3.8914,-3.8659,-3.8146,-3.8401,-3.8039,-3.7213,-3.7591,-3.7609,0.0,0.0,0.0,0.0,0.0,-1.569,0.0,0.0,0.0,0.0,0.0,0.0,0.0,0.0,0.0,0.0,0.0,0.0,0.0,0.0,0.0,0.0,0.0,0.0,0.0,0.0,-2.4739,-2.6208,-2.6133,-2.6133,-2.6444,-2.6463,-2.6499,-2.6591,-2.6591,-2.6738,-2.7068,-2.7068,-2.727,-2.7655,-2.8003,-2.8242,-2.8407,-2.8718,-2.892,-2.8975,-2.8975,-2.8975,-2.9012,-2.9324,-2.9386,-2.9062,-2.8824,-2.8533,-2.8163,-2.7567,-2.72,-2.72,-2.72,-2.7391,-2.7629,-2.7629,-2.7852,-2.8138,-2.8201,-2.8424,-2.8742,-2.9091,-2.9202,-2.9202,-2.9282,-2.9298,-2.9298,-2.9298,-2.9298,-2.9298,-2.9298,-2.9298,-2.9298,-2.9298,-2.9298,-2.9298,-2.9298,-2.9441,-2.9568,-2.9568,-3.071,-3.1683,-3.2123,-3.4038,-3.5549,-3.5957,-3.6769,-3.7688,-3.8819,-3.8819,-3.9171,-3.9995,-3.9624,-3.9406,-3.9406,-3.875,-3.8423,-3.8407,-3.8806,-3.8573,-3.7806,-3.7845,-3.7632,-3.7064,-3.7445,-3.753,0.0,0.0,0.0,0.0,-1.8019,0.0,0.0,0.0,0.0,0.0,0.0,0.0,0.0,0.0,0.0,0.0,0.0,0.0,0.0,0.0,0.0,0.0,0.0,0.0,0.0,0.0,0.0,-2.5417,-2.45,-2.4519,-2.5949,-2.6041,-2.6206,-2.6573,-2.6591,-2.6609,-2.6646,-2.6646,-2.6848,-2.7251,-2.7288,-2.7691,-2.8388,-2.8443,-2.8645,-2.8975,-2.8975,-2.8975,-2.8993,-2.903,-2.9028,-2.9062,-2.9077,-2.8768,-2.8207,-2.7735,-2.7451,-2.72,-2.72,-2.7232,-2.7264,-2.7264,-2.7502,-2.7836,-2.8138,-2.8249,-2.836,-2.8726,-2.8837,-2.89,-2.9218,-2.9298,-2.9298,-2.9298,-2.9298,-2.9298,-2.9298,-2.9298,-2.9298,-2.9298,-2.9298,-2.9298,-2.9298,-2.9855,-3.0266,-3.0266,-3.2351,-3.39,-3.4038,-3.5549,-3.7193,-3.8262,-3.8395,-3.8777,-3.9411,-3.9496,-3.9322,-3.9034,-3.8947,-3.8925,-3.8925,-3.9209,-3.9452,-3.9498,-3.9196,-3.8616,-3.8034,-3.7569,-3.7022,-3.6183,-3.6583,-3.6478,0.0,0.0,0.0,0.0,0.0,0.0,-1.6911,0.0,-1.5962,0.0,0.0,0.0,0.0,0.0,0.0,0.0,0.0,0.0,0.0,0.0,0.0,0.0,0.0,0.0,0.0,0.0,0.0,0.0,0.0,-2.4042,-2.5216,-2.5491,-2.5803,-2.6206,-2.6224,-2.6334,-2.6591,-2.6591,-2.6664,-2.683,-2.7068,-2.7361,-2.771,-2.8187,-2.848,-2.8663,-2.8883,-2.8975,-2.8975,-2.8975,-2.8966,-2.9046,-2.9118,-2.8737,-2.8123,-2.7622,-2.729,-2.72,-2.72,-2.72,-2.72,-2.72,-2.7312,-2.7486,-2.7836,-2.7931,-2.8011,-2.836,-2.8456,-2.8535,-2.89,-2.8996,-2.9043,-2.925,-2.9298,-2.9298,-2.9298,-2.9298,-2.9298,-2.9298,-2.9981,-3.0534,-3.0534,-3.0634,-3.0848,-3.1192,-3.3128,-3.4717,-3.5218,-3.6904,-3.8129,-3.8681,-3.921,-3.9671,-3.958,-3.9799,-3.9777,-3.9274,-3.9253,-3.9122,-3.8838,-3.9034,-3.9104,-3.9172,-3.8594,-3.8231,-3.7826,-3.7273,-3.6704,-3.6121,-3.6517,-3.6665,-2.0431,0.0,0.0,0.0,0.0,0.0,0.0,0.0,0.0,0.0,0.0,0.0,0.0,0.0,0.0,0.0,0.0,0.0,0.0,0.0,0.0,0.0,0.0,0.0,0.0,0.0,0.0,0.0,0.0,0.0,-2.4372,-2.4721,-2.5161,-2.5784,-2.5894,-2.6114,-2.6408,-2.6536,-2.6591,-2.6591,-2.6885,-2.7068,-2.7196,-2.7911,-2.8278,-2.8407,-2.881,-2.8975,-2.8975,-2.8975,-2.8975,-2.9012,-2.8823,-2.8482,-2.8077,-2.7652,-2.736,-2.7206,-2.7169,-2.72,-2.72,-2.72,-2.72,-2.7248,-2.7502,-2.7582,-2.7661,-2.7995,-2.809,-2.817,-2.8535,-2.8614,-2.8678,-2.8932,-2.9075,-2.9297,-2.9709,-2.9774,-2.9981,-3.0392,-3.1367,-3.2053,-3.2053,-3.1966,-3.2155,-3.2838,-3.4425,-3.5854,-3.6555,-3.8109,-3.9035,-3.8908,-3.9671,-3.9821,-3.9209,-3.9471,-3.9471,-3.8991,-3.8947,-3.8859,-3.8641,-3.8516,-3.8434,-3.8564,-3.7931,-3.7488,-3.7361,-3.6855,-3.6372,-3.5935,-3.639,-3.6556,0.0,0.0,0.0,-1.9916,0.0,0.0,0.0,0.0,-1.8412,0.0,0.0,0.0,0.0,0.0,0.0,-1.6364,0.0,0.0,0.0,0.0,0.0,0.0,0.0,0.0,0.0,0.0,0.0,0.0,0.0,0.0,-2.3437,-2.3602,-2.4152,-2.5344,-2.5766,-2.5968,-2.5986,-2.6389,-2.6591,-2.6591,-2.6591,-2.6811,-2.7196,-2.76,-2.8003,-2.8407,-2.881,-2.8975,-2.8975,-2.8975,-2.8975,-2.8993,-2.8277,-2.8043,-2.8112,-2.8094,-2.7718,-2.7132,-2.7222,-2.72,-2.72,-2.72,-2.72,-2.72,-2.7216,-2.7216,-2.7296,-2.7645,-2.7757,-2.782,-2.8154,-2.8233,-2.8233,-2.8249,-2.8519,-2.9196,-3.0683,-3.1251,-3.1772,-3.3291,-3.3568,-3.3568,-3.3568,-3.4277,-3.4846,-3.5237,-3.6864,-3.8109,-3.8528,-3.9604,-4.0105,-3.9624,-3.958,-3.9187,-3.8226,-3.816,-3.7964,-3.7483,-3.744,-3.7658,-3.8117,-3.787,-3.7713,-3.7784,-3.7337,-3.675,-3.6121,-3.5936,-3.5706,-3.5459,-3.5914,-3.5894,0.0,0.0,-2.329,-2.1383,0.0,0.0,0.0,0.0,0.0,0.0,0.0,0.0,0.0,0.0,-1.733,-1.6798,-1.6597,0.0,0.0,0.0,0.0,0.0,0.0,0.0,0.0,0.0,0.0,0.0,-1.9861,0.0,0.0,-2.2774,-2.3584,-2.4537,-2.4959,-2.5436,-2.5949,-2.6096,-2.6316,-2.6591,-2.6591,-2.6664,-2.6811,-2.7196,-2.76,-2.8003,-2.8407,-2.8737,-2.8975,-2.8975,-2.8975,-2.8975,-2.8737,-2.8349,-2.7957,-2.7596,-2.7391,-2.7263,-2.7206,-2.72,-2.72,-2.72,-2.72,-2.72,-2.72,-2.72,-2.7232,-2.7343,-2.7391,-2.7471,-2.7804,-2.8565,-2.9277,-2.9526,-3.0361,-3.1265,-3.1808,-3.2033,-3.2277,-3.2801,-3.361,-3.428,-3.428,-3.5495,-3.6506,-3.6515,-3.7328,-3.8251,-3.9239,-3.9259,-3.9253,-3.91,-3.9078,-3.8816,-3.816,-3.8117,-3.8182,-3.8335,-3.8335,-3.8423,-3.8575,-3.8146,-3.7811,-3.7713,-3.7015,-3.641,-3.6039,-3.5748,-3.5541,-3.5418,-3.5583,-3.5562,-2.3178,-2.3773,0.0,-2.2446,-2.1768,0.0,-1.9347,0.0,0.0,0.0,0.0,0.0,0.0,0.0,0.0,-1.7587,-1.6853,-1.59,0.0,0.0,0.0,0.0,0.0,0.0,0.0,0.0,-1.854,-1.9256,-1.9017,0.0,0.0,0.0,-2.2887,-2.3694,-2.4409,-2.5087,-2.5748,-2.5894,-2.6169,-2.6591,-2.6591,-2.6591,-2.6609,-2.6995,-2.7306,-2.7581,-2.815,-2.8535,-2.8792,-2.892,-2.8975,-2.8993,-2.8874,-2.8498,-2.797,-2.7492,-2.7161,-2.6985,-2.7206,-2.72,-2.72,-2.72,-2.72,-2.72,-2.72,-2.76,-2.7981,-2.7981,-2.823,-2.8675,-2.891,-2.9624,-3.0338,-3.06,-3.1425,-3.2331,-3.2861,-3.3105,-3.335,-3.4011,-3.493,-3.5601,-3.5601,-3.6655,-3.7377,-3.7267,-3.7653,-3.8293,-3.9253,-3.9034,-3.8772,-3.8597,-3.8575,-3.8379,-3.7898,-3.7855,-3.7986,-3.8292,-3.8313,-3.8313,-3.8313,-3.7906,-3.7487,-3.724,-3.6572,-3.6055,-3.5665,-3.5375,-3.519,-3.519,-3.5024,-3.4941]}]]